[[{"header":{"parameterUnit":"m.s-1","parameterCategory":1,"la1":30.6,"la2":28.766,"lo1":-90.7593,"lo2":-88.6598,"dy":0.0162,"dx":0.0183,"nx":116,"ny":114,"refTime":"2024-05-20T00:00:00:Z","depth":0,"parameterNumber":2,"parameterNumberName":"U-component_of_WINDS"},"data":[0.0,0.0,0.0,0.0,0.0,0.0,0.0,0.0,0.0,0.0,0.0,0.0,0.0,0.0,0.0,0.0,0.0,0.0,0.0,0.0,0.0,0.0,0.0,0.0,0.0,0.0,0.0,0.0,0.0,0.0,0.0,0.0,0.0,0.0,0.0,0.0,0.0,0.0,0.0,0.0,0.0,0.0,0.0,0.0,0.0,0.0,0.0,0.0,0.0,0.0,0.0,0.0,0.0,0.0,0.0,0.0,0.0,0.0,0.0,0.0,0.0,0.0,0.0,0.0,0.0,0.0,0.0,0.0,0.0,0.0,0.0,0.0,0.0,0.0,0.0,0.0,0.0,0.0,0.0,0.0,0.0,0.0,0.0,0.0,0.0,0.0,0.0,0.0,0.0,0.0,0.0,0.0,0.0,0.0,0.0,0.0,0.0,0.0,0.0,0.0,0.0,0.0,0.0,0.0,0.0,0.0,0.0,0.0,0.0,0.0,0.0,0.0,0.0,0.0,0.0,0.0,0.0,0.0,0.0,0.0,0.0,0.0,0.0,0.0,0.0,0.0,0.0,0.0,0.0,0.0,0.0,0.0,0.0,0.0,0.0,0.0,0.0,0.0,0.0,0.0,0.0,0.0,0.0,0.0,0.0,0.0,0.0,0.0,0.0,0.0,0.0,0.0,0.0,0.0,0.0,0.0,0.0,0.0,0.0,0.0,0.0,0.0,0.0,0.0,0.0,0.0,0.0,0.0,0.0,0.0,0.0,0.0,0.0,0.0,0.0,0.0,0.0,0.0,0.0,0.0,0.0,0.0,0.0,0.0,0.0,0.0,0.0,0.0,0.0,0.0,0.0,0.0,0.0,0.0,0.0,0.0,0.0,0.0,0.0,0.0,0.0,0.0,0.0,0.0,0.0,0.0,0.0,0.0,0.0,0.0,0.0,0.0,0.0,0.0,0.0,0.0,0.0,0.0,0.0,0.0,0.0,0.0,0.0,0.0,0.0,0.0,0.0,0.0,0.0,0.0,0.0,0.0,0.0,0.0,0.0,0.0,0.0,0.0,0.0,0.0,0.0,0.0,0.0,0.0,0.0,0.0,0.0,0.0,0.0,0.0,0.0,0.0,0.0,0.0,0.0,0.0,0.0,0.0,0.0,0.0,0.0,0.0,0.0,0.0,0.0,0.0,0.0,0.0,0.0,0.0,0.0,0.0,0.0,0.0,0.0,0.0,0.0,0.0,0.0,0.0,0.0,0.0,0.0,0.0,0.0,0.0,0.0,0.0,0.0,0.0,0.0,0.0,0.0,0.0,0.0,0.0,0.0,0.0,0.0,0.0,0.0,0.0,0.0,0.0,0.0,0.0,0.0,0.0,0.0,0.0,0.0,0.0,0.0,0.0,0.0,0.0,0.0,0.0,0.0,0.0,0.0,0.0,0.0,0.0,0.0,0.0,0.0,0.0,0.0,0.0,0.0,0.0,0.0,0.0,0.0,0.0,0.0,0.0,0.0,0.0,0.0,0.0,0.0,0.0,0.0,0.0,0.0,0.0,0.0,0.0,0.0,0.0,0.0,0.0,0.0,0.0,0.0,0.0,0.0,0.0,0.0,0.0,0.0,0.0,0.0,0.0,0.0,0.0,0.0,0.0,0.0,0.0,0.0,0.0,0.0,0.0,0.0,0.0,0.0,0.0,0.0,0.0,0.0,0.0,0.0,0.0,0.0,0.0,0.0,0.0,0.0,0.0,0.0,0.0,0.0,0.0,0.0,0.0,0.0,0.0,0.0,0.0,0.0,0.0,0.0,0.0,0.0,0.0,0.0,0.0,0.0,0.0,0.0,0.0,0.0,0.0,0.0,0.0,0.0,0.0,0.0,0.0,0.0,0.0,0.0,0.0,0.0,0.0,0.0,0.0,0.0,0.0,0.0,0.0,0.0,0.0,0.0,0.0,0.0,0.0,0.0,0.0,0.0,0.0,0.0,0.0,0.0,0.0,0.0,0.0,0.0,0.0,0.0,0.0,0.0,0.0,0.0,0.0,0.0,0.0,0.0,0.0,0.0,0.0,0.0,0.0,0.0,0.0,0.0,0.0,0.0,0.0,0.0,0.0,0.0,0.0,0.0,0.0,0.0,0.0,0.0,0.0,0.0,0.0,0.0,0.0,0.0,0.0,0.0,0.0,0.0,0.0,0.0,0.0,0.0,0.0,0.0,0.0,0.0,0.0,0.0,0.0,0.0,0.0,0.0,0.0,0.0,0.0,0.0,0.0,0.0,0.0,0.0,0.0,0.0,0.0,0.0,0.0,0.0,0.0,0.0,0.0,0.0,0.0,0.0,0.0,0.0,0.0,0.0,0.0,0.0,0.0,0.0,0.0,0.0,0.0,0.0,0.0,0.0,0.0,0.0,0.0,0.0,0.0,0.0,0.0,0.0,0.0,0.0,0.0,0.0,0.0,0.0,0.0,0.0,0.0,0.0,0.0,0.0,0.0,0.0,0.0,0.0,0.0,0.0,0.0,0.0,0.0,0.0,0.0,0.0,0.0,0.0,0.0,0.0,0.0,0.0,0.0,0.0,0.0,0.0,0.0,0.0,0.0,0.0,0.0,0.0,0.0,0.0,0.0,0.0,0.0,0.0,0.0,0.0,0.0,0.0,0.0,0.0,0.0,0.0,0.0,0.0,0.0,0.0,0.0,0.0,0.0,0.0,0.0,0.0,0.0,0.0,0.0,0.0,0.0,0.0,0.0,0.0,0.0,0.0,0.0,0.0,0.0,0.0,0.0,0.0,0.0,0.0,0.0,0.0,0.0,0.0,0.0,0.0,0.0,0.0,0.0,0.0,0.0,0.0,0.0,0.0,0.0,0.0,0.0,0.0,0.0,0.0,0.0,0.0,0.0,0.0,0.0,0.0,0.0,0.0,0.0,0.0,0.0,0.0,0.0,0.0,0.0,0.0,0.0,0.0,0.0,0.0,0.0,0.0,0.0,0.0,0.0,0.0,0.0,0.0,0.0,0.0,0.0,0.0,0.0,0.0,0.0,0.0,0.0,0.0,0.0,0.0,0.0,0.0,0.0,0.0,0.0,0.0,0.0,0.0,0.0,0.0,0.0,0.0,0.0,0.0,0.0,0.0,0.0,0.0,0.0,0.0,0.0,0.0,0.0,0.0,0.0,0.0,0.0,0.0,0.0,0.0,0.0,0.0,0.0,0.0,0.0,0.0,0.0,0.0,0.0,0.0,0.0,0.0,0.0,0.0,0.0,0.0,0.0,0.0,0.0,0.0,0.0,0.0,0.0,0.0,0.0,0.0,0.0,0.0,0.0,0.0,0.0,0.0,0.0,0.0,0.0,0.0,0.0,0.0,0.0,0.0,0.0,0.0,0.0,0.0,0.0,0.0,0.0,0.0,0.0,0.0,0.0,0.0,0.0,0.0,0.0,0.0,0.0,0.0,0.0,0.0,0.0,0.0,0.0,0.0,0.0,0.0,0.0,0.0,0.0,0.0,0.0,0.0,0.0,0.0,0.0,0.0,0.0,0.0,0.0,0.0,0.0,0.0,0.0,0.0,0.0,0.0,0.0,0.0,0.0,0.0,0.0,0.0,0.0,0.0,0.0,0.0,0.0,0.0,0.0,0.0,0.0,0.0,0.0,0.0,0.0,0.0,0.0,0.0,0.0,0.0,0.0,0.0,0.0,0.0,0.0,0.0,0.0,0.0,0.0,0.0,0.0,0.0,0.0,0.0,0.0,0.0,0.0,0.0,0.0,0.0,0.0,0.0,0.0,0.0,0.0,0.0,0.0,0.0,0.0,0.0,0.0,0.0,0.0,0.0,0.0,0.0,0.0,0.0,0.0,0.0,0.0,0.0,0.0,0.0,0.0,0.0,0.0,0.0,0.0,0.0,0.0,0.0,0.0,0.0,0.0,0.0,0.0,0.0,0.0,0.0,0.0,0.0,0.0,0.0,0.0,0.0,0.0,0.0,0.0,0.0,0.0,0.0,0.0,0.0,0.0,0.0,0.0,0.0,0.0,0.0,0.0,0.0,0.0,0.0,0.0,0.0,0.0,0.0,0.0,0.0,0.0,0.0,0.0,0.0,0.0,0.0,0.0,0.0,0.0,0.0,0.0,0.0,0.0,0.0,0.0,0.0,0.0,0.0,0.0,0.0,0.0,0.0,0.0,0.0,0.0,0.0,0.0,0.0,0.0,0.0,0.0,0.0,0.0,0.0,0.0,0.0,0.0,0.0,0.0,0.0,0.0,0.0,0.0,0.0,0.0,0.0,0.0,0.0,0.0,0.0,0.0,0.0,0.0,0.0,0.0,0.0,0.0,0.0,0.0,0.0,0.0,0.0,0.0,0.0,0.0,0.0,0.0,0.0,0.0,0.0,0.0,0.0,0.0,0.0,0.0,0.0,0.0,0.0,0.0,0.0,0.0,0.0,0.0,0.0,0.0,0.0,0.0,0.0,0.0,0.0,0.0,0.0,0.0,0.0,0.0,0.0,0.0,0.0,0.0,0.0,0.0,0.0,0.0,0.0,0.0,0.0,0.0,0.0,0.0,0.0,0.0,0.0,0.0,0.0,0.0,0.0,0.0,0.0,0.0,0.0,0.0,0.0,0.0,0.0,0.0,0.0,0.0,0.0,0.0,0.0,0.0,0.0,0.0,0.0,0.0,0.0,0.0,0.0,0.0,0.0,0.0,0.0,0.0,0.0,0.0,0.0,0.0,0.0,0.0,0.0,0.0,0.0,0.0,0.0,0.0,0.0,0.0,0.0,0.0,0.0,0.0,0.0,0.0,0.0,0.0,0.0,0.0,0.0,0.0,0.0,0.0,0.0,0.0,0.0,0.0,0.0,0.0,0.0,0.0,0.0,0.0,0.0,0.0,0.0,0.0,0.0,0.0,0.0,0.0,0.0,0.0,0.0,0.0,0.0,0.0,0.0,0.0,0.0,0.0,0.0,0.0,0.0,0.0,0.0,0.0,0.0,0.0,0.0,0.0,0.0,0.0,0.0,0.0,0.0,0.0,0.0,0.0,0.0,0.0,0.0,0.0,0.0,0.0,0.0,0.0,0.0,0.0,0.0,0.0,0.0,0.0,0.0,0.0,0.0,0.0,0.0,0.0,0.0,0.0,0.0,0.0,0.0,0.0,0.0,0.0,0.0,0.0,0.0,0.0,0.0,0.0,0.0,0.0,0.0,0.0,0.0,0.0,0.0,0.0,0.0,0.0,0.0,0.0,0.0,0.0,0.0,0.0,0.0,0.0,0.0,0.0,0.0,0.0,0.0,0.0,0.0,0.0,0.0,0.0,0.0,0.0,0.0,0.0,0.0,0.0,0.0,0.0,0.0,0.0,0.0,0.0,0.0,0.0,0.0,0.0,0.0,0.0,0.0,0.0,0.0,0.0,0.0,0.0,0.0,0.0,0.0,0.0,0.0,0.0,0.0,0.0,0.0,0.0,0.0,0.0,0.0,0.0,0.0,0.0,0.0,0.0,0.0,0.0,0.0,0.0,0.0,0.0,0.0,0.0,0.0,0.0,0.0,0.0,0.0,0.0,0.0,0.0,0.0,0.0,0.0,0.0,0.0,0.0,0.0,0.0,0.0,0.0,0.0,0.0,0.0,0.0,0.0,0.0,0.0,0.0,0.0,0.0,0.0,0.0,0.0,0.0,0.0,0.0,0.0,0.0,0.0,0.0,0.0,0.0,0.0,0.0,0.0,0.0,0.0,0.0,0.0,0.0,0.0,0.0,0.0,0.0,0.0,0.0,0.0,0.0,0.0,0.0,0.0,0.0,0.0,0.0,0.0,0.0,0.0,0.0,0.0,0.0,0.0,0.0,0.0,0.0,0.0,0.0,0.0,0.0,0.0,0.0,0.0,0.0,0.0,0.0,0.0,0.0,0.0,0.0,0.0,0.0,0.0,0.0,0.0,0.0,0.0,0.0,0.0,0.0,0.0,0.0,0.0,0.0,0.0,0.0,0.0,0.0,0.0,0.0,0.0,0.0,0.0,0.0,0.0,0.0,0.0,0.0,0.0,0.0,0.0,0.0,0.0,0.0,0.0,0.0,0.0,0.0,0.0,0.0,0.0,0.0,0.0,0.0,0.0,0.0,-0.1149,-0.0603,0.0,0.0,0.0,0.0,0.0,0.0,0.0,0.0,0.0,0.0,0.0,0.0,0.0,0.0,0.0,0.0,0.0,0.0,0.0,0.0,0.0,0.0,0.0,-0.5291,-0.5328,-0.5472,-0.5243,-0.5137,-0.5282,0.0,0.0,0.0,0.0,0.0,-0.4688,-0.4559,-0.4868,-0.5648,-0.5893,-0.6165,-0.6423,-0.5762,-0.4969,-0.4083,0.0,0.0,0.0,0.0,0.0,0.0,0.0,0.0,0.0,0.0,0.0,0.0,0.0,0.0,0.0,0.0,0.0,0.0,0.0,0.0,0.0,0.0,0.0,0.0,0.0,0.0,0.0,0.0,0.0,0.0,0.0,0.0,0.0,0.0,0.0,0.0,0.0,0.0,0.0,0.0,0.0,0.0,0.0,0.0,0.0,0.0,0.0,0.0,0.0,0.0,0.0,0.0,0.0,0.0,0.0,0.0,0.0,0.0,0.0,0.0,0.0,0.0,0.0,0.0,0.0,0.0,0.0,0.0,0.0,0.0,-0.2452,-0.145,0.0,0.0,0.0,0.0,0.0,0.0,0.0,0.0,0.0,0.0,0.0,0.0,0.0,0.0,0.0,0.0,0.0,0.0,0.0,0.0,0.0,-0.5852,-0.5722,-0.5903,-0.6078,-0.6177,-0.5918,-0.572,-0.5646,-0.5421,0.0,0.0,0.0,-0.5059,-0.5381,-0.5166,-0.5795,-0.7333,-0.7599,-0.8062,-0.8708,-0.8708,-0.8009,-0.6683,-0.5519,0.0,0.0,0.0,0.0,0.0,0.0,0.0,0.0,0.0,0.0,0.0,0.0,0.0,0.0,0.0,0.0,0.0,0.0,0.0,0.0,0.0,0.0,0.0,0.0,0.0,0.0,0.0,0.0,0.0,0.0,0.0,0.0,0.0,0.0,0.0,0.0,0.0,0.0,0.0,0.0,0.0,0.0,0.0,0.0,0.0,0.0,0.0,0.0,0.0,0.0,0.0,0.0,0.0,0.0,0.0,0.0,0.0,0.0,0.0,0.0,0.0,0.0,0.0,-0.6776,-0.6934,-0.7137,-0.7007,-0.7019,-0.6963,-0.4283,-0.2943,-0.2542,-0.17,0.0,0.0,0.0,0.0,0.0,0.0,0.0,0.0,0.0,0.0,0.0,0.0,0.0,0.0,0.0,0.0,0.0,0.0,0.0,-0.6059,-0.6495,-0.6571,-0.6782,-0.7246,-0.699,-0.6627,-0.6222,-0.6108,0.0,0.0,-0.5631,-0.5978,-0.6478,-0.6448,-0.7023,-0.8221,-0.9563,-1.0674,-1.1548,-1.1548,-1.1445,-1.112,-0.7996,-0.6434,-0.6141,0.0,0.0,0.0,0.0,0.0,0.0,0.0,0.0,0.0,0.0,0.0,0.0,0.0,0.0,0.0,0.0,0.0,0.0,0.0,0.0,0.0,0.0,0.0,0.0,0.0,0.0,0.0,0.0,0.0,0.0,0.0,0.0,0.0,0.0,0.0,0.0,0.0,0.0,0.0,0.0,0.0,-0.5501,-0.5891,0.0,0.0,0.0,0.0,0.0,0.0,0.0,0.0,0.0,0.0,0.0,0.0,0.0,-0.7695,-0.8014,-0.8482,-0.8737,-0.8816,-0.9098,-0.9264,-0.9276,-0.8636,-0.8333,-0.8299,-0.7242,0.0,-0.4189,-0.2849,0.0,0.0,0.0,0.0,0.0,0.0,0.0,0.0,0.0,0.0,0.0,0.0,0.0,0.0,0.0,0.0,0.0,0.0,0.0,0.0,0.0,-0.7593,-0.8149,-0.8379,-0.844,-0.8148,-0.7414,-0.7102,-0.6619,-0.5919,-0.6189,-0.6526,-0.6915,-0.7511,-0.89,-1.1106,-1.3008,-1.3864,-1.3661,-1.3661,-1.3373,-1.2761,-1.123,-0.9664,-0.8128,-0.7333,0.0,0.0,0.0,0.0,0.0,0.0,0.0,0.0,0.0,0.0,0.0,0.0,0.0,0.0,0.0,0.0,0.0,0.0,0.0,0.0,0.0,0.0,0.0,0.0,0.0,0.0,0.0,0.0,0.0,0.0,0.0,0.0,0.0,0.0,0.0,0.0,0.0,0.0,0.0,-0.6456,-0.7292,-0.7817,-0.7744,-0.7516,0.0,0.0,0.0,0.0,0.0,0.0,0.0,0.0,0.0,-0.9536,-1.0095,-1.0257,-1.0021,-1.0523,-1.058,-1.0197,-1.0354,-1.0508,-1.0629,-1.0335,-1.0168,-1.0136,-0.9324,-0.8433,-0.744,-0.5496,-0.4515,-0.4233,0.0,0.0,0.0,0.0,-0.4569,-0.4034,0.0,0.0,0.0,0.0,0.0,0.0,0.0,0.0,0.0,0.0,0.0,0.0,-0.7914,-0.8947,-0.9716,-0.9931,-1.0078,-0.9829,-0.9027,-0.8352,-0.7645,-0.6881,-0.708,-0.745,-0.7984,-0.9476,-1.1487,-1.4042,-1.5834,-1.6295,-1.5517,-1.5517,-1.5037,-1.4178,-1.4032,-1.2633,-1.0342,-0.944,-0.8178,0.0,0.0,0.0,0.0,0.0,0.0,0.0,0.0,0.0,0.0,0.0,0.0,0.0,0.0,0.0,0.0,0.0,0.0,0.0,0.0,0.0,0.0,0.0,0.0,0.0,0.0,0.0,0.0,0.0,0.0,0.0,0.0,0.0,0.0,0.0,0.0,0.0,0.0,-0.8113,-0.8947,-0.9766,-0.9796,-0.9627,0.0,0.0,0.0,0.0,0.0,0.0,-1.0921,-1.0884,-1.1285,-1.2219,-1.2533,-1.2476,-1.2073,-1.2422,-1.221,-1.1501,-1.1501,-1.1585,-1.1765,-1.1526,-1.1526,-1.1724,-1.0833,-1.0371,-1.0113,-0.7891,-0.6721,-0.637,-0.6405,-0.6093,-0.5692,-0.6805,-0.671,-0.5975,0.0,0.0,0.0,0.0,0.0,0.0,0.0,0.0,0.0,0.0,0.0,-0.8478,-1.0068,-1.0755,-1.1403,-1.2168,-1.1903,-1.152,0.0,-0.9953,-0.9086,-0.8597,-0.8582,-0.9174,-1.0399,-1.3036,-1.5033,-1.6334,-1.6963,-1.7232,-1.7179,-1.7179,-1.6881,-1.6327,-1.5736,-1.4504,-1.2795,-1.2234,-1.1064,-0.9497,0.0,0.0,0.0,0.0,0.0,0.0,0.0,0.0,0.0,0.0,0.0,0.0,0.0,0.0,0.0,0.0,0.0,0.0,0.0,0.0,0.0,0.0,0.0,0.0,0.0,0.0,0.0,0.0,0.0,0.0,0.0,0.0,0.0,0.0,0.0,0.0,0.0,0.0,0.0,-1.1788,-1.0998,0.0,0.0,0.0,0.0,-1.0912,-1.1783,-1.2508,-1.2914,-1.2772,-1.2966,-1.3678,-1.372,-1.3851,-1.4163,-1.4179,-1.3719,-1.2785,-1.2785,-1.2792,-1.2774,-1.1833,-1.1935,-1.2774,-1.1765,-1.1314,-1.1171,-0.9282,-0.8236,-0.7891,-0.788,-0.7667,-0.7371,-0.7466,-0.746,-0.7386,0.0,0.0,0.0,0.0,0.0,-0.5614,-0.5952,-0.6112,-0.6455,-0.7162,-0.8305,-0.9506,-1.066,-1.2375,-1.3577,-1.3918,-1.3818,-1.3285,-1.2227,-1.0941,-1.022,-1.018,-1.0392,-1.1532,-1.377,-1.5506,-1.6742,-1.7523,-1.8408,-1.8677,-1.8341,-1.8341,-1.7867,-1.7013,-1.6778,-1.615,-1.5176,-1.3935,-1.2624,-1.1243,-1.0003,-0.8652,0.0,0.0,0.0,0.0,0.0,0.0,0.0,0.0,0.0,0.0,0.0,0.0,0.0,0.0,0.0,0.0,0.0,0.0,0.0,0.0,0.0,0.0,0.0,0.0,0.0,0.0,0.0,0.0,0.0,0.0,0.0,0.0,0.0,0.0,0.0,0.0,0.0,-1.345,-1.3107,0.0,-1.26,-1.3207,-1.3554,-1.3462,-1.4008,-1.4573,-1.5022,-1.4977,-1.5165,-1.5662,-1.5974,-1.5995,-1.5761,-1.6025,-1.5694,-1.4767,-1.4767,-1.4619,-1.4367,-1.4011,-1.4053,-1.4367,-1.4018,-1.3492,-1.282,-1.2163,-1.0871,-0.942,-0.9952,-0.9658,-0.9,-0.9746,-0.9897,-0.9709,0.0,0.0,0.0,0.0,-0.5253,-0.5492,-0.5847,-0.6007,-0.6508,-0.7658,-0.8888,-1.0313,-1.1997,-1.3818,-1.5037,-1.5349,-1.5211,-1.4631,-1.352,-1.2076,-1.133,-1.1469,-1.219,-1.375,-1.6248,-1.7271,-1.805,-1.8631,-1.9358,-1.9542,-1.9243,-1.9243,-1.8874,-1.8231,-1.7999,-1.77,-1.7275,-1.583,-1.4406,-1.3052,-1.2001,-1.0651,-0.9135,0.0,0.0,0.0,0.0,0.0,0.0,0.0,0.0,0.0,0.0,0.0,0.0,0.0,0.0,0.0,0.0,0.0,0.0,0.0,0.0,0.0,0.0,0.0,0.0,0.0,0.0,0.0,0.0,0.0,0.0,0.0,0.0,0.0,0.0,-1.358,-1.4392,-1.5524,-1.5505,-1.5428,-1.5428,-1.5815,-1.6073,-1.6073,-1.62,-1.6477,-1.6919,-1.6691,-1.6777,-1.7321,-1.7656,-1.7716,-1.7504,-1.7792,-1.7451,-1.6519,-1.6519,-1.6381,-1.6114,-1.578,-1.578,-1.6077,-1.5735,-1.5227,-1.4613,-1.4613,-1.3578,-1.198,-1.1672,-1.1047,-1.0377,-1.1111,-1.1303,-1.1069,0.0,0.0,0.0,-0.5098,-0.5098,-0.5281,-0.5817,-0.5913,-0.6793,-0.9247,-0.9614,-1.0891,-1.4139,-1.5004,-1.5665,-1.6472,-1.604,-1.5504,-1.4961,-1.3338,-1.2429,-1.247,-1.3968,-1.5716,-1.7694,-1.8386,-1.9061,-1.9738,-1.9738,-1.9808,-1.9955,-1.9955,-2.0028,-2.0108,-1.9409,-1.9118,-1.9024,-1.7897,-1.6519,-1.504,-1.4534,-1.3097,-1.1155,0.0,0.0,0.0,0.0,0.0,0.0,0.0,0.0,0.0,0.0,0.0,0.0,0.0,0.0,0.0,0.0,0.0,0.0,0.0,0.0,0.0,0.0,0.0,0.0,0.0,0.0,0.0,0.0,0.0,0.0,0.0,0.0,0.0,-1.5268,-1.5575,-1.639,-1.7958,-1.8084,-1.805,-1.805,-1.8412,-1.8652,-1.8663,-1.8306,-1.828,-1.8648,-1.7936,-1.7846,-1.8598,-1.8617,-1.8867,-1.9307,-1.9307,-1.8848,-1.7952,-1.7952,-1.7942,-1.7896,-1.6917,-1.7029,-1.7896,-1.6917,-1.6485,-1.6447,-1.6447,-1.6209,-1.5569,-1.3035,-1.1815,-1.1518,-1.1484,-1.145,-1.1415,0.0,0.0,-0.4873,-0.5069,-0.5098,-0.5281,-0.5817,-0.6234,-0.7058,-0.8672,-1.0063,-1.1791,-1.4094,-1.5693,-1.6884,-1.7591,-1.6812,-1.6046,-1.5522,-1.3548,-1.292,-1.4088,-1.6091,-1.7599,-1.8539,-1.9123,-1.975,-2.0438,-2.0438,-2.0691,-2.1213,-2.1213,-2.1026,-2.0641,-1.998,-1.9462,-1.9037,-1.8295,-1.772,-1.7171,-1.549,-1.4259,-1.3336,0.0,0.0,0.0,0.0,0.0,0.0,0.0,0.0,0.0,0.0,0.0,0.0,0.0,0.0,0.0,0.0,0.0,0.0,0.0,0.0,0.0,0.0,0.0,0.0,0.0,0.0,0.0,0.0,0.0,0.0,0.0,-1.5691,-1.6813,-1.6813,-1.7412,-1.8192,-1.9066,-1.9043,-1.8952,-1.8952,-1.9294,-1.9734,-2.018,-2.0349,-2.038,-2.0189,-1.999,-1.9626,-1.9138,-1.9111,-1.9316,-1.9736,-1.9746,-1.9624,-1.9353,-1.9353,-1.9199,-1.8912,-1.8636,-1.8636,-1.8912,-1.8636,-1.8101,-1.7496,-1.7496,-1.6977,-1.6142,-1.5137,-1.4502,-1.4061,-1.3334,-1.2627,-1.2058,0.0,-0.4517,-0.4794,-0.5049,-0.5098,-0.5243,-0.567,-0.6287,-0.7266,-0.8812,-1.0238,-1.1978,-1.4265,-1.5661,-1.661,-1.7055,-1.6693,-1.6009,-1.5089,-1.3833,-1.3834,-1.5435,-1.675,-1.7902,-1.8878,-1.9485,-2.0082,-2.0703,-2.0972,-2.1455,-2.2134,-2.2134,-2.209,-2.1984,-2.1354,-2.0728,-2.0146,-1.9308,-1.8794,-1.8418,-1.6919,-1.5876,-1.5082,-1.4084,-1.318,-1.234,-1.1752,-1.1069,-1.0343,-0.9676,0.0,0.0,0.0,0.0,0.0,0.0,0.0,0.0,0.0,0.0,0.0,0.0,0.0,0.0,0.0,0.0,0.0,0.0,0.0,0.0,0.0,0.0,0.0,0.0,-1.6954,-1.8228,-1.9008,-1.9548,-2.0092,-2.0669,-2.0828,-2.0985,-2.1253,-2.1476,-2.1867,-2.2443,-2.2348,-2.1992,-2.1355,-2.0991,-2.0421,-1.9578,-1.9551,-1.9756,-2.0185,-2.0185,-2.0185,-2.0185,-2.0185,-2.0059,-1.9862,-1.9862,-1.9862,-1.9862,-1.9862,-1.9552,-1.9052,-1.9052,-1.8581,-1.7759,0.0,0.0,0.0,0.0,-1.3455,-1.2378,0.0,-0.4486,-0.4745,-0.5049,-0.5098,-0.5195,-0.5464,-0.6233,-0.7448,-0.9261,-1.0258,-1.1778,-1.4344,-1.5087,-1.551,-1.5678,-1.6028,-1.5667,0.0,0.0,0.0,-1.6441,-1.6566,-1.731,-1.8884,-1.955,-2.025,-2.0932,-2.1515,-2.2164,-2.2808,-2.2808,-2.3092,-2.3573,-2.2965,-2.2369,-2.174,-2.0587,-1.9744,-1.9144,-1.8542,-1.7623,-1.65,-1.5676,-1.4993,-1.4391,-1.3922,-1.3236,-1.2469,-1.1809,0.0,0.0,0.0,0.0,0.0,0.0,0.0,0.0,0.0,0.0,0.0,0.0,0.0,0.0,0.0,0.0,0.0,0.0,0.0,0.0,0.0,0.0,0.0,0.0,-1.7993,-1.9628,-2.1422,-2.1732,-2.1958,-2.2447,-2.2907,-2.3434,-2.4042,-2.4092,-2.4318,-2.4838,-2.4074,-2.316,-2.2204,-2.1388,0.0,0.0,0.0,-2.0176,-2.0595,-2.0605,-2.0605,-2.0605,-2.0605,-2.0605,-2.0605,-2.0605,-2.0605,-2.0605,-2.0605,-2.0605,-2.0605,-2.0605,-2.0332,-1.9743,-1.7572,-1.6441,-1.5973,-1.5654,-1.4351,-1.2866,0.0,-0.4344,-0.4527,-0.502,-0.5098,-0.5195,-0.5464,-0.655,-0.7714,-0.873,-1.0357,-1.1958,-1.3365,-1.4362,-1.5145,-1.566,-1.5768,-1.5678,0.0,0.0,-1.5714,-1.648,-1.691,-1.7754,-1.9034,-1.9607,-2.0693,-2.2313,-2.2448,-2.2823,-2.343,-2.343,-2.349,-2.3573,-2.2965,-2.2626,-2.2415,-2.1175,-2.0563,-2.0351,-1.9268,-1.8458,-1.7839,-1.765,-1.7202,-1.661,-1.6019,-1.5418,-1.4776,-1.4215,-1.3409,-1.256,-1.2049,0.0,0.0,0.0,0.0,0.0,0.0,0.0,0.0,0.0,0.0,0.0,0.0,0.0,0.0,0.0,0.0,0.0,0.0,0.0,0.0,-1.7967,-1.9785,-2.1403,-2.2631,-2.3226,-2.3552,-2.3665,-2.3766,-2.4054,-2.4575,-2.4637,-2.4883,-2.541,-2.4599,-2.3828,-2.3248,-2.2284,-2.1377,-2.0468,-2.0478,-2.0517,-2.0605,-2.0605,-2.0605,-2.0605,-2.0605,0.0,-2.0605,-2.0605,-2.0605,-2.0605,-2.0605,-2.0605,-2.0605,-2.0605,-2.0556,-2.0361,-1.9199,-1.8212,-1.7464,-1.7421,-1.6627,-1.5525,-0.4048,-0.4211,-0.4426,-0.4834,-0.501,-0.5146,-0.5282,-0.6325,-0.745,-0.8429,-0.9833,-1.1173,-1.2291,-1.3068,-1.3535,-1.3626,-1.415,0.0,0.0,-1.5691,-1.5929,-1.6484,-1.705,-1.7756,-1.8619,-1.9809,-2.0848,-2.1758,-2.2676,-2.3146,-2.3143,-2.3465,-2.3595,-2.3595,-2.3275,-2.2965,-2.2649,-2.2011,-2.1369,-2.0758,-2.0136,-1.9544,-1.8945,-1.8405,-1.8025,-1.7664,-1.7089,-1.671,-1.6325,-1.5439,-1.485,-1.4386,-1.3666,-1.3148,-1.2518,0.0,0.0,0.0,0.0,0.0,0.0,0.0,0.0,0.0,0.0,0.0,0.0,0.0,0.0,-1.3273,-1.4693,0.0,-1.6983,-1.9349,-2.0541,-2.1807,-2.3692,-2.4199,-2.4406,-2.4406,-2.4406,-2.4619,-2.5159,-2.5209,-2.5435,-2.6021,-2.5617,-2.5046,-2.4289,-2.3294,-2.2301,-2.1336,-2.0828,-2.0605,-2.0605,-2.0605,-2.0605,-2.0605,-2.0605,-2.0605,-2.0605,-2.0605,-2.0605,-2.0605,-2.0605,-2.0605,-2.0605,-2.0605,-2.0605,-2.0566,-2.0136,-1.9212,-1.8235,-1.849,-1.7338,-1.5588,-0.3817,-0.4078,-0.4386,-0.4646,-0.4922,-0.5098,-0.5098,-0.5968,-0.6989,-0.7987,-0.9128,-1.0228,-1.1223,-1.1781,-1.204,0.0,0.0,0.0,0.0,-1.5855,-1.6086,-1.6633,-1.7141,-1.7705,-1.8346,-1.9908,-2.0864,-2.1157,-2.268,-2.3246,-2.2875,-2.3377,-2.3595,-2.3595,-2.3595,-2.3334,-2.2852,-2.2612,-2.1903,-2.0955,-2.0696,-2.0283,-1.9698,-1.8731,-1.8367,-1.8292,-1.7762,-1.7498,-1.722,-1.6146,-1.5764,-1.5638,-1.4821,-1.4563,-1.4298,-1.29,-1.2854,0.0,0.0,0.0,0.0,0.0,0.0,0.0,0.0,0.0,-1.3546,-1.4023,-1.444,-1.504,-1.6037,-1.6472,-1.7574,-2.0213,-2.0988,-2.2025,-2.4112,-2.473,-2.4833,-2.457,-2.4793,-2.5184,-2.5711,-2.5762,-2.5996,-2.6461,-2.6314,-2.5769,-2.4743,-2.3745,-2.2739,-2.1773,-2.1011,-2.0644,-2.0732,-2.0732,-2.0732,-2.0732,-2.0732,-2.0693,-2.0605,-2.0605,-2.0605,-2.0605,-2.0605,-2.0605,-2.0605,-2.0605,-2.0605,-2.0605,-2.0605,-1.9918,-1.8943,-1.9388,-1.7879,-1.5685,0.0,-0.3952,-0.4386,-0.4646,-0.4922,-0.5098,-0.5098,-0.5806,-0.6543,-0.7081,-0.8599,-0.9823,-1.0293,-1.1141,-1.2024,0.0,0.0,0.0,-1.6297,-1.6403,-1.6646,-1.7188,-1.7335,-1.7894,-1.898,-1.9734,-2.0885,-2.2503,-2.2711,-2.3031,-2.3508,-2.3573,-2.3595,-2.3595,-2.3595,-2.3551,-2.3421,-2.2294,-2.1734,-2.1496,-2.0383,-1.9875,-1.9736,-1.9133,-1.8907,-1.8845,-1.8304,-1.7802,-1.7287,-1.6623,-1.6402,-1.6389,-1.6262,-1.6228,-1.6028,-1.4964,0.0,-1.4443,-1.302,-1.2984,-1.359,-1.4595,-1.5131,-1.5735,0.0,0.0,-1.668,-1.6417,-1.6722,-1.6962,-1.6678,-1.7904,-1.918,-1.9881,-2.17,-2.2999,-2.2946,-2.442,-2.5056,-2.3807,-2.4743,-2.5737,-2.6336,-2.6399,-2.6424,-2.6487,-2.5664,-2.4743,-2.3708,-2.2702,-2.1745,-2.0789,-2.0634,-2.0752,-2.1112,-2.1122,-2.1122,-2.1122,-2.1122,-2.0947,-2.0605,-2.0605,-2.0605,-2.0605,-2.0605,-2.0605,-2.0605,-2.0605,-2.0605,-2.0605,-2.0605,-2.0489,-2.0362,-2.0439,-1.9625,-1.8378,0.0,-0.4037,-0.4386,-0.4646,-0.4922,-0.5098,-0.5098,-0.5521,-0.6012,-0.6532,-0.7361,-0.8204,-0.8946,-0.9797,-1.0858,-1.2146,0.0,0.0,-1.5466,-1.6144,-1.6595,-1.6816,-1.751,-1.8092,-1.8575,-1.9834,-2.0836,-2.1585,-2.195,-2.2262,-2.25,-2.2883,-2.3076,-2.3098,-2.3443,-2.3399,-2.3031,-2.2506,-2.1842,-2.1137,-2.0597,-1.9965,-1.9309,-1.9096,-1.8607,-1.8041,-1.7802,-1.7576,0.0,0.0,-1.65,-1.65,-1.65,-1.65,-1.6366,-1.5616,-1.5871,0.0,-1.6017,-1.6089,-1.6417,-1.721,-1.7736,-1.8174,-1.8499,-1.8594,-1.8417,-1.761,-1.7794,-1.804,-1.7839,-1.8388,-1.9296,-2.0557,-2.1566,-2.244,-2.3072,-2.3858,-2.4261,-2.3943,-2.4682,-2.5361,-2.5604,-2.6164,-2.6499,-2.6499,-2.6094,-2.5441,-2.4409,-2.3404,-2.2403,-2.1451,-2.1114,-2.1045,-2.119,-2.1484,-2.1611,-2.1611,-2.1611,-2.1387,-2.0967,-2.1221,-2.1378,-2.1349,-2.083,-2.0713,-2.0937,-2.0713,-2.0605,-2.0605,-2.0605,-2.0605,-2.0605,-2.0605,-1.952,-1.7948,0.0,-0.4119,-0.4386,-0.4646,-0.4922,-0.5098,-0.5098,-0.5262,-0.557,-0.6087,-0.6412,-0.7001,-0.8074,-0.8826,-0.9765,-1.1099,0.0,0.0,0.0,-1.568,-1.6337,-1.6488,-1.7451,-1.7978,-1.7978,-1.9523,-2.0399,-2.0582,-2.1178,-2.1544,-2.1697,-2.2193,-2.2429,-2.2452,-2.2868,-2.2823,-2.2406,-2.2244,-2.1633,-2.0771,-2.0597,-1.9912,-1.8983,-1.8832,-1.8216,-1.741,-1.741,-1.7297,0.0,0.0,-1.6375,-1.6475,-1.6333,-1.6375,-1.645,-1.6233,-1.6735,-1.7524,-1.8053,-1.8204,-1.8405,-1.9271,-1.9761,-2.0007,-1.9878,-2.0107,-2.0106,-1.9243,-1.9321,-1.948,-1.9332,-1.9239,-1.9641,-2.112,-2.1717,-2.2239,-2.2981,-2.3646,-2.4013,-2.3805,-2.4468,-2.4892,-2.4778,-2.5822,-2.6499,-2.6499,-2.6348,-2.5836,-2.481,-2.3838,-2.2886,-2.2002,-2.1471,-2.1307,-2.1541,-2.1904,-2.206,-2.206,-2.206,-2.1836,-2.1385,-2.1748,-2.1885,-2.1846,-2.1124,-2.0937,-2.1161,-2.0752,-2.0605,-2.0605,-2.0605,-2.0605,-2.0605,-2.0605,-1.9392,-1.7698,0.0,0.0,-0.4386,-0.4646,-0.4922,-0.5098,-0.5098,-0.5108,-0.5283,-0.5755,-0.6107,-0.6793,-0.8062,-0.8565,-0.9211,0.0,0.0,0.0,-1.4016,-1.5135,-1.5957,-1.6475,-1.7087,-1.7423,-1.7423,-1.8517,-1.9364,-2.0012,-2.0567,-2.1113,-2.1697,-2.172,-2.172,-2.172,-2.1744,-2.1744,-2.1687,-2.1102,-2.0845,-2.0746,-2.0105,-1.9484,-1.8945,-1.8406,-1.7877,-1.741,-1.741,0.0,0.0,0.0,-1.607,-1.64,-1.5894,-1.6082,0.0,-1.7184,-1.7373,-1.7524,-1.8053,-1.8204,-1.8593,-2.0239,-2.0654,-2.0943,-2.1954,-2.2217,-2.2146,-2.1846,-2.1779,-2.1662,-2.1207,-2.0788,-2.0703,-2.1126,-2.2451,-2.3125,-2.2178,-2.405,-2.4835,-2.2963,-2.396,-2.4666,-2.4276,-2.5601,-2.6499,-2.6499,-2.5948,-2.5226,-2.428,-2.3279,-2.2467,-2.1909,-2.1445,-2.16,-2.2461,-2.249,-2.249,-2.249,-2.249,-2.2275,-2.1865,-2.1875,-2.1885,-2.1865,-2.1406,-2.1181,-2.1161,-2.0752,-2.0605,-2.0605,-2.0605,-2.0605,-2.0605,-2.0605,-1.9883,-1.8798,0.0,0.0,0.0,-0.4922,-0.504,-0.5098,-0.5098,-0.5098,-0.5263,-0.5733,-0.6398,0.0,0.0,0.0,0.0,0.0,0.0,0.0,-1.308,-1.4431,-1.5412,-1.5957,-1.6895,-1.741,-1.741,-1.8103,-1.8789,-1.94,-1.9169,-1.9365,-1.9978,-2.0382,-2.056,-2.0597,-2.1366,-2.1472,-2.1075,-2.0507,-2.0232,-2.0067,-1.9131,-1.8643,-1.8417,-1.7865,-1.7096,-1.63,0.0,0.0,0.0,0.0,-1.5819,-1.6007,-1.6183,0.0,0.0,-1.7212,-1.7639,-1.8129,-1.902,-1.9547,-2.0176,-2.143,-2.1757,-2.1945,-2.2656,-2.2832,-2.266,-2.2027,-2.1592,-2.1284,-2.1216,-2.082,-2.0836,-2.1993,-2.2634,-2.2964,-2.2992,-2.3695,-2.4084,-2.3735,-2.4443,-2.4973,-2.5108,-2.5606,-2.6084,-2.6461,-2.5924,-2.5201,-2.4265,-2.3524,-2.2715,-2.1926,-2.2012,-2.2217,-2.251,-2.275,-2.2886,-2.2877,-2.2646,-2.2588,-2.2705,-2.2139,-2.2187,-2.2676,-2.1973,-2.1826,-2.2021,-2.1309,-2.1016,-2.0977,-2.0684,-2.0605,-2.0605,-2.0605,-2.0362,-1.9883,0.0,0.0,0.0,0.0,0.0,0.0,0.0,0.0,0.0,0.0,0.0,0.0,0.0,0.0,0.0,0.0,0.0,0.0,0.0,0.0,-1.4418,-1.5097,-1.6015,-1.6505,-1.6505,-1.7024,-1.7578,-1.8156,-1.7997,-1.8211,-1.8793,-1.9183,-1.9365,-1.9402,-2.0109,-2.0234,-1.9861,-1.9497,-1.9309,-1.9171,-1.848,-1.7965,-1.7541,-1.7212,-1.6405,0.0,0.0,0.0,0.0,-1.5286,-1.5493,-1.5718,-1.5881,-1.6471,-1.7165,-1.7564,-1.8191,-1.9007,-2.0112,-2.0704,-2.1257,-2.2334,-2.2581,-2.2669,-2.302,-2.3108,-2.2895,-2.2201,-2.1722,-2.1434,-2.1327,-2.0917,-2.1037,-2.2423,-2.2788,-2.3176,-2.3944,-2.3887,-2.3978,-2.4611,-2.4523,-2.4731,-2.5511,-2.5598,-2.5837,-2.6449,-2.5756,-2.5055,-2.4446,-2.3532,-2.2784,-2.2324,-2.2451,-2.2588,-2.2691,-2.2955,-2.3091,-2.3091,-2.2818,-2.2838,-2.3081,-2.2578,-2.2627,-2.3052,-2.2412,-2.2266,-2.2461,-2.1758,-2.1337,-2.1161,-2.0918,-2.0742,-2.0605,-2.0605,-2.0605,-2.045,0.0,0.0,0.0,0.0,0.0,0.0,0.0,0.0,0.0,0.0,0.0,0.0,0.0,0.0,0.0,0.0,0.0,0.0,0.0,0.0,0.0,-1.3935,-1.4563,-1.4865,-1.4865,-1.5367,-1.5906,-1.6412,-1.6986,-1.7513,-1.8041,-1.8066,-1.8078,-1.8078,-1.8141,-1.8166,-1.8166,-1.8166,-1.8166,-1.8154,-1.8103,-1.7426,-1.645,-1.6425,0.0,0.0,0.0,0.0,0.0,0.0,0.0,0.0,0.0,0.0,-1.8242,-1.8242,-1.9032,-2.0125,-2.123,-2.1568,-2.187,-2.2882,-2.3145,-2.3145,-2.3108,-2.3083,-2.2907,-2.2355,-2.2221,-2.202,0.0,0.0,-2.1263,-2.236,-2.2989,-2.3758,-2.4932,-2.4647,-2.4693,0.0,0.0,0.0,0.0,-2.5724,-2.595,-2.6537,-2.5522,-2.4876,-2.482,-2.3423,-2.2767,-2.3081,-2.2711,-2.2691,-2.3091,-2.3091,-2.3091,-2.3091,-2.3091,-2.3091,-2.3091,-2.3091,-2.3091,-2.3071,-2.2715,-2.2549,-2.251,-2.209,-2.167,-2.1259,-2.1239,-2.0996,-2.0635,-2.0635,-2.0625,-2.044,0.0,0.0,0.0,0.0,0.0,0.0,0.0,0.0,0.0,0.0,0.0,0.0,0.0,0.0,0.0,0.0,0.0,0.0,0.0,0.0,0.0,0.0,0.0,0.0,-1.4286,-1.484,0.0,0.0,0.0,-1.56,-1.5751,-1.6145,-1.6333,-1.6371,-1.7234,-1.7612,-1.7612,-1.7612,-1.7612,-1.7513,0.0,-1.6158,-1.5856,0.0,0.0,0.0,0.0,0.0,0.0,0.0,0.0,0.0,0.0,-1.7702,-1.8795,-1.8795,-1.9874,-2.1204,-2.192,-2.2711,-2.3427,-2.3703,-2.3778,-2.3665,-2.3195,-2.2782,-2.2359,-2.1807,-2.1029,-2.0401,-2.0263,-2.0528,-2.1218,-2.2713,-2.3763,0.0,-2.5946,-2.6317,0.0,-2.6854,0.0,-2.7044,-2.7421,-2.7469,-2.7532,-2.767,-2.6681,-2.5873,-2.5429,-2.4648,-2.3851,-2.3135,-2.2994,-2.2984,-2.3091,-2.3091,-2.3091,-2.3091,-2.3091,-2.3091,-2.3091,-2.3091,-2.3091,-2.3091,-2.2984,-2.2935,-2.2906,-2.2519,-2.2285,-2.2158,-2.1846,-2.1455,-2.1064,-2.1064,-2.085,-2.0566,0.0,0.0,0.0,0.0,0.0,0.0,0.0,0.0,0.0,0.0,0.0,0.0,0.0,0.0,0.0,0.0,0.0,0.0,0.0,0.0,0.0,0.0,0.0,0.0,-1.2518,-1.3198,0.0,0.0,0.0,0.0,0.0,-1.4492,-1.4841,-1.5048,-1.5899,-1.6304,-1.6304,0.0,0.0,0.0,0.0,0.0,0.0,0.0,0.0,0.0,0.0,0.0,0.0,0.0,0.0,-1.7486,-1.7953,-1.8857,-1.9798,-2.0037,0.0,-2.2334,-2.2899,-2.369,-2.4305,-2.4054,-2.4004,-2.3715,-2.2648,-2.2171,-2.1656,-2.0627,-1.9899,-1.9397,-1.9145,-1.9748,-2.0752,-2.2184,0.0,0.0,-2.6311,-2.6588,-2.6902,0.0,-2.7519,0.0,-2.8073,-2.8109,-2.8014,-2.7778,-2.7212,-2.6461,-2.5659,-2.5068,-2.4296,-2.3135,-2.3091,-2.3091,-2.3091,-2.3091,-2.3091,-2.3091,-2.3091,-2.3091,-2.3091,-2.3091,-2.3091,-2.3091,-2.3091,-2.3091,-2.3081,-2.2838,-2.2676,-2.249,-2.2246,-2.1894,-2.1494,-2.1268,-2.1074,-2.083,0.0,0.0,0.0,0.0,0.0,0.0,0.0,0.0,0.0,0.0,0.0,0.0,0.0,0.0,0.0,0.0,0.0,0.0,0.0,0.0,0.0,0.0,0.0,0.0,0.0,0.0,0.0,0.0,0.0,0.0,0.0,0.0,0.0,0.0,0.0,0.0,0.0,0.0,0.0,0.0,0.0,0.0,0.0,0.0,0.0,0.0,0.0,0.0,0.0,0.0,-1.7124,-1.7777,-1.8782,-1.9936,-2.1006,-2.1455,-2.2385,-2.3346,-2.3954,-2.4506,-2.4795,-2.4243,-2.4054,-2.3552,-2.187,-2.1368,-2.0815,-1.9221,-1.8845,-1.8619,-1.8055,-1.8857,-2.0012,-2.128,0.0,-2.4481,-2.6248,-2.6271,-2.6591,-2.7925,-2.747,-2.7369,-2.8249,-2.82,-2.7927,-2.7421,-2.725,-2.67,-2.5569,-2.5069,-2.4296,-2.3135,-2.3091,-2.3091,-2.3091,-2.3091,-2.3091,-2.3091,-2.3091,-2.3091,-2.3091,-2.3091,-2.3091,-2.3091,-2.3091,-2.3091,-2.3091,-2.3091,-2.2877,-2.2598,-2.2598,-2.2344,-2.1924,-2.1502,-2.1298,-2.1142,0.0,0.0,0.0,0.0,0.0,0.0,0.0,0.0,0.0,0.0,-0.6421,-0.6367,0.0,0.0,0.0,0.0,0.0,0.0,0.0,0.0,0.0,0.0,0.0,0.0,0.0,0.0,0.0,0.0,0.0,0.0,0.0,0.0,0.0,0.0,0.0,0.0,0.0,0.0,0.0,0.0,0.0,0.0,0.0,0.0,0.0,0.0,0.0,0.0,0.0,0.0,-1.8255,-1.882,-1.9472,-2.0752,-2.2046,-2.2133,-2.2975,-2.3966,-2.4519,-2.5059,-2.5335,-2.4808,-2.4343,-2.3552,-2.187,-2.0765,0.0,0.0,-1.799,-1.7488,-1.6889,-1.7727,-1.9145,-2.1154,-2.2498,-2.4029,-2.6197,-2.7199,-2.7801,0.0,-2.8762,-2.9324,-2.9503,-2.8655,-2.8056,-2.7993,-2.7152,-2.6132,-2.4998,-2.4872,-2.4296,-2.3135,-2.3091,-2.3091,-2.3091,-2.3091,-2.3091,-2.3091,-2.3091,-2.3091,-2.3091,-2.3091,-2.3091,-2.3091,-2.3091,-2.3091,-2.3091,-2.3091,-2.3052,-2.2984,-2.2984,-2.273,-2.2393,-2.2324,-2.1804,-2.1181,0.0,0.0,0.0,0.0,0.0,0.0,0.0,-0.7221,-0.7775,-0.7787,-0.7446,-0.7181,-0.7108,-0.6926,-0.6969,0.0,0.0,0.0,0.0,0.0,0.0,0.0,0.0,0.0,0.0,0.0,0.0,0.0,0.0,0.0,0.0,0.0,0.0,0.0,0.0,0.0,0.0,0.0,0.0,0.0,0.0,0.0,0.0,0.0,0.0,0.0,0.0,0.0,0.0,0.0,-1.7652,-1.877,-1.9899,-2.1192,-2.2309,-2.2309,-2.3283,-2.4481,-2.4713,-2.5423,-2.585,-2.4988,-2.4406,-2.3401,-2.1129,0.0,0.0,0.0,-1.7112,-1.6848,-1.655,-1.7415,0.0,-1.9987,-2.1129,-2.2736,-2.5247,-2.6302,-2.7231,-2.8398,-2.9277,-2.9792,-2.9792,-2.8767,-2.7884,-2.7319,-2.6254,-2.5378,-2.483,-2.4253,-2.3671,-2.3135,-2.3091,-2.3091,-2.3091,-2.3091,-2.3091,-2.3091,-2.3091,-2.3091,-2.3091,-2.3091,-2.3091,-2.3091,-2.3091,-2.3091,-2.3091,-2.3091,-2.3091,-2.3091,-2.3091,-2.2974,-2.2769,-2.2598,-2.2256,-2.1795,0.0,0.0,0.0,0.0,0.0,0.0,0.0,-0.7847,-0.8458,-0.8631,-0.8578,-0.8205,-0.734,-0.7158,-0.7103,0.0,0.0,0.0,0.0,0.0,0.0,0.0,0.0,0.0,0.0,0.0,0.0,0.0,0.0,0.0,0.0,0.0,0.0,0.0,0.0,0.0,0.0,0.0,0.0,0.0,0.0,0.0,0.0,0.0,0.0,0.0,0.0,0.0,0.0,0.0,-1.6585,-1.7953,-1.9648,-2.0978,-2.1983,-2.2096,-2.3208,-2.4449,-2.4575,-2.5448,-2.6047,-2.4921,-2.4091,-2.2889,-2.0215,-1.9095,0.0,-1.6625,-1.6402,-1.65,-1.65,-1.7215,-1.808,0.0,-1.9849,-2.1455,-2.4255,-2.5297,-2.6515,0.0,-2.9161,0.0,-2.9456,-2.8187,-2.7023,-2.6182,-2.5083,-2.4414,-2.4414,-2.3594,-2.3091,-2.3091,-2.3091,-2.3091,-2.3091,-2.3091,-2.3091,-2.3091,-2.3091,-2.3091,-2.3091,-2.3091,-2.3091,-2.3091,-2.3091,-2.3091,-2.3091,-2.3091,-2.3091,-2.3091,-2.3091,-2.3091,-2.3052,-2.2773,-2.2588,-2.2402,0.0,0.0,0.0,0.0,0.0,0.0,0.0,-0.7847,-0.8662,-0.9391,-0.9168,-0.8643,-0.7834,-0.7349,-0.7105,0.0,0.0,0.0,0.0,0.0,0.0,0.0,0.0,0.0,0.0,0.0,0.0,0.0,0.0,0.0,0.0,0.0,0.0,0.0,0.0,0.0,0.0,0.0,0.0,0.0,0.0,0.0,0.0,0.0,0.0,0.0,0.0,0.0,0.0,0.0,0.0,-1.622,-1.7903,-1.9547,-2.0943,-2.1446,0.0,0.0,-2.3929,-2.4858,-2.5423,-2.4343,-2.312,-2.162,-1.9483,0.0,-1.6967,-1.5903,-1.6117,-1.65,-1.65,-1.6588,-1.7165,-1.8744,0.0,-2.0865,-2.3678,-2.5443,-2.6864,-2.8034,0.0,0.0,-2.8255,-2.6356,-2.5073,-2.4957,-2.3887,-2.3266,-2.3266,-2.3178,-2.3091,-2.3091,-2.3091,-2.3091,-2.3091,-2.3091,-2.3091,-2.3091,-2.3091,-2.3091,-2.3091,-2.3091,-2.3091,-2.3091,-2.3091,-2.3091,-2.3091,-2.3091,-2.3091,-2.3091,-2.3091,-2.3091,-2.3091,-2.3052,-2.2799,-2.2441,0.0,0.0,0.0,0.0,0.0,0.0,-0.7031,-0.7847,-0.8698,-0.9485,-0.9464,-0.9144,-0.8576,-0.8131,-0.7579,-0.6803,0.0,0.0,0.0,0.0,0.0,0.0,0.0,0.0,0.0,0.0,0.0,0.0,0.0,0.0,0.0,0.0,0.0,0.0,0.0,0.0,0.0,0.0,0.0,0.0,0.0,0.0,0.0,0.0,0.0,0.0,0.0,0.0,0.0,0.0,0.0,0.0,-1.6003,-1.7099,0.0,0.0,-2.1493,-2.2732,-2.3296,-2.4261,-2.4946,-2.4192,-2.2739,-2.1045,-1.9306,-1.7969,-1.6812,-1.5802,-1.6073,-1.65,-1.65,-1.65,-1.6848,-1.7877,-1.7915,-1.8807,-2.1634,-2.2879,-2.4412,-2.6864,-2.7125,-2.7379,-2.8036,-2.6108,-2.45,-2.3844,-2.3343,-2.3091,-2.3091,-2.3091,-2.3091,-2.3091,-2.3091,-2.3091,-2.3091,-2.3091,-2.3091,-2.3091,-2.3091,-2.3091,-2.3091,-2.3091,-2.3091,-2.3091,-2.3091,-2.3091,-2.3091,-2.3091,-2.3091,-2.3091,-2.3091,-2.3091,-2.3091,-2.3091,-2.2984,-2.2789,0.0,0.0,0.0,0.0,0.0,-0.6562,-0.7031,-0.7847,-0.8649,-0.9338,-0.9425,-0.9264,-0.8876,-0.8579,-0.7983,-0.6944,-0.7001,0.0,0.0,0.0,0.0,0.0,0.0,0.0,0.0,0.0,0.0,0.0,0.0,0.0,0.0,0.0,0.0,0.0,0.0,0.0,0.0,0.0,0.0,0.0,0.0,0.0,0.0,0.0,0.0,0.0,0.0,0.0,0.0,0.0,0.0,0.0,0.0,0.0,0.0,0.0,-2.0401,-2.1732,-2.2418,-2.3434,-2.4161,-2.364,-2.2212,-2.0497,-1.8777,-1.7453,-1.6336,-1.5496,-1.5798,-1.6281,-1.6466,-1.65,-1.6647,0.0,-1.7061,-1.7877,-2.0352,-2.1418,-2.3025,-2.5896,-2.6081,-2.6276,-2.7053,-2.5415,-2.3963,-2.3178,-2.3091,-2.3091,-2.3091,-2.3091,-2.3091,-2.3091,-2.3091,-2.3091,-2.3091,-2.3091,-2.3091,-2.3091,-2.3091,-2.3091,-2.3091,-2.3091,-2.3091,-2.3091,-2.3091,-2.3091,-2.3091,-2.3091,-2.3091,-2.3091,-2.3091,-2.3091,-2.3091,-2.3091,-2.3091,-2.3013,0.0,0.0,0.0,0.0,0.0,0.0,-0.7031,-0.7847,-0.8551,-0.8955,-0.9014,-0.885,-0.8445,-0.8403,-0.8211,-0.7734,-0.7323,0.0,0.0,0.0,0.0,0.0,0.0,0.0,0.0,0.0,0.0,-0.8809,0.0,0.0,0.0,0.0,0.0,0.0,0.0,0.0,0.0,0.0,0.0,0.0,0.0,0.0,0.0,0.0,0.0,0.0,0.0,0.0,0.0,0.0,0.0,0.0,0.0,0.0,0.0,0.0,-1.8982,-2.0075,-2.1204,-2.2309,-2.2995,-2.2443,-2.1366,-1.9847,-1.7721,-1.6232,-1.5185,-1.4776,-1.5186,-1.5798,-1.6402,-1.65,-1.65,-1.65,-1.744,-1.8769,-2.0453,-2.2083,-2.371,0.0,-2.5137,-2.4815,-2.4826,-2.3772,-2.3091,-2.3091,-2.3091,-2.3091,-2.3091,-2.3091,-2.3091,-2.3091,-2.3091,-2.3091,-2.3091,-2.3091,-2.3091,-2.3091,-2.3091,-2.3091,-2.3091,-2.3091,-2.3091,-2.3091,-2.3091,-2.3091,-2.3091,-2.3091,-2.3091,-2.3091,-2.3091,-2.3091,-2.3091,-2.3091,-2.3091,-2.2974,0.0,0.0,0.0,0.0,0.0,0.0,0.0,-0.7359,-0.8086,-0.8532,-0.859,-0.8649,-0.8795,-0.8558,-0.8226,-0.7801,-0.7611,0.0,0.0,0.0,0.0,0.0,0.0,0.0,0.0,0.0,0.0,-1.0239,-1.0564,-1.0859,0.0,0.0,0.0,0.0,0.0,0.0,0.0,0.0,0.0,0.0,0.0,0.0,0.0,0.0,0.0,0.0,0.0,0.0,0.0,0.0,0.0,0.0,0.0,0.0,0.0,0.0,0.0,0.0,-1.9584,-2.0326,-2.0788,-2.0639,-1.9621,-1.8333,-1.6962,-1.5946,-1.5065,-1.424,-1.4892,-1.5654,-1.5842,-1.6216,-1.6751,-1.7551,-1.7965,0.0,-2.0465,-2.1769,0.0,-2.5347,-2.6445,-2.6475,-2.4936,-2.445,-2.392,-2.3178,-2.3091,-2.3091,-2.3091,-2.3091,-2.3091,-2.3091,-2.3091,-2.3091,-2.3091,-2.3091,-2.3091,-2.3091,-2.3091,-2.3091,-2.3091,-2.3091,-2.3091,-2.3091,-2.3091,-2.3091,-2.3091,-2.3091,-2.3091,-2.3091,-2.3091,-2.3091,-2.3091,-2.3091,-2.3091,-2.3013,0.0,0.0,0.0,0.0,0.0,0.0,0.0,-0.6924,-0.7574,-0.7876,-0.8052,-0.8301,-0.8721,-0.8258,-0.7879,-0.7808,-0.7458,0.0,0.0,0.0,0.0,0.0,0.0,0.0,0.0,-0.8532,-0.9374,-1.0296,-1.0692,-1.1133,-1.1596,-1.1301,-1.1064,0.0,0.0,0.0,0.0,0.0,0.0,0.0,0.0,0.0,0.0,0.0,0.0,0.0,0.0,0.0,0.0,0.0,0.0,0.0,0.0,0.0,0.0,0.0,-1.599,-1.72,0.0,-1.9083,-1.951,-1.951,-1.8758,-1.7675,-1.6367,-1.554,-1.4821,-1.3973,-1.4572,-1.5253,-1.5253,-1.5942,-1.666,-1.7129,-1.7775,-1.8706,-2.0163,-2.1656,-2.3439,-2.5661,-2.6858,-2.6792,-2.4964,-2.4787,-2.4339,-2.3178,-2.3091,-2.3091,-2.3091,-2.3091,-2.3091,-2.3091,-2.3091,-2.3091,-2.3091,-2.3091,-2.3091,-2.3091,-2.3091,-2.3091,-2.3091,-2.3091,-2.3091,-2.3091,-2.3091,-2.3091,0.0,-2.3091,-2.3091,-2.3091,-2.3091,-2.3091,-2.3091,-2.3091,-2.3091,-2.3033,0.0,0.0,0.0,0.0,0.0,0.0,0.0,-0.6504,-0.7047,-0.7063,-0.7413,-0.7837,-0.8297,-0.7638,-0.7296,-0.768,0.0,0.0,0.0,0.0,0.0,0.0,0.0,0.0,0.0,-0.7572,-0.8417,-0.946,-1.0459,-1.1191,-1.1694,-1.1665,-1.1398,-1.0957,0.0,0.0,0.0,0.0,0.0,0.0,0.0,0.0,0.0,0.0,0.0,0.0,0.0,0.0,0.0,0.0,0.0,0.0,0.0,0.0,0.0,0.0,0.0,0.0,0.0,-1.8405,-1.877,-1.8807,-1.8444,-1.7623,-1.5853,-1.5104,0.0,-1.3933,-1.4306,-1.4778,-1.4811,-1.5746,-1.6352,-1.5898,-1.7231,-1.8694,-1.9773,-2.1892,-2.418,-2.6411,-2.6712,-2.625,-2.5055,-2.4934,-2.4414,-2.3178,-2.3091,-2.3091,-2.3091,-2.3091,-2.3091,-2.3091,-2.3091,-2.3091,-2.3091,-2.3091,-2.3091,-2.3091,-2.3091,-2.3091,-2.3091,-2.3091,-2.3091,-2.3091,-2.3091,-2.3091,-2.3091,-2.3091,-2.3091,-2.3091,-2.3091,-2.3091,-2.3091,-2.3091,-2.3091,-2.3033,0.0,0.0,0.0,0.0,0.0,0.0,0.0,0.0,0.0,0.0,-0.7059,-0.7398,-0.7817,-0.768,-0.7361,0.0,0.0,0.0,0.0,0.0,0.0,0.0,0.0,0.0,0.0,-0.8574,-0.9733,-1.105,-1.131,-1.1829,-1.2592,-1.2227,-1.1836,-1.1418,-1.1055,0.0,0.0,0.0,0.0,0.0,0.0,0.0,0.0,0.0,0.0,0.0,-1.2156,-1.2419,0.0,0.0,0.0,0.0,0.0,0.0,0.0,0.0,-1.4191,-1.4576,-1.5919,0.0,-1.6572,-1.6989,-1.6989,-1.6552,0.0,-1.5142,-1.5096,-1.4027,-1.4664,-1.5505,-1.5927,-1.6266,-1.687,-1.8026,-1.8883,-1.9823,-2.0928,-2.3771,-2.6339,-2.8134,-2.8724,-2.8258,-2.6287,-2.6091,-2.5263,-2.3266,-2.3091,-2.3091,-2.3091,-2.3091,-2.3091,-2.3091,-2.3091,-2.3091,-2.3091,-2.3091,-2.3091,-2.3091,-2.3091,-2.3091,-2.3091,-2.3091,-2.3091,-2.3091,-2.3091,-2.3091,-2.3091,-2.3091,-2.3091,-2.3091,-2.3091,-2.3091,-2.3091,-2.3091,-2.3091,-2.3033,0.0,0.0,0.0,0.0,0.0,0.0,0.0,0.0,0.0,0.0,0.0,0.0,0.0,0.0,0.0,0.0,0.0,0.0,0.0,0.0,0.0,0.0,0.0,0.0,0.0,-0.8724,-0.9908,-1.1236,-1.1487,-1.2057,-1.2895,-1.2637,-1.2178,-1.1577,-1.0929,0.0,0.0,0.0,0.0,0.0,0.0,0.0,0.0,0.0,0.0,0.0,-1.2579,-1.2685,0.0,-1.402,-1.4462,-1.4462,0.0,0.0,0.0,0.0,-1.369,-1.3928,-1.5035,-1.5505,-1.5831,-1.6384,-1.65,-1.6272,-1.5332,0.0,0.0,0.0,0.0,0.0,-1.5614,-1.632,-1.7197,-1.8068,-1.9108,-2.0639,-2.3037,-2.5405,-2.7492,-2.9126,-2.9141,-2.8569,-2.7371,-2.6337,-2.5221,-2.3963,-2.3387,-2.3091,-2.3091,-2.3091,-2.3091,-2.3091,-2.3091,-2.3091,-2.3091,-2.3091,-2.3091,-2.3091,-2.3091,-2.3091,-2.3091,-2.3091,-2.3091,-2.3091,-2.3091,-2.3091,-2.3091,-2.3091,-2.3091,-2.3091,-2.3091,-2.3091,-2.3091,-2.3091,-2.3091,-2.3062,0.0,0.0,0.0,0.0,0.0,0.0,0.0,0.0,0.0,0.0,0.0,0.0,0.0,0.0,0.0,0.0,0.0,0.0,0.0,0.0,0.0,0.0,0.0,-0.7107,-0.8031,-0.8728,-0.975,-1.1144,-1.145,-1.2057,-1.2905,-1.2905,-1.2436,-1.1567,-1.0753,0.0,0.0,0.0,0.0,0.0,0.0,0.0,0.0,0.0,0.0,0.0,0.0,0.0,0.0,-1.4188,-1.4758,-1.4859,-1.4695,0.0,0.0,0.0,0.0,0.0,-1.4695,-1.5361,-1.5831,-1.6384,-1.65,-1.6337,-1.5754,0.0,0.0,0.0,0.0,0.0,0.0,-1.6494,-1.7588,-1.7788,-1.9113,-2.1396,-2.5112,-2.6457,-2.7702,-2.9334,-2.8688,-2.7964,-2.7631,-2.59,-2.4745,-2.4542,-2.3627,-2.3091,-2.3091,-2.3091,-2.3091,-2.3091,-2.3091,-2.3091,-2.3091,-2.3091,-2.3091,-2.3091,-2.3091,-2.3091,-2.3091,-2.3091,-2.3091,-2.3091,-2.3091,-2.3091,-2.3091,-2.3091,-2.3091,-2.3091,-2.3091,-2.3091,-2.3091,-2.3091,-2.3091,-2.3081,0.0,0.0,0.0,0.0,0.0,0.0,0.0,0.0,0.0,0.0,0.0,0.0,0.0,0.0,0.0,0.0,0.0,0.0,0.0,0.0,0.0,0.0,-0.7671,-0.828,-1.0095,-0.9674,-1.0515,-1.2738,-1.1993,-1.2057,-1.2905,-1.2905,-1.2436,-1.1577,-1.1035,-1.0655,0.0,0.0,0.0,0.0,0.0,0.0,0.0,0.0,0.0,0.0,0.0,0.0,0.0,-1.3368,-1.4099,-1.4733,-1.3767,0.0,0.0,0.0,0.0,0.0,-1.5141,-1.563,-1.5831,-1.6384,-1.65,-1.6337,-1.5754,0.0,0.0,0.0,0.0,0.0,0.0,-1.7898,-1.8544,-1.9959,-2.0876,-2.2436,-2.5373,-2.5901,-2.6597,-2.8194,-2.8215,-2.7348,-2.5493,-2.4999,-2.4414,-2.342,-2.3222,-2.3091,-2.3091,-2.3091,-2.3091,-2.3091,-2.3091,-2.3091,-2.3091,-2.3091,-2.3091,-2.3091,-2.3091,-2.3091,-2.3091,-2.3091,-2.3091,-2.3091,-2.3091,-2.3091,-2.3091,-2.3091,-2.3091,-2.3091,-2.3091,-2.3091,-2.3091,-2.3091,-2.3091,-2.2994,0.0,0.0,0.0,0.0,0.0,0.0,0.0,0.0,0.0,0.0,0.0,0.0,0.0,0.0,0.0,0.0,0.0,0.0,0.0,0.0,0.0,0.0,-0.9057,-0.9648,-1.0904,-1.1095,-1.1809,-1.3098,-1.2655,-1.2571,-1.2895,-1.2637,-1.2187,-1.1587,-1.1103,-1.0674,-1.0322,0.0,0.0,0.0,0.0,0.0,0.0,0.0,0.0,0.0,0.0,0.0,0.0,0.0,-1.423,-1.4765,-1.3941,0.0,0.0,0.0,0.0,0.0,-1.4877,-1.5273,-1.555,-1.6697,-1.72,-1.7357,-1.7059,-1.7231,0.0,0.0,0.0,0.0,0.0,-1.8932,-2.0302,-2.2548,-2.3684,-2.4946,-2.6772,-2.6793,-2.6993,-2.7965,-2.7052,-2.6149,-2.5755,-2.4585,-2.392,-2.4006,-2.3464,-2.3091,-2.3091,-2.3091,-2.3091,-2.3091,-2.3091,-2.3091,-2.3091,-2.3091,-2.3091,-2.3091,-2.3091,-2.3091,-2.3091,-2.3091,-2.3091,-2.3091,-2.3091,-2.3091,-2.3091,-2.3091,-2.3091,-2.3091,-2.3091,-2.3091,-2.3091,-2.3091,-2.3091,-2.3013,0.0,0.0,0.0,0.0,0.0,0.0,0.0,0.0,0.0,0.0,0.0,0.0,0.0,0.0,0.0,0.0,0.0,0.0,0.0,0.0,-0.8438,-0.9417,-1.0202,-1.103,-1.1854,-1.2351,-1.2946,-1.3695,-1.3464,-1.3259,-1.3094,-1.2502,-1.1992,-1.1587,-1.1103,-1.0674,-1.0303,0.0,0.0,0.0,0.0,0.0,0.0,0.0,0.0,0.0,0.0,0.0,0.0,0.0,0.0,0.0,0.0,0.0,0.0,-1.3842,-1.3504,-1.3679,-1.4947,-1.5185,-1.5487,-1.7172,0.0,-1.7856,-1.8029,-1.7993,0.0,0.0,0.0,0.0,0.0,-2.0264,-2.2077,-2.3969,-2.5208,-2.6248,-2.7086,-2.683,-2.6781,-2.729,-2.5817,-2.5041,-2.5641,-2.4102,-2.3464,-2.4339,-2.3594,-2.3091,-2.3091,-2.3091,-2.3091,-2.3091,-2.3091,-2.3091,-2.3091,-2.3091,-2.3091,-2.3091,-2.3091,-2.3091,-2.3091,-2.3091,-2.3091,-2.3091,-2.3091,-2.3091,-2.3091,-2.3091,-2.3091,-2.3091,-2.3091,-2.3091,-2.3091,-2.3091,-2.3091,-2.3033,0.0,0.0,0.0,0.0,0.0,0.0,0.0,0.0,0.0,0.0,0.0,0.0,0.0,0.0,0.0,0.0,0.0,0.0,0.0,0.0,-0.895,-0.9036,-1.0683,-1.2315,-1.3856,-1.2978,-1.3453,-1.5418,-1.448,-1.3938,-1.3721,-1.2669,-1.1992,-1.1587,-1.1103,-1.0674,0.0,0.0,0.0,0.0,0.0,0.0,0.0,0.0,0.0,0.0,0.0,0.0,0.0,0.0,0.0,0.0,0.0,0.0,-1.4871,-1.4796,-1.4425,-1.4374,-1.5957,-1.6019,-1.6032,-1.7727,-1.7388,-1.6814,-1.7573,-1.7351,0.0,-1.8339,0.0,0.0,0.0,-2.2313,-2.3516,-2.2785,-2.3632,-2.4403,-2.4457,-2.4454,-2.4563,-2.4978,-2.4914,-2.4414,-2.343,-2.3222,-2.3135,-2.3222,-2.3135,-2.3091,-2.3091,-2.3091,-2.3091,-2.3091,-2.3091,-2.3091,-2.3091,-2.3091,-2.3091,-2.3091,-2.3091,-2.3091,-2.3091,-2.3091,-2.3091,-2.3091,-2.3091,-2.3091,-2.3091,-2.3091,-2.3091,-2.3091,-2.3091,-2.3091,-2.3091,-2.3091,-2.3091,-2.3033,0.0,0.0,0.0,0.0,0.0,0.0,0.0,0.0,0.0,0.0,0.0,0.0,0.0,0.0,0.0,0.0,0.0,0.0,0.0,0.0,-0.8852,-0.9349,-1.0556,-1.1944,-1.352,-1.3803,-1.4481,-1.561,-1.4462,-1.3879,-1.3792,-1.2996,-1.2246,-1.1596,-1.1408,0.0,0.0,0.0,0.0,0.0,0.0,0.0,0.0,0.0,0.0,0.0,0.0,0.0,0.0,0.0,-1.4016,-1.4513,0.0,-1.4563,-1.5273,-1.4601,-1.4267,-1.4374,-1.5655,-1.5856,-1.6095,-1.779,-1.789,0.0,0.0,-1.9677,-1.9906,-2.0433,-2.0981,0.0,-2.2564,-2.3427,-2.4107,-2.4387,-2.5113,-2.5627,-2.565,-2.5037,-2.464,-2.4766,-2.4168,-2.3551,-2.3135,-2.3091,-2.3091,-2.3091,-2.3091,-2.3091,-2.3091,-2.3091,-2.3091,-2.3091,-2.3091,-2.3091,-2.3091,-2.3091,-2.3091,-2.3091,-2.3091,-2.3091,-2.3091,-2.3091,-2.3091,-2.3091,-2.3091,-2.3091,-2.3091,-2.3091,-2.3091,-2.3091,-2.3091,-2.3091,-2.3091,-2.3091,-2.3091,-2.2984,0.0,0.0,0.0,0.0,0.0,0.0,0.0,0.0,0.0,0.0,0.0,0.0,0.0,0.0,0.0,0.0,0.0,0.0,0.0,-0.7803,-0.8574,-0.9378,-1.0254,-1.1369,-1.2771,-1.3973,-1.4931,-1.5632,-1.479,-1.4365,-1.4354,-1.3619,-1.2843,-1.2079,0.0,0.0,0.0,0.0,0.0,0.0,0.0,0.0,0.0,0.0,0.0,0.0,0.0,0.0,0.0,0.0,-1.3885,0.0,0.0,0.0,0.0,0.0,-1.4614,-1.4777,-1.5512,-1.5693,-1.6057,-1.7564,0.0,0.0,-2.0333,-2.0689,-2.0875,-2.1822,-2.2763,-2.3454,-2.3739,-2.3774,-2.4086,-2.496,-2.5329,-2.5459,-2.5427,-2.4755,-2.4253,-2.4253,-2.3594,-2.3091,-2.3091,-2.3091,-2.3091,-2.3091,-2.3091,-2.3091,-2.3091,-2.3091,-2.3091,-2.3091,-2.3091,-2.3091,-2.3091,-2.3091,-2.3091,-2.3091,-2.3091,-2.3091,-2.3091,-2.3091,-2.3091,-2.3091,-2.3091,-2.3091,-2.3091,-2.3091,-2.3091,-2.3091,-2.3091,-2.3091,-2.3091,-2.3091,-2.2829,-2.2311,0.0,0.0,0.0,0.0,0.0,0.0,0.0,0.0,0.0,0.0,0.0,0.0,0.0,0.0,0.0,0.0,0.0,0.0,0.0,-0.7532,-0.8164,-0.8967,-0.9824,-1.0784,-1.1871,-1.3318,-1.4627,-1.5706,-1.5632,-1.561,-1.5576,-1.4568,-1.3729,0.0,0.0,0.0,0.0,0.0,0.0,0.0,0.0,0.0,0.0,0.0,0.0,0.0,0.0,0.0,0.0,0.0,-1.3684,-1.3486,0.0,0.0,0.0,-1.553,-1.5693,-1.5693,-1.5693,-1.5706,-1.5982,-1.7134,0.0,0.0,-2.0429,-1.9761,-1.9496,-2.215,-2.3382,-2.3839,-2.3373,-2.329,-2.3455,-2.3895,-2.3609,-2.3258,-2.3138,-2.3091,-2.3091,-2.3091,-2.3091,-2.3091,-2.3091,-2.3091,-2.3091,-2.3091,-2.3091,-2.3091,-2.3091,-2.3091,-2.3091,-2.3091,-2.3091,-2.3091,-2.3091,-2.3091,-2.3091,-2.3091,-2.3091,-2.3091,-2.3091,-2.3091,-2.3091,-2.3091,-2.3091,-2.3091,-2.3091,-2.3091,-2.3091,-2.3091,-2.3091,-2.3091,-2.3091,-2.3081,-2.2129,-2.0934,0.0,0.0,0.0,0.0,0.0,0.0,0.0,0.0,0.0,0.0,0.0,0.0,0.0,0.0,0.0,0.0,0.0,0.0,0.0,-0.7532,-0.8164,-0.8967,-0.9513,-1.0265,-1.1257,-1.2437,-1.4096,-1.6249,-1.5814,-1.561,-1.5576,-1.4428,0.0,-1.3751,0.0,0.0,0.0,0.0,0.0,0.0,0.0,0.0,0.0,0.0,0.0,0.0,0.0,0.0,0.0,0.0,0.0,0.0,0.0,0.0,0.0,-1.5198,-1.5412,-1.5693,-1.5693,-1.6304,-1.7149,-1.8254,0.0,0.0,0.0,-2.0957,0.0,0.0,-2.262,-2.2208,-2.2785,-2.3126,-2.3215,-2.2962,-2.3412,-2.3649,-2.3187,-2.3091,-2.3091,-2.3091,-2.3091,-2.3091,-2.3091,-2.3091,-2.3091,-2.3091,-2.3091,-2.3091,-2.3091,-2.3091,-2.3091,-2.3091,-2.3091,-2.3091,-2.3091,-2.3091,-2.3091,-2.3091,-2.2789,-2.2808,-2.3091,-2.3091,-2.3091,-2.3081,-2.2779,-2.2705,-2.2705,-2.2705,-2.2705,-2.2705,-2.2705,-2.2705,-2.2571,-2.1457,-2.0784,-2.0182,0.0,0.0,0.0,0.0,0.0,0.0,0.0,0.0,0.0,0.0,0.0,0.0,0.0,0.0,0.0,0.0,0.0,0.0,0.0,0.0,-0.8122,-0.8967,-0.9387,-1.0237,-1.1608,-1.2488,-1.3781,-1.5541,-1.5181,-1.5098,-1.5269,0.0,-1.4115,-1.3959,0.0,-1.2794,0.0,0.0,0.0,0.0,-1.1387,-1.1064,-1.0908,0.0,0.0,0.0,0.0,0.0,0.0,0.0,0.0,0.0,-1.3864,0.0,0.0,-1.4921,-1.5286,-1.5743,-1.5957,-1.6848,-1.7895,-1.8646,-1.9633,-2.0602,-2.1402,0.0,0.0,-2.2274,-2.204,-2.1908,-2.2346,-2.2618,-2.2767,-2.283,-2.3135,-2.3317,-2.312,-2.3091,-2.3091,-2.3091,-2.3091,-2.3091,-2.3091,-2.3091,-2.3091,-2.3091,-2.3091,-2.3023,-2.2857,-2.2847,-2.2769,-2.2646,-2.2604,-2.2604,-2.2604,-2.2604,-2.2604,-2.2637,-2.2383,-2.2402,-2.2604,-2.2604,-2.2604,-2.2627,-2.2373,-2.2266,-2.2266,-2.2266,-2.2266,-2.2266,-2.2266,-2.2266,-2.21,-2.0726,-1.9853,-1.9065,0.0,0.0,0.0,0.0,0.0,0.0,0.0,0.0,0.0,0.0,0.0,0.0,0.0,0.0,0.0,0.0,0.0,0.0,0.0,0.0,-0.8194,-0.9035,-0.958,-1.076,-1.2636,-1.3053,-1.3509,-1.4026,-1.4074,-1.4324,0.0,0.0,-1.4415,-1.3886,0.0,-1.3188,0.0,0.0,0.0,-1.1606,-1.1606,-1.132,-1.0897,-1.0947,0.0,0.0,0.0,0.0,0.0,0.0,0.0,0.0,-1.3679,-1.4067,-1.4204,-1.4689,-1.5248,-1.5806,-1.6287,-1.7315,-1.8337,-1.8601,-1.9818,-2.1043,-2.1368,-2.1991,-2.2157,-2.0854,-2.1601,-2.2375,-2.1954,-2.1852,-2.2125,-2.3026,-2.2772,-2.2656,-2.3033,-2.3091,-2.3091,-2.3091,-2.3091,-2.3091,-2.3091,-2.3062,-2.3042,-2.3042,-2.3003,-2.2818,-2.248,-2.2461,-2.2275,-2.1894,-2.1885,-2.1885,-2.1885,-2.1885,-2.1885,-2.1885,-2.1846,-2.1826,-2.1826,-2.1865,-2.1865,-2.1826,-2.1826,-2.1807,-2.1768,-2.1807,-2.1826,-2.1826,-2.1744,-2.1693,-2.1559,-2.0249,-1.8944,-1.7669,0.0,0.0,0.0,0.0,0.0,0.0,0.0,0.0,0.0,0.0,0.0,0.0,0.0,0.0,0.0,0.0,0.0,0.0,0.0,0.0,-0.903,-0.9534,-1.1089,-1.2352,-1.3216,-1.2575,-1.262,-1.3474,-1.3887,-1.4161,0.0,0.0,0.0,-1.4468,0.0,-1.301,0.0,0.0,-1.1672,-1.1606,-1.1606,-1.132,-1.0947,-1.131,-1.0968,0.0,0.0,0.0,0.0,0.0,0.0,0.0,-1.3152,-1.376,-1.4128,-1.4242,-1.4947,-1.5718,-1.5844,-1.7325,0.0,-1.9164,-1.9958,-2.089,-2.1702,-2.1449,-2.0978,-2.0653,-2.0826,-2.1006,-2.0914,-2.1154,-2.153,-2.2106,-2.2352,-2.2656,-2.3033,-2.3091,-2.3091,-2.3091,-2.3091,-2.3091,-2.3091,-2.2799,-2.2646,-2.2646,-2.2344,-2.2119,-2.2031,-2.2021,-2.1982,-2.1894,-2.1885,-2.1885,-2.1885,-2.1885,-2.1885,-2.1885,-2.1543,-2.1337,-2.1346,-2.1728,-2.1699,-2.1337,-2.1337,-2.1172,-2.0918,-2.123,-2.1337,-2.1286,-2.0435,-2.009,-1.9839,-1.749,-1.6477,-1.6065,0.0,0.0,0.0,0.0,0.0,0.0,0.0,0.0,0.0,0.0,0.0,0.0,0.0,0.0,0.0,0.0,0.0,0.0,0.0,0.0,-0.9437,-1.0291,-1.2002,-1.295,-1.2962,-1.2719,-1.2823,-1.33,-1.3581,0.0,0.0,0.0,0.0,-1.4236,0.0,-1.2722,0.0,0.0,-1.1663,-1.1281,-1.1518,-1.132,-1.0937,-1.1162,-1.087,-1.0303,-1.0303,0.0,0.0,0.0,0.0,0.0,0.0,0.0,-1.3089,-1.3576,-1.4288,-1.5159,-1.6241,0.0,0.0,-2.0956,0.0,-2.0843,-2.179,-2.126,-2.0605,-2.0605,-2.0605,-2.0605,-2.0605,-2.0937,-2.1337,-2.1816,-2.2236,-2.2656,-2.3033,-2.3091,-2.3023,-2.2818,-2.2789,-2.2754,-2.2559,-2.2344,-2.2207,-2.2207,-2.2012,-2.1797,-2.1582,-2.1572,-2.1475,-2.13,-2.129,-2.129,-2.129,-2.129,-2.129,-2.129,-2.1025,-2.0918,-2.0918,-2.1192,-2.1133,-2.0918,-2.0918,-2.0781,-2.0625,-2.082,-2.0631,-2.0094,-1.9514,-1.8972,-1.8286,-1.6376,-1.5696,-1.5538,0.0,0.0,0.0,0.0,0.0,0.0,0.0,0.0,0.0,0.0,0.0,0.0,0.0,0.0,0.0,0.0,0.0,0.0,0.0,-0.8686,-0.9897,-1.1338,-1.2714,-1.3275,-1.2926,-1.317,-1.3385,-1.3576,-1.3385,0.0,0.0,0.0,0.0,-1.3779,0.0,0.0,0.0,0.0,-1.158,-1.084,-1.1291,-1.1213,-1.0811,-1.0879,-1.0596,-1.0186,-1.0273,-1.0254,-1.0253,-1.0714,0.0,0.0,0.0,0.0,-1.1963,-1.2796,-1.3418,-1.4277,-1.6284,0.0,-2.0163,-2.2476,-2.1958,0.0,-2.1723,-2.1352,-2.0789,-2.0644,-2.0605,-2.0605,-2.0605,-2.0869,-2.1269,-2.1699,-2.206,-2.2418,-2.2916,-2.2925,-2.2822,-2.2549,-2.2451,-2.2266,-2.1924,-2.1816,-2.1777,-2.1777,-2.1699,-2.1504,-2.1103,-2.1123,-2.0947,-2.0615,-2.0605,-2.0605,-2.0605,-2.0605,-2.0605,-2.0605,-2.0605,-2.0605,-2.0605,-2.0605,-2.0605,-2.0605,-2.0605,-2.0605,-2.0605,-2.0401,-1.9805,-1.8957,-1.859,-1.7859,-1.6887,-1.5827,-1.5421,-1.5296,0.0,0.0,0.0,0.0,0.0,0.0,0.0,0.0,0.0,0.0,0.0,-0.7118,-0.7178,-0.7486,0.0,0.0,0.0,0.0,-0.7695,0.0,0.0,-1.2916,-1.3649,-1.4181,-1.4562,-1.375,-1.3755,-1.4687,0.0,0.0,0.0,0.0,0.0,-1.3792,0.0,0.0,0.0,0.0,-1.1173,-1.042,-1.083,-1.0742,-1.043,-1.0771,-1.04,-0.9747,-1.0146,-1.0039,-0.9757,-1.0242,-1.0668,0.0,0.0,0.0,-1.1822,-1.1963,-1.2374,-1.3041,-1.4221,0.0,-1.9301,0.0,-2.195,-2.1741,0.0,-2.1642,-2.1593,-2.0789,-2.0605,-2.0605,-2.0605,-2.0654,-2.0801,-2.121,-2.1327,-2.1639,-2.248,-2.2285,-2.2168,-2.248,-2.2197,-2.1953,-2.1894,-2.1543,-2.1278,-2.1278,-2.0957,-2.0752,-2.0693,-2.0693,-2.0664,-2.0605,-2.0605,-2.0605,-2.0605,-2.0605,-2.0605,-2.0605,-2.0605,-2.0605,-2.0605,-2.0605,-2.0605,-2.0605,-2.0605,-2.0605,-2.0527,-1.9599,-1.9125,-1.8798,-1.6879,-1.6067,-1.5786,-1.4692,-1.4328,-1.4286,0.0,0.0,0.0,0.0,0.0,0.0,0.0,0.0,0.0,0.0,0.0,-0.7442,-0.7442,-0.7583,0.0,0.0,0.0,0.0,-0.8076,-0.9319,0.0,0.0,0.0,-1.3446,-1.3948,-1.3494,-1.363,-1.445,0.0,0.0,0.0,-1.6337,-1.6072,0.0,0.0,0.0,0.0,0.0,-1.1222,-1.0625,-1.0576,-1.0753,-1.0987,-1.0684,-1.0625,-1.0674,-1.04,-1.0175,-1.0029,-1.0234,-1.0448,-1.0611,-1.0611,0.0,0.0,0.0,-1.173,-1.2729,-1.5294,-1.7302,-1.9171,0.0,-2.1131,-2.0629,-2.1161,-2.1032,-2.0777,-2.0624,-2.0605,-2.0605,-2.0605,-2.0605,-2.0752,-2.1122,-2.119,-2.1414,-2.207,-2.2002,-2.1865,-2.1765,-2.1631,-2.1426,-2.1172,-2.0977,-2.0859,-2.0859,-2.0713,-2.0605,-2.0605,-2.0605,-2.0605,-2.0605,-2.0605,-2.0605,-2.0605,-2.0605,-2.0605,-2.0605,-2.0605,-2.0605,-2.0605,-2.0605,-2.0605,-2.0605,-2.0605,-2.0605,-2.0527,-1.9441,-1.8638,-1.7908,-1.6306,-1.5338,-1.4734,-1.4292,-1.4088,-1.4088,0.0,0.0,0.0,0.0,0.0,0.0,0.0,0.0,0.0,0.0,0.0,0.0,-0.7865,0.0,0.0,0.0,0.0,0.0,-0.8381,0.0,0.0,0.0,0.0,-1.2544,-1.3012,-1.3012,-1.3373,0.0,0.0,0.0,-1.6748,-1.7187,-1.7593,0.0,-1.6219,-1.4909,0.0,0.0,0.0,0.0,-1.0753,-1.1007,-1.1557,-1.1115,-1.1291,-1.1653,-1.0899,-1.0557,-1.0449,-1.0332,-1.0303,-1.0303,-1.0303,-1.0303,0.0,0.0,0.0,-1.234,0.0,0.0,-1.8193,-2.0152,-2.0046,-1.9646,-2.025,-2.0313,-2.0301,-2.0409,-2.0527,-2.0605,-2.0605,-2.0605,-2.0713,-2.1016,-2.1064,-2.1221,-2.166,-2.1621,-2.1475,-2.122,-2.1093,-2.0937,-2.0635,-2.0605,-2.0605,-2.0605,-2.0605,-2.0605,-2.0605,-2.0605,-2.0605,-2.0605,-2.0605,-2.0605,-2.0605,-2.0605,-2.0605,-2.0605,-2.0605,-2.0605,-2.0605,-2.0605,-2.0605,-2.0605,-2.0605,-2.045,-2.0118,-1.9036,-1.7908,-1.6805,-1.5703,-1.4817,-1.4088,-1.4088,-1.4088,-1.4088,0.0,0.0,0.0,0.0,0.0,0.0,0.0,0.0,0.0,0.0,0.0,0.0,0.0,0.0,0.0,0.0,0.0,0.0,0.0,0.0,0.0,0.0,0.0,0.0,0.0,-1.2544,0.0,0.0,0.0,0.0,-1.736,-1.7385,-1.8216,-1.9608,-1.8441,-1.6379,-1.3784,0.0,0.0,0.0,-1.1547,-1.1567,-1.1694,-1.2465,-1.252,-1.2106,-1.1682,-1.1252,-1.082,-1.044,-1.0303,-1.0303,-1.0303,-1.0303,-1.0303,0.0,0.0,0.0,0.0,-1.472,0.0,-1.7281,-1.889,-1.9726,-1.8452,-1.9809,-2.1073,-2.0129,-2.0273,-2.0605,-2.0605,-2.0605,-2.0615,-2.0635,-2.0635,-2.0752,-2.1161,-2.0898,-2.0781,-2.1142,-2.0859,-2.0635,-2.0605,-2.0605,-2.0605,-2.0605,-2.0605,-2.0605,-2.0605,-2.0605,-2.0605,-2.0605,-2.0605,-2.0605,-2.0605,-2.0605,-2.0605,-2.0605,-2.0605,-2.0605,-2.0605,-2.0605,-2.0605,-2.0605,-2.0605,-2.0001,-1.8997,-1.7868,-1.6764,-1.5662,-1.4615,-1.413,-1.4088,-1.4088,-1.4088,-1.4088,0.0,0.0,0.0,0.0,0.0,0.0,0.0,0.0,0.0,0.0,0.0,0.0,0.0,-0.9266,-0.9325,-0.8606,0.0,0.0,0.0,0.0,0.0,0.0,0.0,0.0,0.0,0.0,0.0,0.0,0.0,-1.4475,-1.6308,-1.666,-1.7526,-1.8744,-1.7933,-1.7011,-1.5957,-1.4451,0.0,0.0,-1.2735,-1.2896,-1.3372,-1.3021,-1.3115,-1.3334,-1.2656,-1.2129,-1.1716,-1.156,-1.1152,-1.0684,-1.0684,-1.0312,-0.9845,-0.9845,-1.0851,-1.2149,0.0,0.0,0.0,-1.6474,-1.6976,-1.7305,-1.82,-1.8816,-1.9253,-1.9468,-1.9853,-2.0146,-2.0146,-2.0419,-2.0605,-2.0605,-2.0605,-2.0664,-2.0781,-2.0703,-2.0664,-2.0791,-2.0703,-2.0605,-2.0605,-2.0605,-2.0605,-2.0605,-2.0605,-2.0605,-2.0605,-2.0605,-2.0605,-2.0605,-2.0605,-2.0605,-2.0605,-2.0605,-2.0605,-2.0605,-2.0605,-2.0605,-2.0605,-2.0605,-2.0605,-2.0566,-1.9883,-1.9766,-1.9883,-1.806,-1.705,-1.656,-1.4776,-1.4088,-1.4088,-1.4088,-1.4088,-1.4088,0.0,0.0,0.0,0.0,0.0,0.0,0.0,0.0,0.0,-0.8395,0.0,0.0,0.0,0.0,-1.0028,-0.9324,-0.9266,0.0,0.0,0.0,0.0,0.0,0.0,0.0,0.0,0.0,0.0,0.0,0.0,0.0,0.0,-1.617,-1.7002,-1.7904,-1.7295,-1.711,0.0,0.0,-1.4685,-1.4283,-1.4001,-1.4108,-1.4407,-1.4353,-1.4413,-1.4445,-1.3769,-1.3242,-1.2798,-1.2525,-1.1963,-1.1297,-1.1172,-1.0537,-0.9835,-0.9835,-1.0844,0.0,-1.235,0.0,0.0,0.0,-1.5268,-1.5289,-1.7308,-1.7788,-1.7998,-1.8711,-1.9316,-1.9707,-1.9707,-2.0049,-2.0429,-2.0576,-2.0605,-2.0605,-2.0605,-2.0605,-2.0605,-2.0605,-2.0605,-2.0605,-2.0605,-2.0605,-2.0605,-2.0605,-2.0605,-2.0605,-2.0605,-2.0605,-2.0605,-2.0605,-2.0605,-2.0605,-2.0605,-2.0605,-2.0605,-2.0605,-2.0605,-2.0605,-2.0605,-2.0605,-2.0605,-2.0527,-1.9481,-1.9195,-1.9353,-1.7536,-1.6568,-1.6083,-1.4657,-1.4088,-1.4088,-1.4088,-1.4088,-1.4088,0.0,0.0,0.0,0.0,0.0,0.0,0.0,0.0,-0.8481,-0.8475,0.0,0.0,0.0,0.0,0.0,-1.1069,-1.1021,-1.088,-1.0548,-1.0467,0.0,0.0,0.0,0.0,0.0,0.0,0.0,0.0,0.0,0.0,0.0,0.0,-1.676,-1.7322,-1.6748,-1.6694,-1.705,-1.6727,-1.5892,-1.4857,-1.5318,-1.5121,-1.4748,-1.651,-1.6462,-1.542,-1.5019,-1.4561,-1.4036,-1.3252,-1.2656,-1.2155,-1.1712,-1.0997,-1.0322,-1.0303,-1.0586,0.0,0.0,0.0,0.0,0.0,-1.3892,-1.3926,-1.5635,-1.6692,-1.7422,-1.7881,-1.8643,-1.9238,-1.9268,-1.9609,-2.0039,-2.0517,-2.0595,-2.0605,-2.0605,-2.0605,-2.0605,-2.0605,-2.0605,-2.0605,-2.0605,-2.0605,-2.0605,-2.0605,-2.0605,-2.0605,-2.0605,-2.0605,-2.0605,-2.0605,-2.0605,-2.0605,-2.0605,-2.0605,-2.0605,-2.0605,-2.0605,-2.0605,-2.0605,-2.0566,-2.0557,-2.0479,-1.9362,-1.827,-1.718,-1.615,-1.5095,-1.413,-1.413,-1.4088,-1.4088,-1.4088,-1.4088,-1.4088,0.0,0.0,0.0,0.0,0.0,0.0,-0.9915,-1.0163,-1.0332,0.0,0.0,0.0,-1.1402,-1.1641,-1.1914,-1.2063,-1.1815,-1.1446,-1.0973,-1.1222,-1.1273,-1.0925,-1.0969,-1.1,-1.1,-1.1653,-1.1993,-1.1993,-1.2984,-1.3747,-1.4343,-1.4626,-1.5261,-1.6158,-1.5994,-1.6202,-1.6636,-1.6157,-1.6441,-1.7155,-1.6386,-1.6915,-1.8051,-1.7006,-1.6909,-1.7174,-1.6445,-1.5908,-1.5517,-1.5292,-1.4277,-1.291,-1.1523,-1.0928,-1.0674,-1.0391,-1.0821,0.0,-1.1224,0.0,0.0,0.0,0.0,0.0,-1.4033,-1.4639,-1.5391,-1.6775,-1.7529,-1.8096,-1.8711,-1.917,-1.96,-2.0019,-2.04,-2.0605,-2.0605,-2.0605,-2.0605,-2.0605,-2.0605,-2.0605,-2.0605,-2.0605,-2.0605,-2.0605,-2.0605,-2.0605,-2.0605,-2.0605,-2.0605,-2.0605,-2.0605,-2.0605,-2.0605,-2.0605,-2.0605,-2.0605,-2.0605,-2.0605,-2.0566,-1.9805,-1.9441,-1.9362,-1.7447,-1.6429,-1.6108,-1.582,-1.5538,-1.5179,-1.4412,-1.4088,-1.4088,-1.4088,-1.4088,-1.4088,0.0,0.0,0.0,0.0,0.0,-1.1457,-1.1457,-1.1656,-1.1795,0.0,0.0,0.0,-1.2362,-1.3022,-1.3502,-1.349,-1.3077,-1.2686,-1.236,-1.2199,-1.1975,-1.1711,-1.1863,-1.1877,-1.1667,-1.2394,-1.2653,-1.2443,-1.2948,-1.3378,-1.3727,-1.3972,-1.4425,-1.5035,-1.5035,-1.5462,-1.6132,-1.558,-1.6183,-1.7493,-1.7444,-1.8158,-1.914,-1.8372,-1.8306,-1.8533,-1.778,-1.7139,-1.6643,-1.6643,-1.5352,-1.35,-1.2168,-1.1611,-1.1355,-1.0958,-1.1447,0.0,0.0,0.0,0.0,0.0,0.0,0.0,-1.3594,-1.3929,-1.4494,-1.5868,-1.6533,-1.7041,-1.7681,-1.834,-1.8828,-1.9082,-1.9629,-2.0194,-2.0556,-2.0605,-2.0605,-2.0605,-2.0605,-2.0605,-2.0605,-2.0605,-2.0605,-2.0605,-2.0605,-2.0605,-2.0605,-2.0605,-2.0605,-2.0605,-2.0605,-2.0605,-2.0605,-2.0605,-2.0605,-2.0605,-2.0605,-2.0605,-2.0566,-1.9481,-1.8997,-1.8877,-1.6675,-1.5696,-1.5662,-1.522,-1.5012,-1.4977,-1.4328,-1.4088,-1.4088,-1.4088,-1.4088,-1.4088,0.0,0.0,-1.2776,-1.2776,-1.2912,-1.3047,-1.3105,-1.307,-1.3074,0.0,-1.3041,-1.3107,-1.3586,-1.4916,-1.5613,-1.511,-1.4588,-1.4242,-1.4116,-1.3197,-1.2657,-1.2579,-1.3044,-1.3087,-1.2597,-1.3568,-1.3803,-1.3216,-1.3273,-1.3261,-1.321,-1.3752,-1.3997,-1.3997,-1.3997,-1.4614,-1.5567,-1.5097,-1.558,-1.6814,-1.8381,-1.9053,-1.9217,-2.0193,-2.0237,-1.9686,-1.9078,-1.8291,-1.7578,-1.7465,-1.6064,-1.4241,-1.3369,-1.2793,-1.233,-1.1927,-1.2357,0.0,0.0,0.0,0.0,0.0,-1.2656,0.0,-1.3665,-1.3968,-1.427,-1.5079,-1.5576,-1.6026,-1.6463,-1.7246,-1.7793,-1.7793,-1.8555,-1.9443,-2.0341,-2.0507,-2.0537,-2.0537,-2.0576,-2.0605,-2.0605,-2.0605,-2.0605,-2.0605,-2.0605,-2.0605,-2.0605,-2.0605,-2.0605,-2.0605,-2.0605,-2.0605,-2.0605,-2.0605,-2.0605,-2.0605,-2.0605,-2.0527,-2.0401,-1.9313,-1.8758,-1.851,-1.6429,-1.5538,-1.5462,-1.4489,-1.4088,-1.4088,-1.4088,-1.4088,-1.4088,-1.4088,-1.4088,-1.4088,0.0,-1.341,-1.3804,-1.3804,-1.4194,-1.4626,-1.5072,-1.4762,-1.4788,-1.5588,-1.5657,-1.5811,-1.6291,-1.6335,-1.6287,-1.6208,-1.5693,-1.5009,-1.4166,-1.3912,-1.3559,-1.3089,-1.3222,-1.3053,-1.2536,-1.3555,-1.3624,-1.2663,-1.3512,-1.369,-1.3198,-1.3328,-1.3378,-1.3378,-1.3378,-1.3998,-1.5047,-1.4934,-1.6053,-1.794,-1.8694,-2.0032,-2.1593,-2.1618,-2.1573,-2.1403,-2.0656,-1.9748,-1.876,-1.7768,-1.6865,-1.5985,-1.4795,-1.4111,-1.3656,-1.3252,-1.3252,-1.335,-1.3174,-1.3412,-1.3597,-1.3027,-1.332,0.0,-1.2759,-1.311,-1.3769,-1.425,-1.4426,-1.4718,-1.5498,-1.6094,-1.6476,-1.6476,-1.7461,-1.8555,-1.9414,-1.9824,-2.0039,-2.0039,-2.0352,-2.0605,-2.0605,-2.0605,-2.0605,-2.0605,-2.0605,-2.0605,-2.0605,-2.0605,-2.0605,-2.0605,-2.0605,-2.0605,-2.0605,-2.0605,-2.0605,-2.0605,-2.0605,-2.0167,-1.9274,-1.8149,-1.7172,-1.6273,-1.4977,-1.4412,-1.4412,-1.4173,-1.4088,-1.4088,-1.4088,-1.4088,-1.4088,-1.4088,-1.4088,-1.4088,0.0,-1.4538,-1.4902,-1.4902,-1.533,-1.5881,-1.6446,-1.6317,-1.6523,-1.7565,-1.7934,-1.7873,-1.7278,-1.7294,-1.725,-1.6974,-1.6183,-1.5475,-1.4921,-1.4387,-1.3972,-1.3664,-1.3667,-1.3705,-1.3705,-1.395,-1.3969,-1.3705,-1.3664,-1.3509,-1.3198,-1.3198,-1.3366,-1.3647,-1.3647,-1.4268,-1.5299,-1.5299,-1.6082,-1.7501,-1.9171,-2.1004,-2.2658,-2.2401,-2.2491,-2.2562,-2.1183,-2.0222,-1.9346,-1.7637,-1.7061,-1.6797,-1.5292,-1.4932,-1.4971,-1.4336,-1.4297,-1.4338,-1.3909,-1.3948,-1.4055,-1.3887,-1.3828,0.0,0.0,-1.3193,-1.3369,-1.3977,-1.3938,-1.4082,-1.4941,-1.5273,-1.5527,-1.5733,-1.6465,-1.7187,-1.765,-1.8789,-1.96,-1.96,-1.9795,-1.9959,-1.9959,-1.9959,-1.9959,-1.9959,-1.9959,-1.9959,-1.9959,-2.0127,-2.0244,-2.0244,-2.0488,-2.0605,-2.0605,-2.0605,-2.0605,-2.0605,-2.0605,-2.004,-1.8957,-1.7827,-1.6723,-1.5662,-1.4573,-1.4088,-1.4088,-1.4088,-1.4088,-1.4088,-1.4088,-1.4088,-1.4088,-1.4088,-1.4088,-1.4088,0.0,-1.5563,-1.5856,-1.5856,-1.6321,-1.6873,-1.7451,-1.7561,-1.7894,-1.8821,-1.962,-1.9553,-1.806,-1.8462,-1.8656,-1.824,-1.7049,-1.6241,-1.6022,-1.5101,-1.4425,-1.41,-1.4281,-1.4513,-1.4739,-1.4525,-1.4462,-1.4569,-1.3772,-1.3315,-1.3198,-1.3198,-1.3521,-1.4103,-1.4217,-1.4846,-1.5856,-1.5856,-1.6484,-1.7654,-1.995,-2.143,-2.2371,-2.2788,-2.2965,-2.2797,-2.1179,-2.0283,-1.9639,-1.7798,-1.7402,-1.7353,-1.5781,-1.5791,-1.6193,-1.5391,-1.54,-1.5518,-1.4796,-1.4669,-1.4738,-1.4785,-1.4453,-1.4065,0.0,0.0,0.0,-1.3763,-1.3623,-1.3594,-1.4287,-1.451,-1.4619,-1.4883,-1.543,-1.5821,-1.5733,-1.7334,-1.8603,-1.8779,-1.8936,-1.9072,-1.915,-1.9092,-1.9111,-1.9277,-1.9131,-1.9111,-1.9277,-1.9609,-1.9795,-1.9795,-2.0215,-2.0478,-2.0478,-2.0556,-2.0605,-2.0605,-2.0605,-1.9923,-1.8638,-1.7698,-1.6601,-1.5338,-1.4489,-1.4088,-1.4088,-1.4088,-1.4088,-1.4088,-1.4088,-1.4088,-1.4088,-1.4088,-1.4088,-1.4088,-1.6214,-1.6384,-1.64,-1.64,-1.6898,-1.7463,-1.8028,-1.8116,-1.8275,-1.8684,-2.0249,-2.0993,-2.0133,-2.0677,-2.1091,-2.1029,-1.9572,-1.8201,-1.7195,-1.6549,-1.5566,-1.409,-1.4982,-1.5097,-1.4217,-1.506,-1.4827,-1.3386,-1.3803,-1.3727,-1.3198,-1.3198,-1.3521,-1.4128,-1.4601,-1.5412,-1.64,-1.64,-1.8166,-2.0953,-2.1267,-2.0627,-1.9784,-2.2722,-2.2787,-2.12,-2.077,-2.0283,-1.9824,-1.9209,-1.8769,-1.8295,-1.7383,-1.7181,-1.7139,-1.665,-1.6512,-1.6531,-1.6434,-1.6719,-1.666,-1.5156,-1.5576,-1.5751,-1.3535,0.0,-1.3782,-1.3154,0.0,-1.3013,-1.3101,0.0,0.0,-1.3223,-1.4187,-1.4795,-1.4387,-1.5186,-1.6143,-1.6902,-1.7695,-1.8301,-1.8637,-1.8369,-1.8467,-1.9228,-1.8584,-1.8486,-1.9248,-1.9336,-1.9355,-1.9355,-1.9766,-1.999,-1.999,-2.041,-2.0605,-2.0605,-2.0605,-1.9511,-1.7496,-1.7374,-1.6206,-1.4292,-1.4166,-1.4088,-1.4088,-1.4088,-1.4088,-1.4088,-1.4088,-1.4088,-1.4088,-1.4088,-1.4088,-1.4088,-1.6315,-1.65,-1.65,-1.65,-1.6722,-1.7187,-1.8066,-1.956,-2.0519,-2.0333,-2.1546,-2.2443,-2.2468,-2.2172,-2.2096,-2.2393,-2.123,-1.997,-1.8832,-1.7674,-1.6701,-1.5991,-1.5496,-1.5324,-1.548,-1.4703,-1.4284,-1.4186,-1.3508,-1.3182,-1.321,0.0,-1.4016,-1.4614,-1.5834,-1.6948,-1.7955,-1.7955,-1.8757,-2.0087,-2.0388,-1.9911,-1.9421,-2.3173,-2.3329,-2.1483,-2.0849,-2.0488,-2.0146,-1.9219,-1.8955,-1.8867,-1.8008,-1.7744,-1.7715,-1.7496,-1.7305,-1.7051,-1.6775,-1.7051,-1.7112,-1.587,-1.5742,-1.5527,-1.3965,-1.3506,-1.3379,-1.3271,0.0,0.0,0.0,0.0,0.0,0.0,-1.3691,-1.3984,-1.3773,-1.426,-1.4962,-1.5829,-1.6279,-1.667,-1.71,-1.6982,-1.7139,-1.7764,-1.7438,-1.7539,-1.8154,-1.8643,-1.887,-1.887,-1.9561,-1.9912,-1.9912,-1.9753,-1.9962,-2.0605,-1.9962,-1.8829,-1.7302,-1.7302,-1.6124,-1.4088,-1.4088,-1.4088,-1.4088,-1.4088,-1.4088,-1.4088,-1.4088,-1.4088,-1.4088,-1.4088,-1.4088,-1.4088,-1.6293,0.0,-1.65,-1.65,-1.6647,-1.7174,-1.8442,-2.0476,-2.1882,-2.1933,-2.2744,-2.364,-2.4356,-2.3853,-2.3665,-2.4186,-2.3251,-2.2138,-2.1008,-1.9421,-1.8394,-1.8028,-1.6607,-1.6019,-1.647,-1.4959,-1.4338,-1.4651,-1.3643,-1.3319,0.0,0.0,-1.4614,-1.5185,-1.6882,-1.8216,-1.9233,-1.9547,-2.0036,-2.0613,-2.0865,-2.0827,-2.0876,-2.3077,-2.312,-2.1886,-2.0934,-2.0605,-2.0439,-1.9346,-1.9199,-1.9326,-1.8594,-1.8359,-1.834,-1.8213,-1.8057,-1.7783,-1.7204,-1.749,-1.7611,-1.6261,-1.5732,-1.5273,-1.4036,-1.3594,-1.3453,-1.3496,-1.3545,0.0,0.0,0.0,-1.3281,0.0,0.0,-1.3467,-1.335,-1.3603,-1.4036,-1.4805,-1.5098,-1.5361,-1.5713,-1.5635,-1.582,-1.6494,-1.6297,-1.6543,-1.7376,-1.7959,-1.8315,-1.8422,-1.9297,-1.9587,-1.9278,-1.9104,-1.9234,-1.9678,-1.8917,-1.794,-1.6846,-1.6846,-1.5835,-1.4088,-1.4088,-1.4088,-1.4088,-1.4088,-1.4088,-1.4088,-1.4088,-1.4088,-1.4088,-1.4088,-1.4088,-1.4088,-1.638,-1.65,-1.65,-1.65,-1.6986,-1.7926,-1.951,-2.0327,-2.1292,-2.2844,-2.3602,-2.4368,-2.5423,-2.6047,-2.6587,-2.714,-2.6126,-2.4979,-2.3855,-2.2266,-2.0856,-1.9688,-1.8635,-1.7548,-1.6418,-1.6404,-1.5627,-1.4038,-1.4555,-1.4833,0.0,0.0,0.0,0.0,-1.7426,-1.8781,-1.9849,-2.0941,-2.2661,-2.4562,-2.4067,-2.423,-2.4554,-2.2071,-2.148,-2.1886,-2.0934,-2.0605,-2.0537,-2.0029,-1.9883,-1.9814,-1.9385,-1.9248,-1.916,-1.8705,-1.8906,-1.9043,-1.8193,-1.8584,-1.8613,-1.6064,-1.5732,-1.5527,-1.3424,-1.3884,-1.4492,-1.3672,-1.4473,-1.5078,-1.4231,-1.4075,0.0,0.0,0.0,0.0,0.0,-1.2935,-1.3076,-1.3516,-1.4307,-1.4842,-1.4852,-1.4443,-1.4717,-1.6016,-1.5351,-1.5586,-1.7328,-1.7402,-1.7607,-1.8018,-1.8857,-1.8811,-1.7803,-1.8569,-1.847,-1.7423,-1.7383,-1.6805,-1.5737,-1.5737,-1.5137,-1.4088,-1.4088,-1.4088,-1.4088,-1.4088,-1.4088,-1.4088,-1.4088,-1.4088,-1.4088,-1.4088,-1.4088,-1.4088,-1.638,0.0,-1.65,-1.65,-1.6663,-1.7375,-1.9008,-2.1004,-2.2744,-2.4048,-2.472,-2.5762,-2.7559,-2.7645,-2.777,-2.8323,-2.7682,-2.6797,-2.5701,-2.371,-2.2543,-2.2551,-2.0432,-1.9233,-1.9267,-1.7492,-1.6269,-1.5664,-1.4792,-1.4548,0.0,0.0,0.0,0.0,-1.7817,-1.956,-2.0966,-2.1719,-2.2652,-2.3634,-2.3095,-2.3286,-2.3782,-2.2983,-2.2379,-2.1886,-2.0934,-2.0605,-2.0586,-2.0429,-2.0156,-1.9941,-2.0126,-1.9746,-1.9316,-1.9443,-1.9394,-1.9228,-1.8936,-1.9268,-1.9219,-1.7217,-1.6611,-1.6016,-1.4114,-1.4268,-1.4541,-1.3682,-1.4521,-1.5118,-1.426,-1.4104,0.0,0.0,0.0,0.0,0.0,-1.2905,-1.2954,-1.3101,-1.3594,-1.3936,-1.3936,-1.3809,-1.4141,-1.5165,-1.4979,-1.5322,-1.6476,-1.7103,-1.7451,-1.7588,-1.7804,-1.7843,-1.7701,-1.6935,-1.6814,-1.7293,-1.6601,-1.6067,-1.5696,-1.5696,-1.5095,-1.4088,-1.4088,-1.4088,-1.4088,-1.4088,-1.4088,-1.4088,-1.4088,-1.4088,-1.4088,-1.4088,-1.4088,-1.4088,-1.6498,-1.6663,-1.676,-1.6538,-1.714,-1.8116,-1.9409,-2.1929,-2.4036,-2.4938,-2.5737,-2.6892,-2.8687,-2.8612,-2.8624,-2.9189,-2.8913,-2.8147,-2.6876,-2.541,-2.4594,-2.4569,-2.246,-2.1191,-2.1037,-1.9251,-1.7739,-1.6525,-1.5884,-1.5529,0.0,0.0,0.0,0.0,0.0,-1.9923,-2.1556,-2.2723,-2.3484,-2.3932,-2.3405,-2.322,-2.3299,-2.3399,-2.2839,-2.1902,-2.1303,-2.1075,-2.1055,-2.0859,-2.0615,-2.04,-2.0566,-2.0224,-1.9766,-1.9883,-1.9834,-1.9678,-1.9365,-1.959,-1.9541,-1.7988,-1.7393,-1.6697,-1.4952,-1.5176,-1.5469,-1.459,-1.5195,-1.5781,-1.5527,-1.4855,0.0,0.0,0.0,0.0,0.0,-1.2905,-1.2905,-1.2905,-1.3125,-1.3171,-1.2925,-1.2986,-1.3307,-1.3933,-1.4191,-1.4775,-1.5811,-1.667,-1.7227,-1.7373,-1.7596,-1.7632,-1.7458,-1.6348,-1.6038,-1.6508,-1.5569,-1.5137,-1.5137,-1.5137,-1.4734,-1.4088,-1.4088,-1.4088,-1.4088,-1.4088,-1.4088,-1.4088,-1.4088,-1.4088,-1.4088,-1.4088,-1.4088,-1.4088,-1.6751,-1.7074,-1.7373,-1.6848,-1.8442,-2.0012,-2.0679,-2.305,-2.4996,-2.5598,-2.664,-2.7745,-2.8813,-2.8938,-2.9202,-2.9741,-2.9792,-2.9114,-2.7542,-2.7356,-2.6854,-2.5799,-2.4707,-2.3404,-2.1873,-2.1654,-1.9982,-1.6798,-1.7677,-1.7533,0.0,0.0,0.0,0.0,-1.817,-1.9834,-2.1575,-2.3785,-2.5025,-2.5505,-2.4925,-2.4144,-2.3274,-2.3274,-2.2747,-2.1943,-2.1904,-2.1885,-2.1816,-2.1406,-2.122,-2.1151,-2.0762,-2.0654,-2.0556,-2.0127,-2.0293,-2.0458,-1.9666,-1.9707,-1.9707,-1.8447,-1.8105,-1.7627,-1.5928,-1.6502,-1.7155,-1.6339,-1.642,-1.6918,-1.7779,-1.6229,-1.4924,0.0,0.0,0.0,0.0,-1.2905,-1.2915,-1.2935,-1.2891,-1.255,0.0,-1.1978,-1.2205,-1.2416,-1.3077,-1.4,-1.5255,-1.619,-1.6863,-1.7334,-1.8095,-1.7993,-1.6928,-1.6707,-1.6055,-1.5024,-1.4386,-1.4088,-1.4088,-1.4088,-1.4088,-1.4088,-1.4088,-1.4088,-1.4088,-1.4088,-1.4088,-1.4088,-1.4088,-1.4088,-1.4088,-1.4088,-1.4088,-1.4088,-1.73,-1.8254,-1.9397,-2.0087,-1.9987,-2.0275,-2.1681,-2.3213,-2.4845,-2.6615,-2.7457,-2.8323,-2.9453,-2.9566,-2.9628,-2.9779,-2.9792,-2.9616,-2.9176,-2.836,-2.7946,-2.8035,-2.6628,-2.5677,-2.5234,-2.3181,-2.1203,-1.9409,-1.7709,-1.6444,-1.5602,0.0,0.0,0.0,0.0,-1.8726,-2.0512,-2.265,-2.4121,-2.4909,-2.3919,-2.3383,-2.3169,-2.3169,-2.3018,-2.2691,-2.2109,-2.1885,-2.1865,-2.1758,-2.1719,-2.1699,-2.1582,-2.1328,-2.1103,-2.1318,-2.123,-2.1084,-2.1191,-2.1299,-2.1143,-2.0194,-1.9434,-1.8682,-1.7588,-1.7222,-1.7084,-1.7086,-1.6571,-1.6342,-1.691,-1.5942,-1.4888,0.0,0.0,0.0,0.0,-1.2905,-1.3023,-1.3311,-1.2607,-1.1935,-1.1537,-1.1294,-1.1215,-1.1378,-1.2248,-1.3164,-1.4165,-1.5513,-1.6436,-1.6853,-1.7047,-1.675,-1.5956,-1.5394,-1.4741,-1.4001,-1.4067,-1.4088,-1.4088,-1.4088,-1.4088,-1.4088,-1.4088,-1.4088,-1.4088,-1.4088,-1.4088,-1.4088,-1.4088,-1.4088,-1.4088,-1.4088,-1.4088,-1.4088,-1.8555,-1.9962,-2.1543,-2.2435,-2.2259,-2.2309,-2.3233,-2.4556,-2.5875,-2.7118,-2.7971,-2.8699,-2.9352,-2.9641,-2.9792,-2.9792,-2.9792,-2.9578,-2.9089,-2.8925,-2.8762,-2.8574,-2.7908,-2.7111,-2.62,-2.4842,-2.2681,-1.9739,-1.8514,-1.7005,-1.5283,0.0,0.0,0.0,0.0,-1.8422,-2.0459,-2.2595,-2.415,-2.5046,-2.3647,-2.3091,0.0,-2.3091,-2.3091,-2.3033,-2.2607,-2.2432,-2.2402,-2.2217,-2.2158,-2.2129,-2.1943,-2.1719,-2.1562,-2.1816,-2.1709,-2.1572,-2.1816,-2.1885,-2.1768,-2.131,-2.0635,-1.9912,-1.9043,-1.8402,-1.7912,-1.7596,-1.6804,-1.6315,-1.6721,-1.5404,-1.4056,-1.3422,0.0,0.0,-1.2886,-1.2905,-1.2993,-1.3203,-1.2127,-1.1268,-1.0989,-1.0711,-1.0516,-1.0432,-1.1526,-1.2547,-1.3351,-1.5119,-1.6019,-1.5823,-1.634,-1.6211,-1.5424,-1.4896,-1.4391,-1.4036,-1.4082,-1.4088,-1.4088,-1.4088,-1.4088,-1.4088,-1.4088,-1.4088,-1.4088,-1.4088,-1.4088,-1.4088,-1.4088,-1.4088,-1.4088,-1.4088,-1.4088,-1.4088,-2.0413,-2.2004,-2.3584,-2.4117,-2.4795,-2.5239,-2.5314,-2.6452,-2.7392,-2.7582,-2.8511,-2.9139,-2.9201,-2.9641,-2.9892,-2.9892,-2.9829,-2.9377,-2.8398,-2.9252,-2.9352,-2.8373,-2.8787,-2.8112,-2.6143,-2.6239,-2.3948,-1.9062,-1.9286,-1.7881,-1.5053,0.0,0.0,0.0,0.0,0.0,-2.1005,-2.298,-2.447,-2.5344,-2.376,-2.3091,-2.3091,-2.3091,-2.3091,-2.3091,-2.3091,-2.3091,-2.3042,-2.2715,-2.2598,-2.2529,-2.2168,-2.2012,-2.1982,-2.2031,-2.2012,-2.1982,-2.2031,-2.2051,-2.2031,-2.1982,-2.168,-2.1132,-2.0283,-1.957,-1.8872,-1.8022,-1.6923,-1.6248,-1.6696,-1.4874,-1.3081,-1.2452,-1.2272,-1.2401,-1.289,-1.2904,-1.2856,-1.2914,-1.1715,0.0,-1.0384,-1.014,-0.9875,-0.9562,-1.0864,-1.2004,-1.2756,-1.4685,-1.5472,-1.4818,-1.5793,-1.5939,-1.5095,-1.4751,-1.4552,-1.4487,-1.4221,-1.4088,-1.4088,-1.4088,-1.4088,-1.4088,-1.4088,-1.4088,-1.4088,-1.4088,-1.4088,-1.4088,-1.4088,-1.4088,-1.4088,-1.4088,-1.4088,-1.4088,-2.31,-2.4293,-2.5197,-2.5297,-2.654,-2.7682,-2.8098,-2.7682,-2.7783,-2.9176,-2.9917,-3.0482,-3.0909,-3.067,-3.047,-3.047,-3.0055,-2.9716,-2.9515,-2.9679,-2.9704,-2.9503,-2.9591,-2.901,-2.7714,-2.6089,-2.3537,-2.0037,-1.8066,-1.5964,-1.3816,0.0,0.0,0.0,0.0,0.0,-2.1836,-2.2495,-2.3595,-2.4829,-2.3596,-2.3091,-2.3091,-2.3091,-2.3091,-2.3091,-2.3091,-2.3091,-2.3081,-2.3013,-2.2984,-2.2974,-2.2896,-2.2643,-2.2471,-2.2779,-2.2676,-2.248,-2.2779,-2.2877,-2.2789,-2.249,-2.2344,-2.2019,-2.1161,-1.9542,-1.8331,-1.8703,-1.6485,-1.486,-1.5939,-1.4765,-1.3397,-1.28,-1.2208,-1.2144,-1.3173,-1.2868,-1.2681,-1.3038,-1.207,-1.1023,-1.0163,-0.9456,-0.8931,-0.8651,-1.0092,-1.1353,-1.2195,-1.338,-1.4405,-1.5163,-1.5092,-1.4822,-1.4364,-1.453,-1.4324,-1.3764,-1.4005,-1.4088,-1.4088,-1.4088,-1.4088,-1.4088,-1.4088,-1.4088,-1.4088,-1.4088,-1.4088,-1.4088,-1.4088,-1.4088,-1.4088,-1.4088,-1.4088,-1.4088,-2.5536,-2.6352,-2.6992,-2.7268,-2.8247,-2.9164,-2.9716,-2.9578,-2.9616,-3.0143,-3.0457,-3.0708,-3.0959,-3.0997,-3.1022,-3.1022,-3.0771,-3.062,-3.062,-3.0369,-3.0218,-3.0218,-2.9942,-2.9287,-2.8124,-2.7403,-2.5266,-2.1666,-1.9594,-1.7453,-1.5268,-1.3671,0.0,-1.5637,0.0,-1.9396,-2.2253,-2.2418,-2.3082,-2.3956,-2.3363,-2.3091,-2.3091,-2.3091,-2.3091,-2.3091,-2.3091,-2.3091,-2.3091,-2.3091,-2.3091,-2.3091,-2.3091,-2.2955,-2.2838,-2.3033,-2.2955,-2.2838,-2.3042,-2.3091,-2.3042,-2.2847,-2.2676,-2.2402,-2.1992,-2.0746,-1.9425,-1.865,-1.7023,-1.5509,-1.4695,-1.3572,-1.2754,-1.2655,-1.2089,-1.1907,-1.2622,-1.249,-1.2267,-1.217,0.0,-1.0626,-0.9973,-0.9237,-0.8721,-0.8578,-0.963,-1.0591,-1.128,-1.2425,-1.3237,-1.3591,-1.3825,-1.3815,-1.3492,-1.3733,-1.3779,-1.3606,-1.3948,-1.4088,-1.4088,-1.4088,-1.4088,-1.4088,-1.4088,-1.4088,-1.4088,-1.4088,-1.4088,-1.4088,-1.4088,-1.4182,-1.4295,-1.4142,-1.4182,-1.4289,-2.7519,-2.8072,-2.8599,-2.9038,-2.9679,-3.0281,-3.0721,-3.1336,-3.1549,-3.1022,-3.0959,-3.1009,-3.1122,-3.1386,-3.1562,-3.1562,-3.1461,-3.1386,-3.1386,-3.1009,-3.0733,-3.058,-3.0193,-2.9398,-2.8136,-2.8437,-2.6722,-2.2939,-2.1289,-1.9338,-1.7172,-1.4517,-1.4374,-1.6457,-1.8924,-2.0888,-2.2283,-2.252,-2.2962,-2.343,-2.3189,-2.3091,-2.3091,-2.3091,-2.3091,-2.3091,-2.3091,-2.3091,-2.3091,-2.3091,-2.3091,-2.3091,-2.3091,-2.3091,-2.3091,-2.3091,-2.3091,-2.3091,-2.3091,-2.3091,-2.3091,-2.3091,-2.2847,-2.2598,-2.2422,-2.1639,-2.0389,-1.8294,-1.7211,-1.5917,-1.3625,-1.2679,-1.2301,-1.2371,-1.197,-1.1755,-1.2069,-1.2063,-1.1903,-1.1625,-1.0915,-1.0312,-0.9974,-0.919,-0.8696,-0.8635,-0.936,-1.0048,-1.0629,-1.159,-1.2071,-1.1971,-1.2501,-1.2771,-1.2683,-1.3026,-1.3387,-1.37,-1.3975,-1.4088,-1.4088,-1.4088,-1.4088,-1.4088,-1.4088,-1.4088,-1.4088,-1.4088,-1.4088,-1.4095,-1.4155,-1.4315,-1.4496,-1.4335,-1.4416,-1.4583,-2.8624,-2.9239,-2.9654,-2.9704,-3.0557,-3.126,-3.1311,-3.2227,-3.2717,-3.2139,-3.2064,-3.2265,-3.2792,-3.2416,-3.2139,-3.2139,-3.1675,-3.1386,-3.1386,-3.1348,-3.111,-3.0633,-3.057,-2.9742,-2.8148,-2.7792,-2.6151,-2.3058,-2.1213,-1.9482,-1.787,-1.5636,-1.5153,-1.6247,-1.8984,-2.0685,-2.1568,-2.2606,-2.34,-2.3878,-2.3328,-2.3091,-2.3091,-2.3091,-2.3091,-2.3091,-2.3091,-2.3091,-2.3091,-2.3091,-2.3091,-2.3091,-2.3091,-2.3091,-2.3091,-2.3091,-2.3091,-2.3091,-2.3091,-2.3091,-2.3091,-2.3091,-2.3062,-2.2838,-2.2119,-2.108,-1.9734,-1.7769,-1.5775,-1.4151,-1.336,-1.332,-1.3113,-1.2112,-1.1918,-1.195,-1.2153,-1.1969,-1.1988,-1.2423,-1.15,-1.0725,-1.0454,-0.9231,-0.844,-0.843,-0.9271,-1.0102,-1.0826,-1.0647,-1.0923,-1.1787,-1.1441,-1.1586,-1.2338,-1.2919,-1.3494,-1.4048,-1.4075,-1.4088,-1.4088,-1.4088,-1.4088,-1.4088,-1.4088,-1.4088,-1.4088,-1.4088,-1.4088,-1.4115,-1.4376,-1.4496,-1.4549,-1.479,-1.4941,-1.4961,-3.0369,-3.0344,-3.0482,-3.1135,-3.1323,-3.1612,-3.2303,-3.2792,-3.2993,-3.2767,-3.2729,-3.2817,-3.3056,-3.2867,-3.2729,-3.2729,-3.2528,-3.2403,-3.2403,-3.2077,-3.1788,-3.1587,-3.0959,-3.0296,-2.9598,-2.9108,-2.7973,-2.6094,-2.3374,-2.1574,-2.0642,-1.7416,-1.6813,-1.8453,-2.0292,-2.1455,-2.2088,-2.2554,-2.288,-2.308,-2.3099,-2.3091,-2.3091,-2.3091,-2.3091,-2.3091,-2.3091,-2.3091,-2.3091,-2.3091,-2.3091,-2.3091,-2.3091,-2.3091,-2.3091,-2.3091,-2.3091,-2.3091,-2.3091,-2.3091,-2.3091,-2.3091,-2.3091,-2.2945,-2.2402,-2.1707,-2.0754,-1.905,-1.6743,-1.4774,-1.3898,-1.3394,-1.3013,-1.2719,-1.2254,-1.1925,-1.2019,-1.1753,-1.1693,-1.2073,-1.1319,-1.0854,-1.1078,-1.0117,-0.9692,-1.0218,-0.9824,-0.975,-1.0207,-1.0429,-1.081,-1.136,-1.1293,-1.159,-1.2291,-1.2906,-1.3507,-1.4088,-1.4088,-1.4088,-1.4088,-1.4088,-1.4088,-1.4088,-1.4088,-1.4088,-1.4088,-1.4088,-1.4188,-1.4355,-1.4476,-1.4736,-1.5037,-1.5028,-1.5122,-1.5224,-3.1599,-3.1336,-3.1373,-3.2303,-3.2139,-3.2152,-3.2998,-3.3124,-3.3124,-3.3124,-3.3124,-3.3124,-3.3124,-3.3124,-3.3124,-3.3124,-3.3124,-3.3124,-3.3124,-3.2692,-3.239,-3.2227,-3.1486,-3.1009,-3.0846,-2.9965,-2.922,-2.8599,-2.5051,-2.3241,-2.3093,-1.9589,-1.8751,-2.0155,-2.1253,-2.2046,-2.2513,-2.2626,-2.2695,-2.2682,-2.2974,-2.3091,-2.3091,-2.3091,-2.3091,-2.3091,-2.3091,-2.3091,-2.3091,-2.3091,-2.3091,-2.3091,-2.3091,-2.3091,-2.3091,-2.3091,-2.3091,-2.3091,-2.3091,-2.3091,-2.3091,-2.3091,-2.3091,-2.2984,-2.2607,-2.2187,-2.1421,-1.9774,-1.7458,-1.5462,-1.4692,-1.3804,-1.3166,-1.308,-1.2619,-1.2147,-1.1705,-1.1503,-1.1536,-1.1935,-1.1225,-1.091,-1.1452,-1.0628,-1.0256,-1.0669,-1.0119,-1.0034,-1.0582,-1.0584,-1.0804,-1.1285,-1.1357,-1.1703,-1.2291,-1.2993,-1.3587,-1.4088,-1.4088,-1.4088,-1.4088,-1.4088,-1.4088,-1.4088,-1.4088,-1.4135,-1.4215,-1.4215,-1.4389,-1.4663,-1.4743,-1.503,-1.5384,-1.5264,-1.5351,-1.5524,-3.2102,-3.2202,-3.2378,-3.2968,-3.3056,-3.3056,-3.3124,-3.3124,-3.3124,-3.3124,-3.3124,-3.3124,-3.3124,-3.3124,-3.3124,-3.3124,-3.3124,-3.3124,-3.3124,-3.3111,-3.2805,-3.224,-3.2202,-3.1938,-3.1386,-2.9772,-2.9209,-2.9779,-2.556,-2.3919,-2.4732,-2.2157,-2.0815,-2.0625,-2.1515,-2.21,-2.2519,-2.2906,-2.3091,-2.3091,-2.3091,-2.3091,-2.3091,-2.3091,-2.3091,-2.3091,-2.3091,-2.3091,-2.3091,-2.3091,-2.3091,-2.3091,-2.3091,-2.3091,-2.3091,-2.3091,-2.3091,-2.3091,-2.3091,-2.3091,-2.3091,-2.3091,-2.3091,-2.2984,-2.2607,-2.2187,-2.1344,-1.9417,-1.7253,-1.5696,-1.5696,-1.4803,-1.3781,-1.2931,-1.3038,-1.2679,-1.1209,-1.1243,-1.1652,-1.2317,-1.1406,-1.091,-1.1452,-1.0465,-0.9536,-0.8883,-0.9986,-1.1235,-1.2497,-1.1141,-1.0763,-1.1765,-1.1534,-1.1703,-1.2291,-1.3154,-1.3788,-1.4088,-1.4088,-1.4088,-1.4088,-1.4088,-1.4088,-1.4088,-1.4088,-1.4249,-1.4516,-1.4516,-1.4689,-1.5028,-1.5277,-1.5391,-1.5431,-1.5712,-1.5771,-1.5778,-3.3257,-3.3357,-3.3533,-3.4098,-3.4198,-3.4198,-3.4198,-3.3884,-3.3633,-3.3633,-3.3307,-3.3124,-3.3124,-3.3124,-3.3124,-3.3124,-3.3124,-3.3124,-3.3124,-3.3124,-3.2993,-3.2805,-3.2416,-3.2127,-3.1951,-3.0247,-2.9319,-2.9181,-2.5964,-2.3854,-2.2816,-2.2282,-2.1963,-2.1914,-2.249,-2.2769,-2.2906,-2.3042,-2.3091,-2.3091,-2.3091,-2.3091,-2.3091,-2.3091,-2.3091,-2.3091,-2.3091,-2.3091,-2.3091,-2.3091,-2.3091,-2.3091,-2.3091,-2.3091,-2.3091,-2.3091,-2.3091,-2.3091,-2.3091,-2.3091,-2.3091,-2.3091,-2.3091,-2.2984,-2.2607,-2.1383,-2.0172,-1.953,-1.7417,-1.5696,-1.5696,-1.4641,-1.3627,-1.314,-1.3005,-1.263,-1.1745,-1.1496,-1.1605,-1.2201,-1.1488,-1.1259,-1.2049,-1.1239,-1.0742,-1.0888,-1.0731,-1.0747,-1.1024,-1.1301,-1.1425,-1.1315,-1.1764,-1.2111,-1.2298,-1.3154,-1.3753,-1.4088,-1.4088,-1.4088,-1.4088,-1.4088,-1.4088,-1.4095,-1.4295,-1.4436,-1.4536,-1.4736,-1.4997,-1.5264,-1.5357,-1.5518,-1.5705,-1.5751,-1.5784,-1.5784,-3.4135,-3.4211,-3.4324,-3.4618,-3.468,-3.468,-3.468,-3.4424,-3.4211,-3.4211,-3.3909,-3.3621,-3.3407,-3.3382,-3.3307,-3.3136,-3.3124,-3.3124,-3.3124,-3.3124,-3.3124,-3.3124,-3.2729,-3.2541,-3.2541,-3.0846,-2.9796,-2.9463,-2.6647,-2.4364,-2.2607,-2.2871,-2.29,-2.2754,-2.2974,-2.3091,-2.3091,-2.3091,-2.3091,-2.3091,-2.3091,-2.3091,-2.3091,-2.3091,-2.3091,-2.3091,-2.3091,-2.3091,-2.3091,-2.3091,-2.3091,-2.3091,-2.3091,-2.3091,-2.3091,-2.3091,-2.3091,-2.3091,-2.3091,-2.3091,-2.3091,-2.3091,-2.3091,-2.2897,-2.2021,-2.0516,-1.9216,-1.8979,-1.7266,-1.5804,-1.5726,-1.4655,-1.3681,-1.3273,-1.3046,-1.2677,-1.1817,-1.1543,-1.1491,-1.177,-1.1484,-1.1451,-1.1864,-1.1625,-1.1465,-1.1554,-1.1277,-1.099,-1.0729,-1.1314,-1.1767,-1.1973,-1.2316,-1.2579,-1.2806,-1.3433,-1.3901,-1.4088,-1.4088,-1.4142,-1.4249,-1.4135,-1.4208,-1.4422,-1.4489,-1.4643,-1.4863,-1.505,-1.5297,-1.5558,-1.5558,-1.5671,-1.5784,-1.5784,-1.5784,-1.5784,-3.4731,-3.4776,-3.4788,-3.4826,-3.4839,-3.4839,-3.4839,-3.4756,-3.4776,-3.4776,-3.4705,-3.4525,-3.401,-3.396,-3.3746,-3.3232,-3.3162,-3.3124,-3.3124,-3.3124,-3.3124,-3.3124,-3.3124,-3.3124,-3.3124,-3.149,-3.0541,-3.0308,-2.739,-2.5278,-2.3963,-2.3873,-2.3613,-2.3179,-2.3179,-2.3179,-2.3179,-2.3179,-2.3179,-2.3179,-2.3179,-2.3179,-2.3179,-2.3179,-2.3179,-2.3179,-2.3179,-2.3169,-2.314,-2.314,-2.312,-2.3091,-2.3091,-2.3091,-2.3091,-2.3091,-2.3091,-2.3091,-2.3091,-2.3091,-2.3091,-2.3091,-2.3047,-2.2581,-2.106,-1.9675,-1.8534,-1.7966,-1.6858,-1.5922,-1.5744,-1.4831,-1.3895,-1.3307,-1.3213,-1.2792,-1.1555,-1.1409,-1.1362,-1.1133,-1.1392,-1.1441,-1.1142,-1.1621,-1.1684,-1.1088,-1.1544,-1.171,-1.1435,-1.1266,-1.1843,-1.3375,-1.3041,-1.3119,-1.3593,-1.3941,-1.4088,-1.4088,-1.4108,-1.4262,-1.4466,-1.4262,-1.4486,-1.4995,-1.4696,-1.489,-1.5398,-1.5418,-1.5585,-1.5784,-1.5784,-1.5784,-1.5784,-1.5784,-1.5784,-1.5784,-3.5219,-3.5307,-3.5433,-3.5906,-3.6015,-3.6015,-3.6015,-3.5617,-3.5307,-3.5307,-3.4944,-3.4675,-3.4537,-3.4525,-3.4474,-3.4349,-3.3558,-3.3124,-3.3124,-3.3124,-3.3124,-3.3124,-3.3124,-3.3124,-3.3124,-3.1743,-3.0446,-2.918,-2.6233,-2.5113,-2.5713,-2.4705,-2.4219,-2.4066,-2.4066,-2.4066,-2.4066,-2.4066,-2.4066,-2.4066,-2.4066,-2.4066,-2.4066,-2.4066,-2.4066,-2.4066,-2.4066,-2.3906,-2.3633,-2.3633,-2.3418,-2.3091,-2.3091,-2.3091,-2.3091,-2.3091,-2.3091,-2.3091,-2.3091,-2.3091,-2.3091,-2.3091,-2.2403,-2.164,-2.122,-1.9312,-1.7782,-1.8422,-1.6592,-1.5124,-1.5873,-1.4972,-1.3895,-1.3307,-1.3213,-1.2792,-1.1555,-1.1623,-1.1585,-1.1083,-1.126,-1.1417,-1.1349,-1.1464,-1.1485,-1.1323,-1.1249,-1.1363,-1.1744,-1.1736,-1.1984,-1.2572,-1.3111,-1.346,-1.36,-1.3941,-1.4088,-1.4088,-1.4309,-1.4456,-1.4522,-1.4683,-1.4874,-1.5015,-1.5124,-1.5271,-1.5418,-1.5631,-1.5718,-1.5784,-1.5784,-1.5784,-1.5784,-1.5784,-1.5784,-1.5784,-3.5855,-3.5918,-3.6006,-3.6355,-3.6405,-3.6405,-3.6405,-3.6107,-3.5918,-3.5918,-3.5655,-3.5378,-3.5082,-3.5056,-3.4956,-3.4705,-3.4173,-3.3822,-3.3822,-3.3822,-3.3721,-3.347,-3.3458,-3.3332,-3.3124,-3.2426,-3.1092,-2.906,-2.631,-2.5231,-2.5742,-2.5023,-2.4609,-2.4414,-2.4414,-2.4414,-2.4414,-2.4414,-2.4414,-2.4414,-2.4414,-2.4414,-2.4414,-2.4414,-2.4414,-2.4414,-2.4414,-2.4268,-2.4072,-2.4072,-2.3789,-2.3437,-2.3437,-2.3257,-2.3091,-2.3091,-2.3091,-2.3091,-2.3091,-2.3091,-2.3091,-2.3091,-2.1765,-2.0486,-2.0486,-1.8468,-1.6675,-1.716,-1.6019,-1.5007,-1.5317,-1.4763,-1.4048,-1.3327,-1.3213,-1.2839,-1.1777,-1.1799,-1.1785,-1.1464,-1.165,-1.1877,-1.2017,-1.2158,-1.2178,-1.2044,-1.2017,-1.2084,-1.2295,-1.2532,-1.2692,-1.2719,-1.328,-1.3666,-1.3841,-1.4008,-1.4155,-1.4282,-1.4442,-1.4663,-1.4923,-1.495,-1.511,-1.5357,-1.5384,-1.5471,-1.5605,-1.5718,-1.5784,-1.5784,-1.5784,-1.5784,-1.5784,-1.5784,-1.5784,-1.5784,-3.6405,-3.6405,-3.6405,-3.6405,-3.6405,-3.6405,-3.6405,-3.6405,-3.6405,-3.6405,-3.6405,-3.6182,-3.5671,-3.5621,-3.5433,-3.5014,-3.4977,-3.4901,-3.4726,-3.468,-3.4512,-3.4048,-3.4022,-3.3809,-3.3332,-3.2916,-3.1596,-2.9407,-2.6935,-2.5633,-2.5488,-2.5261,-2.4971,-2.4619,-2.4619,-2.4619,-2.4619,-2.4619,-2.4619,-2.4619,-2.4619,-2.4619,-2.4619,-2.4619,-2.4619,-2.4619,-2.4619,-2.457,-2.4521,-2.4521,-2.4238,-2.3887,-2.3887,-2.3633,-2.3276,-2.3208,-2.3198,-2.3179,-2.311,-2.3091,-2.3091,-2.3091,-2.14,-1.9716,-1.9542,-1.7708,-1.5994,-1.5558,-1.5424,-1.5231,-1.4689,-1.4549,-1.4193,-1.3353,-1.3213,-1.2899,-1.2033,-1.198,-1.202,-1.198,-1.2231,-1.2538,-1.2831,-1.306,-1.312,-1.2938,-1.3086,-1.3113,-1.2931,-1.3367,-1.3493,-1.328,-1.352,-1.3813,-1.4148,-1.4155,-1.4295,-1.4589,-1.4629,-1.4917,-1.5391,-1.519,-1.5364,-1.5764,-1.5571,-1.5605,-1.5784,-1.5784,-1.5784,-1.5784,-1.5784,-1.5784,-1.5784,-1.5784,-1.5784,-1.5784,-3.6405,-3.6405,-3.6405,-3.6405,-3.6405,-3.6405,-3.6405,-3.6405,-3.6405,-3.6405,-3.6405,-3.6367,-3.6292,-3.6279,-3.6254,-3.6153,-3.6153,-3.5717,-3.4776,-3.468,-3.4675,-3.46,-3.46,-3.4562,-3.4462,-3.1932,-3.0238,-2.9407,-2.6935,-2.6215,-2.7201,-2.6098,-2.5547,-2.5479,-2.5479,-2.5479,-2.5479,-2.5479,-2.5479,-2.5479,-2.5479,-2.5479,-2.5479,-2.5479,-2.5479,-2.5479,-2.5479,-2.5293,-2.4971,-2.4971,-2.4678,-2.4316,-2.4316,-2.4277,-2.415,-2.3789,-2.3691,-2.3603,-2.3198,-2.3091,-2.3091,-2.3091,-2.2031,-2.0747,-1.9716,-1.8403,-1.707,-1.5961,-1.5565,-1.5297,-1.4957,-1.4689,-1.4193,-1.3353,-1.3213,-1.2899,-1.2033,-1.2335,-1.2556,-1.2265,-1.2726,-1.3086,-1.3133,-1.318,-1.3293,-1.3447,-1.328,-1.33,-1.3453,-1.3553,-1.358,-1.354,-1.3861,-1.4162,-1.4449,-1.4449,-1.4603,-1.4941,-1.5144,-1.5311,-1.5404,-1.5605,-1.5745,-1.5778,-1.5785,-1.5738,-1.5784,-1.5784,-1.5784,-1.5784,-1.5784,-1.5784,-1.5784,-1.5784,-1.5784,-1.5784,-3.6405,-3.6405,-3.6405,-3.6405,-3.6405,-3.6405,-3.6405,-3.6405,-3.6405,-3.6405,-3.6405,-3.6405,-3.6405,-3.6405,-3.6405,-3.6405,-3.6405,-3.6191,-3.5642,-3.5604,-3.5479,-3.5132,-3.5119,-3.4636,-3.3616,-3.161,-3.0094,-2.9063,-2.7037,-2.6369,-2.6926,-2.6084,-2.5693,-2.5693,-2.5693,-2.5693,-2.5693,-2.5693,-2.5693,-2.5693,-2.5693,-2.5693,-2.5693,-2.5693,-2.5693,-2.5693,-2.5693,-2.5605,-2.543,-2.543,-2.5137,-2.4766,-2.4766,-2.4609,-2.4375,-2.418,-2.3799,-2.3398,-2.3149,-2.2633,-2.2306,-2.295,-2.1721,-2.0169,-1.9633,-1.8549,-1.7365,-1.6062,-1.5718,-1.5538,-1.5251,-1.4957,-1.4576,-1.4008,-1.352,-1.312,-1.2859,-1.2817,-1.2857,-1.296,-1.3234,-1.3507,-1.3667,-1.3681,-1.3674,-1.36,-1.3667,-1.3674,-1.36,-1.39,-1.4073,-1.4073,-1.4249,-1.4462,-1.4756,-1.4763,-1.4903,-1.5197,-1.5331,-1.5478,-1.5631,-1.5718,-1.5784,-1.5784,-1.5784,-1.5784,-1.5784,-1.5784,-1.5784,-1.5784,-1.5784,-1.5784,-1.5784,-1.5784,-1.5784,-1.5784,-3.6405,-3.6405,-3.6405,-3.6405,-3.6405,-3.6405,-3.6405,-3.6405,-3.6405,-3.6405,-3.6405,-3.6405,-3.6405,-3.6405,-3.6405,-3.6405,-3.6405,-3.6405,-3.6405,-3.6405,-3.6169,-3.5708,-3.5683,-3.4686,-3.25,-3.1584,-3.022,-2.8406,-2.7122,-2.6533,-2.6523,-2.6191,-2.5986,-2.5986,-2.5986,-2.5937,-2.584,-2.584,-2.5781,-2.5693,-2.5693,-2.5693,-2.5693,-2.5693,-2.5693,-2.5693,-2.5693,-2.5693,-2.5693,-2.5693,-2.5508,-2.5225,-2.5225,-2.499,-2.4707,-2.46,-2.3965,-2.3183,-2.2794,-2.2031,-2.148,-2.2085,-2.0854,-1.9451,-1.9131,-1.8365,-1.7365,-1.6062,-1.5784,-1.5738,-1.5451,-1.5217,-1.4923,-1.4489,-1.3854,-1.3467,-1.358,-1.3307,-1.3293,-1.374,-1.3866,-1.4041,-1.4269,-1.4289,-1.4195,-1.3926,-1.4162,-1.4195,-1.3919,-1.4376,-1.4649,-1.4723,-1.4663,-1.477,-1.5109,-1.5109,-1.5211,-1.5498,-1.5498,-1.5611,-1.5784,-1.5784,-1.5784,-1.5784,-1.5784,-1.5784,-1.5784,-1.5784,-1.5784,-1.5784,-1.5784,-1.5784,-1.5784,-1.5784,-1.5784,-1.5784,-3.6405,-3.6405,-3.6405,-3.6405,-3.6405,-3.6405,-3.6405,-3.6405,-3.6405,-3.6405,-3.6405,-3.6405,-3.6405,-3.6405,-3.6405,-3.6405,-3.6405,-3.6405,-3.6405,-3.6405,-3.6392,-3.6355,-3.6342,-3.4894,-3.1826,-3.1716,-3.0162,-2.7104,-2.7033,-2.6973,-2.6973,-2.6934,-2.6924,-2.6924,-2.6924,-2.6709,-2.6338,-2.6338,-2.6103,-2.5693,-2.5693,-2.5693,-2.5693,-2.5693,-2.5693,-2.5693,-2.5693,-2.5693,-2.5693,-2.5693,-2.5664,-2.5635,-2.5635,-2.5615,-2.5508,-2.5146,-2.4414,-2.3419,-2.1857,-2.1382,-2.1069,-2.0034,-1.9633,-1.9222,-1.8095,-1.7777,-1.7365,-1.6062,-1.5784,-1.5738,-1.5451,-1.5378,-1.509,-1.4255,-1.4068,-1.3935,-1.364,-1.3841,-1.4102,-1.4416,-1.4696,-1.4921,-1.4941,-1.4941,-1.4934,-1.4914,-1.4934,-1.4934,-1.4914,-1.4955,-1.5102,-1.5324,-1.507,-1.507,-1.5357,-1.5364,-1.5511,-1.5751,-1.5751,-1.5758,-1.5784,-1.5784,-1.5784,-1.5784,-1.5784,-1.5784,-1.5784,-1.5784,-1.5784,-1.5784,-1.5784,-1.5784,-1.5784,-1.5784,-1.5784,-1.5784,-3.6405,-3.6405,-3.6405,-3.6405,-3.6405,-3.6405,-3.6405,-3.6405,-3.6405,-3.6405,-3.6405,-3.6405,-3.6405,-3.6405,-3.6405,-3.6405,-3.6405,-3.6405,-3.6405,-3.6405,-3.6405,-3.6405,-3.6405,-3.5461,-3.3431,-3.2521,-3.107,-2.9054,-2.7944,-2.7412,-2.7412,-2.7139,-2.7012,-2.7012,-2.7012,-2.6924,-2.6777,-2.6777,-2.668,-2.6533,-2.6533,-2.6377,-2.6143,-2.6143,-2.5977,-2.5693,-2.5693,-2.5693,-2.5693,-2.5693,-2.5693,-2.5693,-2.5693,-2.5693,-2.5596,-2.5205,-2.4881,-2.4193,-2.2236,-2.0994,-2.0079,-1.9625,-1.8956,-1.828,-1.7777,-1.7692,-1.7365,-1.6062,-1.5784,-1.5751,-1.5685,-1.5518,-1.5344,-1.519,-1.471,-1.4442,-1.4696,-1.4516,-1.4462,-1.4763,-1.4941,-1.5008,-1.5008,-1.5008,-1.5008,-1.5008,-1.5008,-1.5008,-1.5008,-1.5182,-1.5364,-1.5658,-1.5558,-1.5558,-1.5665,-1.5665,-1.5718,-1.5784,-1.5784,-1.5784,-1.5784,-1.5784,-1.5784,-1.5784,-1.5784,-1.5784,-1.5784,-1.5784,-1.5784,-1.5784,-1.5784,-1.5343,-1.4704,-1.5486,-1.5289,-1.4609,-3.6405,-3.6405,-3.6405,-3.6405,-3.6405,-3.6405,-3.6405,-3.6405,-3.6405,-3.6405,-3.6405,-3.6405,-3.6405,-3.6405,-3.6405,-3.6405,-3.6405,-3.6405,-3.6405,-3.6405,-3.6405,-3.6405,-3.6405,-3.5763,-3.4434,-3.3464,-3.209,-3.0317,-2.9113,-2.8314,-2.7851,-2.7559,-2.7412,-2.7412,-2.7412,-2.7344,-2.7217,-2.7217,-2.7139,-2.7012,-2.7012,-2.6846,-2.6592,-2.6592,-2.6396,-2.6074,-2.5986,-2.5947,-2.5918,-2.5732,-2.5693,-2.5693,-2.5693,-2.5693,-2.5625,-2.5371,-2.5176,-2.4696,-2.2869,-2.1344,-2.0058,-1.9163,-1.8319,-1.7598,-1.7178,-1.7084,-1.6857,-1.5967,-1.5784,-1.5784,-1.5784,-1.5665,-1.5565,-1.5671,-1.5184,-1.4937,-1.5337,-1.505,-1.4903,-1.5204,-1.5237,-1.5237,-1.5237,-1.5237,-1.5237,-1.5237,-1.5237,-1.5237,-1.5237,-1.5424,-1.5625,-1.5771,-1.5784,-1.5784,-1.5784,-1.5784,-1.5784,-1.5784,-1.5784,-1.5784,-1.5784,-1.5784,-1.5784,-1.5784,-1.5784,-1.5784,-1.5784,-1.5784,-1.5581,-1.5194,-1.5194,-1.4411,-1.3445,-1.4704,-1.4364,-1.3343,-3.6405,-3.6405,-3.6405,-3.6405,-3.6405,-3.6405,-3.6405,-3.6405,-3.6405,-3.6405,-3.6405,-3.6405,-3.6405,-3.6405,-3.6405,-3.6405,-3.6405,-3.6405,-3.6405,-3.6405,-3.6405,-3.6405,-3.6405,-3.5775,-3.4434,-3.4385,-3.3055,-3.0317,-3.0317,-2.9608,-2.8291,-2.8291,-2.8291,-2.8291,-2.8291,-2.8057,-2.7718,-2.7718,-2.7422,-2.7021,-2.7021,-2.7021,-2.7021,-2.7021,-2.7021,-2.6963,-2.6543,-2.6396,-2.6328,-2.5889,-2.5693,-2.5693,-2.5693,-2.5693,-2.5693,-2.5693,-2.542,-2.4821,-2.3579,-2.2623,-2.1329,-1.8419,-1.7692,-1.7365,-1.6109,-1.5784,-1.5784,-1.5784,-1.5784,-1.5784,-1.5784,-1.5784,-1.5684,-1.5444,-1.5398,-1.5398,-1.5398,-1.5398,-1.5504,-1.5751,-1.5784,-1.5784,-1.5784,-1.5784,-1.5784,-1.5784,-1.5784,-1.5784,-1.5784,-1.5784,-1.5784,-1.5784,-1.5784,-1.5784,-1.5784,-1.5784,-1.5784,-1.5784,-1.5784,-1.5784,-1.5784,-1.5784,-1.5784,-1.5784,-1.5784,-1.5784,-1.5784,-1.5784,-1.5051,-1.3926,-1.3926,-1.306,-1.2042,-1.3392,-1.3054,-1.2091,-3.6405,-3.6405,-3.6405,-3.6405,-3.6405,-3.6405,-3.6405,-3.6405,-3.6405,-3.6405,-3.6405,-3.6405,-3.6405,-3.6405,-3.6405,-3.6405,-3.6405,-3.6405,-3.6405,-3.6405,-3.6405,-3.6405,-3.6405,-3.6203,-3.581,-3.4872,-3.3981,-3.3166,-3.2191,-3.103,-2.9713,-2.9713,-2.9207,-2.8291,-2.8291,-2.8223,-2.8105,-2.8105,-2.8027,-2.791,-2.791,-2.7734,-2.7471,-2.7471,-2.7285,-2.6992,-2.6875,-2.6826,-2.6807,-2.668,-2.6435,-2.6143,-2.5781,-2.5693,-2.5693,-2.5693,-2.5644,-2.5372,-2.4698,-2.4345,-2.3214,-1.9146,-1.7903,-1.7365,-1.6109,-1.5784,-1.5784,-1.5784,-1.5784,-1.5784,-1.5784,-1.5784,-1.5751,-1.5712,-1.5698,-1.5698,-1.5698,-1.5698,-1.5732,-1.5771,-1.5784,-1.5784,-1.5784,-1.5784,-1.5784,-1.5784,-1.5784,-1.5784,-1.5784,-1.5784,-1.5784,-1.5784,-1.5784,-1.5784,-1.5784,-1.5784,-1.5784,-1.5784,-1.5784,-1.5784,-1.5784,-1.5784,-1.5784,-1.5784,-1.5784,-1.5784,-1.5784,-1.5784,-1.5588,-1.514,-1.4268,-1.306,-1.195,-1.2334,-1.1702,-1.073,-3.6405,-3.6405,-3.6405,-3.6405,-3.6405,-3.6405,-3.6405,-3.6405,-3.6405,-3.6405,-3.6405,-3.6405,-3.6405,-3.6606,-3.6732,-3.6732,-3.6885,-3.701,-3.701,-3.701,-3.701,-3.701,-3.701,-3.6857,-3.6417,-3.5619,-3.4921,-3.4385,-3.2994,-3.1622,-3.0266,-2.9765,-2.9059,-2.8291,-2.8291,-2.8291,-2.8291,-2.8291,-2.8291,-2.8291,-2.8291,-2.8135,-2.792,-2.792,-2.7754,-2.75,-2.7334,-2.7275,-2.7246,-2.707,-2.6846,-2.6562,-2.6133,-2.5996,-2.5967,-2.5742,-2.5693,-2.5625,-2.541,-2.5205,-2.4307,-2.1114,-1.9478,-1.8192,-1.6423,-1.5912,-1.5784,-1.5784,-1.5784,-1.5784,-1.5784,-1.5784,-1.5784,-1.5784,-1.5784,-1.5784,-1.5784,-1.5784,-1.5784,-1.5784,-1.5784,-1.5784,-1.5784,-1.5784,-1.5784,-1.5784,-1.5784,-1.5784,-1.5784,-1.5784,-1.5784,-1.5784,-1.5784,-1.5784,-1.5784,-1.5784,-1.5784,-1.5784,-1.5784,-1.5784,-1.5784,-1.5784,-1.5784,-1.5784,-1.5784,-1.5784,-1.5784,-1.5784,-1.5486,-1.4949,-1.4214,-1.2764,-1.1214,-1.1702,-1.0779,-0.941,-3.6405,-3.6405,-3.6405,-3.6405,-3.6455,-3.648,-3.648,-3.6518,-3.6556,-3.6556,-3.6556,-3.6556,-3.6556,-3.7008,-3.7262,-3.7262,-3.7713,-3.8002,-3.8002,-3.8002,-3.8002,-3.8002,-3.8002,-3.7538,-3.6581,-3.6505,-3.5812,-3.4385,-3.3105,-3.1735,-3.0266,-2.9049,-2.8388,-2.8291,-2.8291,-2.8291,-2.8291,-2.8291,-2.8291,-2.8291,-2.8291,-2.8291,-2.8291,-2.8291,-2.8291,-2.8242,-2.7914,-2.7777,-2.7656,-2.7217,-2.707,-2.7002,-2.6572,-2.6416,-2.6309,-2.5869,-2.5713,-2.5693,-2.5693,-2.5439,-2.4879,-2.3653,-2.1852,-1.9683,-1.7092,-1.6251,-1.6001,-1.5832,-1.5784,-1.5784,-1.5784,-1.5784,-1.5784,-1.5784,-1.5784,-1.5784,-1.5784,-1.5784,-1.5784,-1.5784,-1.5784,-1.5784,-1.5784,-1.5784,-1.5784,-1.5784,-1.5784,-1.5784,-1.5784,-1.5784,-1.5784,-1.5784,-1.5784,-1.5784,-1.5784,-1.5784,-1.5784,-1.5784,-1.5784,-1.5784,-1.5784,-1.5784,-1.5784,-1.5784,-1.5784,-1.5784,-1.5784,-1.5784,-1.5099,-1.407,-1.3926,-1.2372,-1.0293,-1.1365,-1.0141,-0.8187,-3.6405,-3.6405,-3.6405,-3.6405,-3.6769,-3.7059,-3.7059,-3.7374,-3.7651,-3.7651,-3.7651,-3.7651,-3.7651,-3.7764,-3.7826,-3.7826,-3.7939,-3.8002,-3.8002,-3.8002,-3.8002,-3.8002,-3.8002,-3.7889,-3.7651,-3.7224,-3.6147,-3.4385,-3.4068,-3.2705,-3.0317,-3.0016,-2.9313,-2.8291,-2.8291,-2.8291,-2.8291,-2.8291,-2.8291,-2.8291,-2.8291,-2.8291,-2.8291,-2.8291,-2.8291,-2.8281,-2.8193,-2.8154,-2.8096,-2.7666,-2.7529,-2.7451,-2.7012,-2.665,-2.6367,-2.6279,-2.6006,-2.5693,-2.5693,-2.5615,-2.5237,-2.3919,-2.3098,-2.1756,-1.8571,-1.7831,-1.738,-1.6062,-1.5784,-1.5784,-1.5784,-1.5784,-1.5784,-1.5784,-1.5784,-1.5784,-1.5784,-1.5784,-1.5784,-1.5784,-1.5784,-1.5784,-1.5784,-1.5784,-1.5784,-1.5784,-1.5784,-1.5784,-1.5784,-1.5784,-1.5784,-1.5784,-1.5784,-1.5784,-1.5784,-1.5784,-1.5784,-1.5784,-1.5784,-1.5784,-1.5784,-1.5784,-1.5784,-1.5784,-1.5784,-1.5784,-1.5784,-1.5784,-1.5635,-1.5289,-1.4268,-1.2909,-1.1409,-1.0681,-0.941,-0.8038,-3.6857,-3.7008,-3.7061,-3.6845,-3.7211,-3.7575,-3.7575,-3.7814,-3.8002,-3.8002,-3.8002,-3.8002,-3.8002,-3.8253,-3.853,-3.8793,-3.8806,-3.8806,-3.8806,-3.8806,-3.8806,-3.8806,-3.8806,-3.868,-3.8417,-3.8128,-3.7035,-3.5061,-3.4447,-3.2996,-3.0915,-3.0028,-2.9253,-2.8584,-2.8389,-2.8291,-2.8291,-2.8291,-2.8291,-2.8291,-2.8291,-2.8291,-2.8291,-2.8291,-2.8291,-2.8291,-2.8291,-2.8291,-2.8262,-2.8037,-2.7969,-2.7891,-2.7461,-2.7178,-2.6914,-2.6514,-2.623,-2.6006,-2.5742,-2.5693,-2.5538,-2.4815,-2.4547,-2.3381,-1.9411,-1.8371,-1.7835,-1.6171,-1.5784,-1.5784,-1.5784,-1.5784,-1.5784,-1.5784,-1.5784,-1.5784,-1.5784,-1.5784,-1.5784,-1.5784,-1.5784,-1.5784,-1.5784,-1.5784,-1.5784,-1.5784,-1.5784,-1.5784,-1.5784,-1.5784,-1.5784,-1.5784,-1.5784,-1.5784,-1.5784,-1.5784,-1.5784,-1.5784,-1.5784,-1.5784,-1.5784,-1.5784,-1.5784,-1.5784,-1.5784,-1.5784,-1.5784,-1.5784,-1.5784,-1.573,-1.5045,-1.3644,-1.1799,-1.117,-0.9653,-0.7988,-3.7412,-3.7688,-3.7864,-3.74,-3.7789,-3.8153,-3.8153,-3.8228,-3.8291,-3.8291,-3.8291,-3.8291,-3.8291,-3.873,-3.9195,-3.9647,-3.9697,-3.9697,-3.9697,-3.9697,-3.9697,-3.9697,-3.9697,-3.9484,-3.907,-3.8791,-3.7719,-3.5817,-3.445,-3.3068,-3.1573,-2.9829,-2.8994,-2.8906,-2.8555,-2.8359,-2.8291,-2.8291,-2.8291,-2.8291,-2.8291,-2.8291,-2.8291,-2.8291,-2.8291,-2.8291,-2.8291,-2.8291,-2.8291,-2.8291,-2.8291,-2.8232,-2.7933,-2.7777,-2.7581,-2.6816,-2.6504,-2.6309,-2.5947,-2.5742,-2.5693,-2.5693,-2.5693,-2.4617,-2.0435,-1.9291,-1.8598,-1.6626,-1.6232,-1.6116,-1.5838,-1.5784,-1.5784,-1.5784,-1.5784,-1.5784,-1.5784,-1.5784,-1.5784,-1.5784,-1.5784,-1.5784,-1.5784,-1.5784,-1.5784,-1.5784,-1.5784,-1.5784,-1.5784,-1.5784,-1.5784,-1.5784,-1.5784,-1.5784,-1.5784,-1.5784,-1.5784,-1.5784,-1.5784,-1.5784,-1.5784,-1.5784,-1.5784,-1.5784,-1.5784,-1.5784,-1.5784,-1.5784,-1.5784,-1.5784,-1.5784,-1.4322,-1.2188,-1.175,-1.0043,-0.7988,-3.7914,-3.7952,-3.799,-3.7902,-3.8366,-3.8806,-3.8806,-3.9157,-3.9471,-3.9471,-3.9471,-3.9471,-3.9471,-3.9534,-3.9609,-3.9685,-3.9697,-3.9697,-3.9697,-3.9697,-3.9697,-3.9697,-3.9697,-3.9659,-3.9584,-3.8355,-3.7156,-3.5946,-3.4491,-3.3121,-3.1757,-3.0204,-2.9277,-2.8916,-2.8857,-2.8633,-2.8291,-2.8291,-2.8291,-2.8291,-2.8291,-2.8291,-2.8291,-2.8291,-2.8291,-2.8291,-2.8291,-2.8291,-2.8291,-2.8291,-2.8291,-2.8281,-2.8223,-2.7959,-2.7699,-2.7581,-2.6973,-2.6377,-2.6318,-2.6025,-2.5693,-2.5693,-2.5693,-2.515,-2.3066,-2.2633,-2.176,-1.8605,-1.796,-1.7497,-1.6062,-1.5784,-1.5784,-1.5784,-1.5784,-1.5784,-1.5784,-1.5784,-1.5784,-1.5784,-1.5784,-1.5784,-1.5784,-1.5784,-1.5784,-1.5784,-1.5784,-1.5784,-1.5784,-1.5784,-1.5784,-1.5784,-1.5784,-1.5784,-1.5784,-1.5784,-1.5784,-1.5784,-1.5784,-1.5784,-1.5784,-1.5784,-1.5784,-1.5784,-1.5784,-1.5784,-1.5784,-1.5784,-1.5784,-1.5784,-1.5784,-1.4902,-1.3343,-1.1068,-0.9312,-0.7988,-3.8542,-3.873,-3.8856,-3.8542,-3.8956,-3.9333,-3.9333,-3.9534,-3.9697,-3.9697,-3.9697,-3.9697,-3.9697,-3.9697,-3.9697,-3.9697,-3.9697,-3.9697,-3.9697,-3.9697,-3.9697,-3.9697,-3.9697,-3.9697,-3.9697,-3.8243,-3.7292,-3.6828,-3.4519,-3.3122,-3.2458,-3.0744,-2.9814,-2.9619,-2.9385,-2.9043,-2.8643,-2.8643,-2.8506,-2.8291,-2.8291,-2.8291,-2.8291,-2.8291,-2.8291,-2.8291,-2.8291,-2.8291,-2.8291,-2.8291,-2.8291,-2.8291,-2.8291,-2.8164,-2.7969,-2.7787,-2.7454,-2.7002,-2.6514,-2.625,-2.6045,-2.5752,-2.5693,-2.5489,-2.4783,-2.4648,-2.3708,-2.0391,-1.8954,-1.807,-1.7318,-1.6456,-1.5784,-1.5784,-1.5784,-1.5784,-1.5784,-1.5784,-1.5784,-1.5784,-1.5784,-1.5784,-1.5784,-1.5784,-1.5784,-1.5784,-1.5784,-1.5784,-1.5784,-1.5784,-1.5784,-1.5784,-1.5784,-1.5784,-1.5784,-1.5784,-1.5784,-1.5784,-1.5784,-1.5784,-1.5784,-1.5784,-1.5784,-1.5784,-1.5784,-1.5784,-1.5784,-1.5784,-1.5784,-1.573,-1.4997,-1.3488,-1.1502,-0.9604,-0.8528,-0.7988]},{"header":{"parameterUnit":"m.s-1","parameterCategory":1,"la1":30.6,"la2":28.766,"lo1":-90.7593,"lo2":-88.6598,"dy":0.0162,"dx":0.0183,"nx":116,"ny":114,"refTime":"2024-05-20T00:00:00:Z","depth":0,"parameterNumber":3,"parameterNumberName":"V-component_of_WINDS"},"data":[0.0,0.0,0.0,0.0,0.0,0.0,0.0,0.0,0.0,0.0,0.0,0.0,0.0,0.0,0.0,0.0,0.0,0.0,0.0,0.0,0.0,0.0,0.0,0.0,0.0,0.0,0.0,0.0,0.0,0.0,0.0,0.0,0.0,0.0,0.0,0.0,0.0,0.0,0.0,0.0,0.0,0.0,0.0,0.0,0.0,0.0,0.0,0.0,0.0,0.0,0.0,0.0,0.0,0.0,0.0,0.0,0.0,0.0,0.0,0.0,0.0,0.0,0.0,0.0,0.0,0.0,0.0,0.0,0.0,0.0,0.0,0.0,0.0,0.0,0.0,0.0,0.0,0.0,0.0,0.0,0.0,0.0,0.0,0.0,0.0,0.0,0.0,0.0,0.0,0.0,0.0,0.0,0.0,0.0,0.0,0.0,0.0,0.0,0.0,0.0,0.0,0.0,0.0,0.0,0.0,0.0,0.0,0.0,0.0,0.0,0.0,0.0,0.0,0.0,0.0,0.0,0.0,0.0,0.0,0.0,0.0,0.0,0.0,0.0,0.0,0.0,0.0,0.0,0.0,0.0,0.0,0.0,0.0,0.0,0.0,0.0,0.0,0.0,0.0,0.0,0.0,0.0,0.0,0.0,0.0,0.0,0.0,0.0,0.0,0.0,0.0,0.0,0.0,0.0,0.0,0.0,0.0,0.0,0.0,0.0,0.0,0.0,0.0,0.0,0.0,0.0,0.0,0.0,0.0,0.0,0.0,0.0,0.0,0.0,0.0,0.0,0.0,0.0,0.0,0.0,0.0,0.0,0.0,0.0,0.0,0.0,0.0,0.0,0.0,0.0,0.0,0.0,0.0,0.0,0.0,0.0,0.0,0.0,0.0,0.0,0.0,0.0,0.0,0.0,0.0,0.0,0.0,0.0,0.0,0.0,0.0,0.0,0.0,0.0,0.0,0.0,0.0,0.0,0.0,0.0,0.0,0.0,0.0,0.0,0.0,0.0,0.0,0.0,0.0,0.0,0.0,0.0,0.0,0.0,0.0,0.0,0.0,0.0,0.0,0.0,0.0,0.0,0.0,0.0,0.0,0.0,0.0,0.0,0.0,0.0,0.0,0.0,0.0,0.0,0.0,0.0,0.0,0.0,0.0,0.0,0.0,0.0,0.0,0.0,0.0,0.0,0.0,0.0,0.0,0.0,0.0,0.0,0.0,0.0,0.0,0.0,0.0,0.0,0.0,0.0,0.0,0.0,0.0,0.0,0.0,0.0,0.0,0.0,0.0,0.0,0.0,0.0,0.0,0.0,0.0,0.0,0.0,0.0,0.0,0.0,0.0,0.0,0.0,0.0,0.0,0.0,0.0,0.0,0.0,0.0,0.0,0.0,0.0,0.0,0.0,0.0,0.0,0.0,0.0,0.0,0.0,0.0,0.0,0.0,0.0,0.0,0.0,0.0,0.0,0.0,0.0,0.0,0.0,0.0,0.0,0.0,0.0,0.0,0.0,0.0,0.0,0.0,0.0,0.0,0.0,0.0,0.0,0.0,0.0,0.0,0.0,0.0,0.0,0.0,0.0,0.0,0.0,0.0,0.0,0.0,0.0,0.0,0.0,0.0,0.0,0.0,0.0,0.0,0.0,0.0,0.0,0.0,0.0,0.0,0.0,0.0,0.0,0.0,0.0,0.0,0.0,0.0,0.0,0.0,0.0,0.0,0.0,0.0,0.0,0.0,0.0,0.0,0.0,0.0,0.0,0.0,0.0,0.0,0.0,0.0,0.0,0.0,0.0,0.0,0.0,0.0,0.0,0.0,0.0,0.0,0.0,0.0,0.0,0.0,0.0,0.0,0.0,0.0,0.0,0.0,0.0,0.0,0.0,0.0,0.0,0.0,0.0,0.0,0.0,0.0,0.0,0.0,0.0,0.0,0.0,0.0,0.0,0.0,0.0,0.0,0.0,0.0,0.0,0.0,0.0,0.0,0.0,0.0,0.0,0.0,0.0,0.0,0.0,0.0,0.0,0.0,0.0,0.0,0.0,0.0,0.0,0.0,0.0,0.0,0.0,0.0,0.0,0.0,0.0,0.0,0.0,0.0,0.0,0.0,0.0,0.0,0.0,0.0,0.0,0.0,0.0,0.0,0.0,0.0,0.0,0.0,0.0,0.0,0.0,0.0,0.0,0.0,0.0,0.0,0.0,0.0,0.0,0.0,0.0,0.0,0.0,0.0,0.0,0.0,0.0,0.0,0.0,0.0,0.0,0.0,0.0,0.0,0.0,0.0,0.0,0.0,0.0,0.0,0.0,0.0,0.0,0.0,0.0,0.0,0.0,0.0,0.0,0.0,0.0,0.0,0.0,0.0,0.0,0.0,0.0,0.0,0.0,0.0,0.0,0.0,0.0,0.0,0.0,0.0,0.0,0.0,0.0,0.0,0.0,0.0,0.0,0.0,0.0,0.0,0.0,0.0,0.0,0.0,0.0,0.0,0.0,0.0,0.0,0.0,0.0,0.0,0.0,0.0,0.0,0.0,0.0,0.0,0.0,0.0,0.0,0.0,0.0,0.0,0.0,0.0,0.0,0.0,0.0,0.0,0.0,0.0,0.0,0.0,0.0,0.0,0.0,0.0,0.0,0.0,0.0,0.0,0.0,0.0,0.0,0.0,0.0,0.0,0.0,0.0,0.0,0.0,0.0,0.0,0.0,0.0,0.0,0.0,0.0,0.0,0.0,0.0,0.0,0.0,0.0,0.0,0.0,0.0,0.0,0.0,0.0,0.0,0.0,0.0,0.0,0.0,0.0,0.0,0.0,0.0,0.0,0.0,0.0,0.0,0.0,0.0,0.0,0.0,0.0,0.0,0.0,0.0,0.0,0.0,0.0,0.0,0.0,0.0,0.0,0.0,0.0,0.0,0.0,0.0,0.0,0.0,0.0,0.0,0.0,0.0,0.0,0.0,0.0,0.0,0.0,0.0,0.0,0.0,0.0,0.0,0.0,0.0,0.0,0.0,0.0,0.0,0.0,0.0,0.0,0.0,0.0,0.0,0.0,0.0,0.0,0.0,0.0,0.0,0.0,0.0,0.0,0.0,0.0,0.0,0.0,0.0,0.0,0.0,0.0,0.0,0.0,0.0,0.0,0.0,0.0,0.0,0.0,0.0,0.0,0.0,0.0,0.0,0.0,0.0,0.0,0.0,0.0,0.0,0.0,0.0,0.0,0.0,0.0,0.0,0.0,0.0,0.0,0.0,0.0,0.0,0.0,0.0,0.0,0.0,0.0,0.0,0.0,0.0,0.0,0.0,0.0,0.0,0.0,0.0,0.0,0.0,0.0,0.0,0.0,0.0,0.0,0.0,0.0,0.0,0.0,0.0,0.0,0.0,0.0,0.0,0.0,0.0,0.0,0.0,0.0,0.0,0.0,0.0,0.0,0.0,0.0,0.0,0.0,0.0,0.0,0.0,0.0,0.0,0.0,0.0,0.0,0.0,0.0,0.0,0.0,0.0,0.0,0.0,0.0,0.0,0.0,0.0,0.0,0.0,0.0,0.0,0.0,0.0,0.0,0.0,0.0,0.0,0.0,0.0,0.0,0.0,0.0,0.0,0.0,0.0,0.0,0.0,0.0,0.0,0.0,0.0,0.0,0.0,0.0,0.0,0.0,0.0,0.0,0.0,0.0,0.0,0.0,0.0,0.0,0.0,0.0,0.0,0.0,0.0,0.0,0.0,0.0,0.0,0.0,0.0,0.0,0.0,0.0,0.0,0.0,0.0,0.0,0.0,0.0,0.0,0.0,0.0,0.0,0.0,0.0,0.0,0.0,0.0,0.0,0.0,0.0,0.0,0.0,0.0,0.0,0.0,0.0,0.0,0.0,0.0,0.0,0.0,0.0,0.0,0.0,0.0,0.0,0.0,0.0,0.0,0.0,0.0,0.0,0.0,0.0,0.0,0.0,0.0,0.0,0.0,0.0,0.0,0.0,0.0,0.0,0.0,0.0,0.0,0.0,0.0,0.0,0.0,0.0,0.0,0.0,0.0,0.0,0.0,0.0,0.0,0.0,0.0,0.0,0.0,0.0,0.0,0.0,0.0,0.0,0.0,0.0,0.0,0.0,0.0,0.0,0.0,0.0,0.0,0.0,0.0,0.0,0.0,0.0,0.0,0.0,0.0,0.0,0.0,0.0,0.0,0.0,0.0,0.0,0.0,0.0,0.0,0.0,0.0,0.0,0.0,0.0,0.0,0.0,0.0,0.0,0.0,0.0,0.0,0.0,0.0,0.0,0.0,0.0,0.0,0.0,0.0,0.0,0.0,0.0,0.0,0.0,0.0,0.0,0.0,0.0,0.0,0.0,0.0,0.0,0.0,0.0,0.0,0.0,0.0,0.0,0.0,0.0,0.0,0.0,0.0,0.0,0.0,0.0,0.0,0.0,0.0,0.0,0.0,0.0,0.0,0.0,0.0,0.0,0.0,0.0,0.0,0.0,0.0,0.0,0.0,0.0,0.0,0.0,0.0,0.0,0.0,0.0,0.0,0.0,0.0,0.0,0.0,0.0,0.0,0.0,0.0,0.0,0.0,0.0,0.0,0.0,0.0,0.0,0.0,0.0,0.0,0.0,0.0,0.0,0.0,0.0,0.0,0.0,0.0,0.0,0.0,0.0,0.0,0.0,0.0,0.0,0.0,0.0,0.0,0.0,0.0,0.0,0.0,0.0,0.0,0.0,0.0,0.0,0.0,0.0,0.0,0.0,0.0,0.0,0.0,0.0,0.0,0.0,0.0,0.0,0.0,0.0,0.0,0.0,0.0,0.0,0.0,0.0,0.0,0.0,0.0,0.0,0.0,0.0,0.0,0.0,0.0,0.0,0.0,0.0,0.0,0.0,0.0,0.0,0.0,0.0,0.0,0.0,0.0,0.0,0.0,0.0,0.0,0.0,0.0,0.0,0.0,0.0,0.0,0.0,0.0,0.0,0.0,0.0,0.0,0.0,0.0,0.0,0.0,0.0,0.0,0.0,0.0,0.0,0.0,0.0,0.0,0.0,0.0,0.0,0.0,0.0,0.0,0.0,0.0,0.0,0.0,0.0,0.0,0.0,0.0,0.0,0.0,0.0,0.0,0.0,0.0,0.0,0.0,0.0,0.0,0.0,0.0,0.0,0.0,0.0,0.0,0.0,0.0,0.0,0.0,0.0,0.0,0.0,0.0,0.0,0.0,0.0,0.0,0.0,0.0,0.0,0.0,0.0,0.0,0.0,0.0,0.0,0.0,0.0,0.0,0.0,0.0,0.0,0.0,0.0,0.0,0.0,0.0,0.0,0.0,0.0,0.0,0.0,0.0,0.0,0.0,0.0,0.0,0.0,0.0,0.0,0.0,0.0,0.0,0.0,0.0,0.0,0.0,0.0,0.0,0.0,0.0,0.0,0.0,0.0,0.0,0.0,0.0,0.0,0.0,0.0,0.0,0.0,0.0,0.0,0.0,0.0,0.0,0.0,0.0,0.0,0.0,0.0,0.0,0.0,0.0,0.0,0.0,0.0,0.0,0.0,0.0,0.0,0.0,0.0,0.0,0.0,0.0,0.0,0.0,0.0,0.0,0.0,0.0,0.0,0.0,0.0,0.0,0.0,0.0,0.0,0.0,0.0,0.0,0.0,0.0,0.0,0.0,0.0,0.0,0.0,0.0,0.0,0.0,0.0,0.0,0.0,0.0,0.0,0.0,0.0,0.0,0.0,0.0,0.0,0.0,0.0,0.0,0.0,0.0,0.0,0.0,0.0,0.0,0.0,0.0,0.0,0.0,0.0,0.0,0.0,0.0,0.0,0.0,0.0,0.0,0.0,0.0,0.0,0.0,0.0,0.0,0.0,0.0,0.0,0.0,0.0,0.0,0.0,0.0,0.0,0.0,0.0,0.0,0.0,0.0,0.0,0.0,0.0,0.0,0.0,0.0,0.0,0.0,0.0,0.0,0.0,0.0,0.0,0.0,0.0,0.0,0.0,0.0,0.0,0.0,0.0,0.0,0.0,0.0,0.0,0.0,0.0,0.0,0.0,0.0,0.0,0.0,0.0,0.0,0.0,0.0,0.0,0.0,0.0,0.0,0.0,0.0,0.0,0.0,1.5015,1.4167,0.0,0.0,0.0,0.0,0.0,0.0,0.0,0.0,0.0,0.0,0.0,0.0,0.0,0.0,0.0,0.0,0.0,0.0,0.0,0.0,0.0,0.0,0.0,0.8784,0.8738,0.8672,0.8812,0.8875,0.8812,0.0,0.0,0.0,0.0,0.0,0.9054,0.9119,0.94,0.9932,1.031,1.0896,1.1647,1.14,1.1064,1.0671,0.0,0.0,0.0,0.0,0.0,0.0,0.0,0.0,0.0,0.0,0.0,0.0,0.0,0.0,0.0,0.0,0.0,0.0,0.0,0.0,0.0,0.0,0.0,0.0,0.0,0.0,0.0,0.0,0.0,0.0,0.0,0.0,0.0,0.0,0.0,0.0,0.0,0.0,0.0,0.0,0.0,0.0,0.0,0.0,0.0,0.0,0.0,0.0,0.0,0.0,0.0,0.0,0.0,0.0,0.0,0.0,0.0,0.0,0.0,0.0,0.0,0.0,0.0,0.0,0.0,0.0,0.0,0.0,0.0,0.0,1.8017,1.7224,0.0,0.0,0.0,0.0,0.0,0.0,0.0,0.0,0.0,0.0,0.0,0.0,0.0,0.0,0.0,0.0,0.0,0.0,0.0,0.0,0.0,0.8515,0.879,0.8669,0.862,0.8741,0.8941,0.9,0.8862,0.8978,0.0,0.0,0.0,0.8964,0.8912,0.9015,0.962,1.0744,1.1082,1.2066,1.3604,1.3604,1.3166,1.2373,1.2252,0.0,0.0,0.0,0.0,0.0,0.0,0.0,0.0,0.0,0.0,0.0,0.0,0.0,0.0,0.0,0.0,0.0,0.0,0.0,0.0,0.0,0.0,0.0,0.0,0.0,0.0,0.0,0.0,0.0,0.0,0.0,0.0,0.0,0.0,0.0,0.0,0.0,0.0,0.0,0.0,0.0,0.0,0.0,0.0,0.0,0.0,0.0,0.0,0.0,0.0,0.0,0.0,0.0,0.0,0.0,0.0,0.0,0.0,0.0,0.0,0.0,0.0,0.0,2.1824,2.2245,2.2898,2.2918,2.3322,2.3889,2.1531,2.1104,2.1884,1.9673,0.0,0.0,0.0,0.0,0.0,0.0,0.0,0.0,0.0,0.0,0.0,0.0,0.0,0.0,0.0,0.0,0.0,0.0,0.0,0.8633,0.9233,0.9276,0.9509,1.0089,1.0363,1.0229,0.9536,0.961,0.0,0.0,0.8569,0.876,0.9317,0.9338,0.9984,1.1289,1.3042,1.4624,1.6041,1.6041,1.5971,1.5771,1.4169,1.3917,1.4601,0.0,0.0,0.0,0.0,0.0,0.0,0.0,0.0,0.0,0.0,0.0,0.0,0.0,0.0,0.0,0.0,0.0,0.0,0.0,0.0,0.0,0.0,0.0,0.0,0.0,0.0,0.0,0.0,0.0,0.0,0.0,0.0,0.0,0.0,0.0,0.0,0.0,0.0,0.0,0.0,0.0,1.527,1.6022,0.0,0.0,0.0,0.0,0.0,0.0,0.0,0.0,0.0,0.0,0.0,0.0,0.0,2.1579,2.2398,2.3787,2.4587,2.4808,2.5516,2.5892,2.6013,2.6191,2.633,2.6422,2.6225,0.0,2.3457,2.2594,0.0,0.0,0.0,0.0,0.0,0.0,0.0,0.0,0.0,0.0,0.0,0.0,0.0,0.0,0.0,0.0,0.0,0.0,0.0,0.0,0.0,0.9806,1.0314,1.0605,1.1175,1.1293,1.0712,1.0334,0.9883,0.9336,0.9089,0.9044,0.9218,0.9967,1.1189,1.2861,1.4543,1.5949,1.706,1.706,1.7311,1.7767,1.6926,1.6045,1.5166,1.4829,0.0,0.0,0.0,0.0,0.0,0.0,0.0,0.0,0.0,0.0,0.0,0.0,0.0,0.0,0.0,0.0,0.0,0.0,0.0,0.0,0.0,0.0,0.0,0.0,0.0,0.0,0.0,0.0,0.0,0.0,0.0,0.0,0.0,0.0,0.0,0.0,0.0,0.0,0.0,1.4848,1.687,1.7557,1.8524,1.866,0.0,0.0,0.0,0.0,0.0,0.0,0.0,0.0,0.0,2.2602,2.3425,2.4311,2.5357,2.6461,2.7383,2.811,2.8448,2.887,2.9304,2.9388,2.9426,2.9437,2.9683,2.8933,2.7407,2.5448,2.4212,2.3409,0.0,0.0,0.0,0.0,2.1612,2.1122,0.0,0.0,0.0,0.0,0.0,0.0,0.0,0.0,0.0,0.0,0.0,0.0,0.96,1.0569,1.1351,1.1783,1.2473,1.2694,1.2199,1.1338,1.0644,1.0154,0.9655,0.9472,0.9643,1.1145,1.2785,1.4541,1.5765,1.6874,1.7851,1.7851,1.8282,1.903,1.9137,1.8168,1.643,1.6516,1.5626,0.0,0.0,0.0,0.0,0.0,0.0,0.0,0.0,0.0,0.0,0.0,0.0,0.0,0.0,0.0,0.0,0.0,0.0,0.0,0.0,0.0,0.0,0.0,0.0,0.0,0.0,0.0,0.0,0.0,0.0,0.0,0.0,0.0,0.0,0.0,0.0,0.0,0.0,1.6317,1.8192,1.8961,1.9755,1.9903,0.0,0.0,0.0,0.0,0.0,0.0,2.1726,2.2071,2.3202,2.5332,2.5983,2.6831,2.7932,2.8483,2.9296,3.0355,3.0355,3.0678,3.1258,3.1347,3.1347,3.1252,3.1572,3.1336,3.0557,2.8214,2.6706,2.5787,2.4993,2.3883,2.2937,2.4644,2.4508,2.3853,0.0,0.0,0.0,0.0,0.0,0.0,0.0,0.0,0.0,0.0,0.0,0.9132,1.0987,1.1814,1.286,1.447,1.4864,1.4744,0.0,1.2796,1.1788,1.1079,0.9982,0.9925,1.1079,1.3093,1.4741,1.5981,1.6706,1.7651,1.8829,1.8829,1.9123,1.9674,2.0051,2.0147,1.9939,1.844,1.7706,1.7357,0.0,0.0,0.0,0.0,0.0,0.0,0.0,0.0,0.0,0.0,0.0,0.0,0.0,0.0,0.0,0.0,0.0,0.0,0.0,0.0,0.0,0.0,0.0,0.0,0.0,0.0,0.0,0.0,0.0,0.0,0.0,0.0,0.0,0.0,0.0,0.0,0.0,0.0,0.0,2.073,2.1468,0.0,0.0,0.0,0.0,2.0255,2.2337,2.3963,2.4742,2.5757,2.7032,2.8596,2.8684,2.912,2.9945,2.998,3.0279,3.077,3.077,3.0788,3.0838,3.1232,3.1193,3.0838,3.1258,3.1403,3.133,3.084,2.9699,2.8214,2.8177,2.7648,2.6919,2.7035,2.7016,2.6976,0.0,0.0,0.0,0.0,0.0,0.8604,0.8325,0.8185,0.8043,0.7902,0.8867,0.9908,1.0801,1.2511,1.4121,1.5458,1.5652,1.5623,1.5406,1.3633,1.2734,1.3089,1.1798,1.1916,1.374,1.4587,1.5409,1.6233,1.6538,1.7114,1.7867,1.7867,1.8341,1.9188,1.9343,1.9592,1.9867,1.9401,1.8672,1.7732,1.6204,1.4873,0.0,0.0,0.0,0.0,0.0,0.0,0.0,0.0,0.0,0.0,0.0,0.0,0.0,0.0,0.0,0.0,0.0,0.0,0.0,0.0,0.0,0.0,0.0,0.0,0.0,0.0,0.0,0.0,0.0,0.0,0.0,0.0,0.0,0.0,0.0,0.0,0.0,2.1949,2.2991,0.0,2.3206,2.3764,2.4018,2.3733,2.495,2.6021,2.6755,2.716,2.7858,2.8922,2.942,3.0162,3.1185,3.1708,3.2177,3.2592,3.2592,3.2359,3.1894,3.2031,3.2033,3.1894,3.2049,3.2274,3.2546,3.2423,3.1683,3.0574,3.0405,2.9946,2.9436,2.9774,2.9579,2.923,0.0,0.0,0.0,0.0,0.8829,0.8683,0.8448,0.8286,0.8274,0.8506,0.9552,1.0703,1.1867,1.3609,1.5235,1.6532,1.642,1.6393,1.6621,1.4649,1.3745,1.4386,1.3361,1.3512,1.5052,1.5348,1.5794,1.6375,1.646,1.6876,1.7594,1.7594,1.8187,1.9211,1.9428,1.9701,2.0049,2.0126,1.9468,1.8256,1.7299,1.6441,1.5586,0.0,0.0,0.0,0.0,0.0,0.0,0.0,0.0,0.0,0.0,0.0,0.0,0.0,0.0,0.0,0.0,0.0,0.0,0.0,0.0,0.0,0.0,0.0,0.0,0.0,0.0,0.0,0.0,0.0,0.0,0.0,0.0,0.0,0.0,1.9484,2.1437,2.2747,2.3932,2.463,2.463,2.5309,2.5723,2.5723,2.6631,2.7491,2.8228,2.8477,2.9059,3.0076,3.0581,3.1312,3.2322,3.2855,3.3346,3.3774,3.3774,3.3494,3.3038,3.3177,3.3177,3.3055,3.3176,3.3413,3.3707,3.3707,3.3189,3.2365,3.1959,3.1415,3.0902,3.1268,3.1054,3.0723,0.0,0.0,0.0,0.8897,0.8897,0.8789,0.8444,0.8425,0.8894,1.0203,1.0423,1.1502,1.4201,1.5103,1.6151,1.7781,1.7276,1.7106,1.7633,1.586,1.4812,1.4828,1.4559,1.4591,1.4979,1.5462,1.5994,1.6525,1.6525,1.7106,1.8205,1.8205,1.8759,1.9803,2.0408,2.0681,2.0715,2.0725,2.0174,1.9207,1.8436,1.8319,1.8338,0.0,0.0,0.0,0.0,0.0,0.0,0.0,0.0,0.0,0.0,0.0,0.0,0.0,0.0,0.0,0.0,0.0,0.0,0.0,0.0,0.0,0.0,0.0,0.0,0.0,0.0,0.0,0.0,0.0,0.0,0.0,0.0,0.0,1.9151,2.0716,2.2252,2.3246,2.4327,2.4958,2.4958,2.5635,2.6089,2.6104,2.7396,2.8487,2.9272,2.985,3.0833,3.2293,3.2327,3.2679,3.344,3.344,3.3656,3.412,3.412,3.4103,3.4105,3.4493,3.4437,3.4105,3.4493,3.4658,3.4676,3.4676,3.427,3.3578,3.2881,3.2135,3.1433,3.1445,3.1458,3.147,0.0,0.0,0.9022,0.8913,0.8897,0.8789,0.8444,0.882,0.9281,0.9695,1.0886,1.2452,1.4437,1.5155,1.6199,1.7901,1.6996,1.6544,1.7089,1.5654,1.5061,1.5647,1.6554,1.6921,1.6656,1.6405,1.6572,1.7149,1.7149,1.7516,1.8198,1.8198,1.8561,1.9248,1.985,2.0331,2.073,2.1232,2.1259,2.0877,1.9473,1.8625,1.8146,0.0,0.0,0.0,0.0,0.0,0.0,0.0,0.0,0.0,0.0,0.0,0.0,0.0,0.0,0.0,0.0,0.0,0.0,0.0,0.0,0.0,0.0,0.0,0.0,0.0,0.0,0.0,0.0,0.0,0.0,0.0,1.9463,2.026,2.026,2.2236,2.3978,2.4735,2.5853,2.657,2.657,2.7238,2.7859,2.8357,2.9265,3.0285,3.1462,3.1682,3.2183,3.3064,3.3102,3.3457,3.4184,3.4201,3.4249,3.438,3.438,3.4108,3.3598,3.3707,3.3707,3.3598,3.3707,3.3953,3.4246,3.4246,3.4332,3.4323,3.3603,3.286,3.2243,3.2593,3.2894,3.3128,0.0,0.9184,0.9064,0.8925,0.8897,0.8812,0.8567,0.9021,0.9687,1.0479,1.1674,1.3158,1.5032,1.5356,1.6005,1.7469,1.6729,1.6362,1.6795,1.6054,1.5949,1.6771,1.7574,1.7785,1.7299,1.7238,1.7266,1.741,1.7637,1.8003,1.8531,1.8531,1.8825,1.9365,2.0,2.0593,2.1136,2.1538,2.186,2.1999,2.0755,1.9915,1.9347,1.8563,1.8308,1.8251,1.7587,1.7333,1.73,1.7146,0.0,0.0,0.0,0.0,0.0,0.0,0.0,0.0,0.0,0.0,0.0,0.0,0.0,0.0,0.0,0.0,0.0,0.0,0.0,0.0,0.0,0.0,0.0,0.0,2.1603,2.2359,2.2703,2.3979,2.5146,2.581,2.6779,2.7472,2.776,2.8179,2.8691,2.9381,3.0064,3.0903,3.196,3.2246,3.284,3.3825,3.3863,3.4218,3.4962,3.4962,3.4962,3.4962,3.4962,3.4742,3.4315,3.4315,3.4315,3.4315,3.4315,3.447,3.4727,3.4727,3.4671,3.4573,0.0,0.0,0.0,0.0,3.3302,3.378,0.0,0.9199,0.9068,0.8925,0.8897,0.8863,0.8723,0.9154,1.0112,1.1774,1.2527,1.3699,1.5757,1.5623,1.5783,1.6813,1.6561,1.6474,0.0,0.0,0.0,1.7863,1.796,1.7847,1.7494,1.7953,1.7994,1.7564,1.8053,1.8556,1.9096,1.9096,1.9334,1.9824,2.0497,2.1088,2.1598,2.1741,2.217,2.2664,2.2048,2.1617,2.1214,1.9974,1.9761,2.0083,1.9338,1.8772,1.8399,1.8761,0.0,0.0,0.0,0.0,0.0,0.0,0.0,0.0,0.0,0.0,0.0,0.0,0.0,0.0,0.0,0.0,0.0,0.0,0.0,0.0,0.0,0.0,0.0,0.0,2.3932,2.4842,2.57,2.5899,2.6168,2.6752,2.736,2.7989,2.8652,2.8712,2.8981,2.9666,3.0265,3.0945,3.171,3.2313,0.0,0.0,0.0,3.4945,3.5583,3.56,3.56,3.56,3.56,3.56,3.56,3.56,3.56,3.56,3.56,3.56,3.56,3.56,3.5216,3.4631,3.458,3.4181,3.3582,3.2912,3.3203,3.3848,0.0,0.9288,0.9179,0.8941,0.8897,0.8863,0.8723,0.9552,1.0473,1.1199,1.2648,1.4188,1.5683,1.5846,1.6135,1.683,1.6835,1.6813,0.0,0.0,1.8197,1.7906,1.8413,1.8667,1.8583,1.8323,1.8348,1.8682,1.8795,1.9108,1.966,1.966,1.971,1.9824,2.0497,2.087,2.104,2.2071,2.2589,2.2702,2.256,2.2144,2.1592,2.1317,2.1481,2.1745,2.1066,2.0979,2.1151,2.0684,1.9555,1.8361,1.8421,0.0,0.0,0.0,0.0,0.0,0.0,0.0,0.0,0.0,0.0,0.0,0.0,0.0,0.0,0.0,0.0,0.0,0.0,0.0,0.0,2.3951,2.4817,2.5792,2.7031,2.7679,2.8068,2.8203,2.8323,2.8667,2.9352,2.9427,2.9654,3.0283,3.0995,3.1909,3.3125,3.3828,3.4545,3.5363,3.538,3.5447,3.56,3.56,3.56,3.56,3.56,0.0,3.56,3.56,3.56,3.56,3.56,3.56,3.56,3.56,3.5515,3.5267,3.4108,3.3805,3.4,3.3824,3.4091,3.4564,0.9421,0.9349,0.9228,0.9043,0.8946,0.8869,0.8812,0.9421,1.0231,1.1134,1.2143,1.3316,1.4648,1.4673,1.4803,1.53,1.5958,0.0,0.0,1.8371,1.8733,1.8796,1.9442,1.9677,1.9407,1.9467,1.9655,1.9938,1.9582,1.9725,2.0295,1.9952,1.9798,1.9798,2.0144,2.0497,2.0845,2.1489,2.2128,2.2703,2.271,2.2683,2.2577,2.1934,2.1818,2.1911,2.1245,2.1148,2.1275,2.0817,2.016,1.9531,1.9472,1.8952,1.8129,0.0,0.0,0.0,0.0,0.0,0.0,0.0,0.0,0.0,0.0,0.0,0.0,0.0,0.0,2.276,2.4393,0.0,2.5719,2.6693,2.7197,2.7725,2.8486,2.8903,2.9086,2.9086,2.9086,2.934,2.9983,3.0043,3.0313,3.0943,3.1354,3.1986,3.305,3.3735,3.4423,3.5075,3.5447,3.56,3.56,3.56,3.56,3.56,3.56,3.56,3.56,3.56,3.56,3.56,3.56,3.56,3.56,3.56,3.56,3.5532,3.4788,3.4571,3.4567,3.3965,3.4305,3.5114,0.9538,0.9408,0.9247,0.9119,0.8995,0.8897,0.8897,0.9212,0.9889,1.112,1.1631,1.2325,1.3554,1.3464,1.3549,0.0,0.0,0.0,0.0,1.877,1.9086,1.9518,2.0292,2.0503,2.0065,2.0661,2.0955,2.0882,2.0287,2.0207,2.0597,2.0055,1.9798,1.9798,1.9798,2.0105,2.0622,2.0856,2.1571,2.2521,2.2785,2.3179,2.3475,2.2323,2.1889,2.1799,2.1122,2.0808,2.0659,2.0299,2.0177,2.0152,1.9938,1.9862,1.95,1.7715,1.7531,0.0,0.0,0.0,0.0,0.0,0.0,0.0,0.0,0.0,2.071,2.3338,2.4453,2.5596,2.7637,2.8175,2.8608,2.9548,2.9628,2.9697,3.011,2.9934,2.9925,3.0342,3.0009,3.0013,3.0642,3.0702,3.0913,3.1466,3.164,3.2035,3.2761,3.3443,3.4112,3.4759,3.5316,3.5667,3.5819,3.5819,3.5819,3.5819,3.5819,3.5752,3.56,3.56,3.56,3.56,3.56,3.56,3.56,3.56,3.56,3.56,3.56,3.5474,3.5163,3.4181,3.4621,3.5647,0.0,0.9483,0.9247,0.9119,0.8995,0.8897,0.8897,0.9292,0.9886,1.0748,1.1568,1.2377,1.3175,1.3546,1.4234,0.0,0.0,0.0,1.7942,1.8995,1.9405,1.9006,2.0074,2.0676,2.0623,2.1255,2.1346,2.0801,2.072,2.0421,1.9901,1.9824,1.9798,1.9798,1.9798,1.985,2.0003,2.111,2.1687,2.1922,2.3039,2.353,2.352,2.2853,2.2583,2.2508,2.1814,2.1216,2.0602,1.9987,1.9764,1.9749,1.9728,1.973,1.9617,1.9067,0.0,1.878,1.7676,1.7191,1.7316,1.8513,1.8685,1.9301,0.0,0.0,2.2645,2.504,2.6122,2.7079,2.8598,2.9504,3.0252,3.1057,3.0775,3.087,3.2094,3.1186,3.108,3.2918,3.1528,3.0672,3.1316,3.1391,3.1421,3.1496,3.212,3.2761,3.3469,3.4137,3.48,3.547,3.556,3.5943,3.666,3.6677,3.6677,3.6677,3.6677,3.6282,3.56,3.56,3.56,3.56,3.56,3.56,3.56,3.56,3.56,3.56,3.56,3.5577,3.5537,3.5402,3.5771,3.6362,0.0,0.9426,0.9247,0.9119,0.8995,0.8897,0.8897,0.9009,0.9324,1.001,1.0343,1.0961,1.2089,1.2596,1.3349,1.4539,0.0,0.0,1.7714,1.8986,1.9603,1.9387,2.0593,2.1277,2.1274,2.1932,2.215,2.1917,2.1524,2.1172,2.089,2.0559,2.0371,2.0346,1.9978,2.0029,2.0421,2.0942,2.1605,2.2323,2.2875,2.3068,2.3062,2.2808,2.2224,2.15,2.1216,2.0946,0.0,0.0,1.9708,1.9708,1.9708,1.9708,1.9591,1.9071,1.9468,0.0,2.0002,1.9869,2.0005,2.0971,2.1373,2.1949,2.3518,2.4014,2.4664,2.6733,2.7731,2.8801,3.0588,3.1217,3.1721,3.2502,3.2429,3.2498,3.3104,3.2688,3.2342,3.2432,3.2021,3.1812,3.2117,3.1739,3.1511,3.1511,3.1796,3.2272,3.2986,3.3659,3.4333,3.5005,3.5845,3.6451,3.6795,3.7212,3.7432,3.7432,3.7432,3.7043,3.6315,3.6755,3.6935,3.6884,3.5988,3.5876,3.6265,3.5785,3.56,3.56,3.56,3.56,3.56,3.56,3.6139,3.6902,0.0,0.939,0.9247,0.9119,0.8995,0.8897,0.8897,0.8823,0.8979,0.9623,0.9551,0.9976,1.1346,1.1983,1.2669,1.3555,0.0,0.0,0.0,1.8687,1.9513,1.9693,2.0797,2.1425,2.1425,2.2261,2.2606,2.2413,2.2122,2.1875,2.1697,2.1245,2.1053,2.1028,2.0546,2.0595,2.1077,2.1248,2.187,2.2717,2.2875,2.2855,2.2673,2.2493,2.171,2.0703,2.0703,2.0569,0.0,0.0,1.9558,1.9678,1.9465,1.9558,1.9648,1.9346,1.9944,2.0838,2.1515,2.1695,2.1934,2.2966,2.355,2.4056,2.4767,2.5334,2.6202,2.7869,2.8644,2.9571,3.147,3.2098,3.2608,3.3393,3.3521,3.36,3.3831,3.3226,3.2526,3.1951,3.1816,3.1932,3.2292,3.1817,3.1511,3.1511,3.1891,3.2407,3.315,3.3808,3.4577,3.5468,3.636,3.6998,3.7405,3.7939,3.821,3.821,3.821,3.7821,3.7134,3.7669,3.7905,3.7838,3.6495,3.6265,3.6745,3.5943,3.56,3.56,3.56,3.56,3.56,3.56,3.6186,3.7001,0.0,0.0,0.9247,0.9119,0.8995,0.8897,0.8897,0.8891,0.9151,0.9893,0.9749,1.0071,1.1355,1.2147,1.2766,0.0,0.0,0.0,1.6667,1.7997,1.9016,1.9678,2.0363,2.0718,2.0718,2.2019,2.2374,2.1743,2.2347,2.2346,2.1697,2.1673,2.1673,2.1673,2.1649,2.1649,2.1734,2.2383,2.2649,2.274,2.3334,2.3221,2.2628,2.1984,2.1306,2.0703,2.0703,0.0,0.0,0.0,1.9151,1.9588,1.8942,1.9166,0.0,2.0434,2.0658,2.0838,2.1515,2.1695,2.2158,2.4066,2.456,2.4903,2.6222,2.6537,2.6925,2.8215,2.8512,2.8944,3.0286,3.1632,3.2733,3.3482,3.36,3.3804,3.4479,3.228,3.1082,3.2417,3.0876,3.0189,3.1495,3.1544,3.1511,3.1511,3.2841,3.3936,3.4595,3.5254,3.6306,3.7756,3.7144,3.7506,3.8903,3.8954,3.8954,3.8954,3.8954,3.8582,3.7872,3.7889,3.7905,3.7872,3.7077,3.6778,3.6745,3.5943,3.56,3.56,3.56,3.56,3.56,3.56,3.5963,3.6498,0.0,0.0,0.0,0.8995,0.893,0.8897,0.8897,0.8897,0.9162,0.9906,1.0807,0.0,0.0,0.0,0.0,0.0,0.0,0.0,1.6224,1.739,1.8326,1.9016,2.009,2.0703,2.0703,2.1575,2.1709,2.1033,2.1714,2.1697,2.1053,2.1478,2.1713,2.1705,2.1695,2.1946,2.2354,2.2136,2.252,2.3238,2.2599,2.2218,2.1949,2.1291,2.0329,1.934,0.0,0.0,0.0,0.0,1.8852,1.9076,1.9286,0.0,0.0,2.0513,2.1021,2.1605,2.2667,2.3295,2.3992,2.554,2.5929,2.6153,2.7061,2.727,2.7489,2.8321,2.8139,2.8373,3.016,3.0506,3.1037,3.2683,3.2933,3.318,3.3847,3.3143,3.24,3.2003,3.1712,3.1396,3.0937,3.0857,3.1017,3.1466,3.2885,3.3979,3.4654,3.5794,3.6887,3.7882,3.8125,3.8481,3.8988,3.9503,3.974,3.9723,3.9225,3.9123,3.9326,3.8345,3.843,3.9276,3.8058,3.7804,3.8142,3.6907,3.64,3.6332,3.5825,3.56,3.56,3.56,3.5717,3.5963,0.0,0.0,0.0,0.0,0.0,0.0,0.0,0.0,0.0,0.0,0.0,0.0,0.0,0.0,0.0,0.0,0.0,0.0,0.0,0.0,1.7375,1.7953,1.9044,1.9627,1.9627,2.0288,2.0536,2.0342,2.1025,2.1228,2.1056,2.1493,2.1697,2.169,2.1707,2.1937,2.2301,2.1893,2.2163,2.2847,2.2024,2.141,2.0951,2.0513,1.9507,0.0,0.0,0.0,0.0,1.7818,1.818,1.8732,1.8927,1.963,2.0501,2.0932,2.168,2.2652,2.3969,2.4619,2.5277,2.6617,2.6971,2.7076,2.7495,2.76,2.765,2.7786,2.7493,2.7496,2.856,2.879,2.9425,3.1219,3.1727,3.2193,3.3108,3.3029,3.2479,3.1359,3.1601,3.1513,3.0606,3.0507,3.0791,3.1451,3.3339,3.4643,3.5075,3.6673,3.792,3.8667,3.8886,3.9123,3.9402,3.9859,4.0096,4.0096,3.9622,3.9656,4.0079,3.9106,3.9191,4.0028,3.8819,3.8565,3.8903,3.7686,3.7049,3.6745,3.6231,3.5836,3.56,3.56,3.56,3.5689,0.0,0.0,0.0,0.0,0.0,0.0,0.0,0.0,0.0,0.0,0.0,0.0,0.0,0.0,0.0,0.0,0.0,0.0,0.0,0.0,0.0,1.6608,1.7279,1.7637,1.7637,1.8313,1.8957,1.9603,2.0243,2.0872,2.15,2.153,2.1545,2.1545,2.162,2.165,2.165,2.165,2.165,2.1635,2.1575,2.0767,1.9648,1.9618,0.0,0.0,0.0,0.0,0.0,0.0,0.0,0.0,0.0,0.0,2.1739,2.1739,2.2682,2.3984,2.53,2.5704,2.6063,2.733,2.7645,2.7645,2.76,2.757,2.736,2.6701,2.6482,2.6243,0.0,0.0,2.7899,2.9273,3.0095,3.1032,3.2346,3.2048,3.1394,0.0,0.0,0.0,0.0,3.0657,3.0926,3.1555,3.4178,3.5775,3.5862,3.7851,3.9335,4.0079,3.9436,3.9402,4.0096,4.0096,4.0096,4.0096,4.0096,4.0096,4.0096,4.0096,4.0096,4.0062,3.9343,3.9056,3.8988,3.8261,3.7533,3.6914,3.688,3.6366,3.565,3.565,3.5633,3.5672,0.0,0.0,0.0,0.0,0.0,0.0,0.0,0.0,0.0,0.0,0.0,0.0,0.0,0.0,0.0,0.0,0.0,0.0,0.0,0.0,0.0,0.0,0.0,0.0,1.695,1.7608,0.0,0.0,0.0,1.8551,1.873,1.9241,1.9465,1.951,2.0494,2.0942,2.0942,2.0942,2.0942,2.0872,0.0,1.9256,1.8897,0.0,0.0,0.0,0.0,0.0,0.0,0.0,0.0,0.0,0.0,2.1096,2.2448,2.2448,2.3684,2.527,2.6123,2.7066,2.7919,2.8248,2.8338,2.8203,2.7705,2.721,2.6647,2.5989,2.5061,2.4313,2.4148,2.4792,2.5969,2.7799,2.9085,0.0,3.1615,3.2068,0.0,3.2003,0.0,3.2734,3.2751,3.2736,3.2811,3.2976,3.4227,3.5449,3.6485,3.8045,3.9306,4.007,3.9926,3.991,4.0096,4.0096,4.0096,4.0096,4.0096,4.0096,4.0096,4.0096,4.0096,4.0096,3.991,3.9825,3.9774,3.9005,3.8599,3.8379,3.7838,3.7161,3.6485,3.6485,3.6113,3.5622,0.0,0.0,0.0,0.0,0.0,0.0,0.0,0.0,0.0,0.0,0.0,0.0,0.0,0.0,0.0,0.0,0.0,0.0,0.0,0.0,0.0,0.0,0.0,0.0,1.5773,1.6779,0.0,0.0,0.0,0.0,0.0,1.7896,1.8165,1.85,1.9116,1.9388,1.9388,0.0,0.0,0.0,0.0,0.0,0.0,0.0,0.0,0.0,0.0,0.0,0.0,0.0,0.0,2.0793,2.1395,2.2473,2.3595,2.3879,0.0,2.6617,2.729,2.8233,2.8966,2.8667,2.8607,2.8263,2.6991,2.6422,2.5809,2.4582,2.3714,2.3116,2.2817,2.3535,2.4732,2.6437,0.0,0.0,3.1286,3.2326,3.2927,0.0,3.3532,0.0,3.353,3.3499,3.3757,3.4379,3.4829,3.5598,3.673,3.8144,3.9262,4.007,4.0096,4.0096,4.0096,4.0096,4.0096,4.0096,4.0096,4.0096,4.0096,4.0096,4.0096,4.0096,4.0096,4.0096,4.0079,3.9656,3.9276,3.8954,3.8531,3.7922,3.7229,3.6931,3.6502,3.6079,0.0,0.0,0.0,0.0,0.0,0.0,0.0,0.0,0.0,0.0,0.0,0.0,0.0,0.0,0.0,0.0,0.0,0.0,0.0,0.0,0.0,0.0,0.0,0.0,0.0,0.0,0.0,0.0,0.0,0.0,0.0,0.0,0.0,0.0,0.0,0.0,0.0,0.0,0.0,0.0,0.0,0.0,0.0,0.0,0.0,0.0,0.0,0.0,0.0,0.0,2.0408,2.1186,2.2433,2.3759,2.4978,2.557,2.6677,2.7884,2.8547,2.9205,2.9549,2.8891,2.8667,2.8068,2.6063,2.5465,2.4807,2.2957,2.2508,2.2239,2.1565,2.2473,2.3849,2.536,0.0,2.9175,3.1212,3.2659,3.3504,3.3501,3.4151,3.4407,3.3815,3.3831,3.441,3.5655,3.5836,3.6248,3.703,3.8237,3.9262,4.007,4.0096,4.0096,4.0096,4.0096,4.0096,4.0096,4.0096,4.0096,4.0096,4.0096,4.0096,4.0096,4.0096,4.0096,4.0096,4.0096,3.9723,3.914,3.914,3.87,3.7973,3.7337,3.6981,3.6711,0.0,0.0,0.0,0.0,0.0,0.0,0.0,0.0,0.0,0.0,1.3057,1.3127,0.0,0.0,0.0,0.0,0.0,0.0,0.0,0.0,0.0,0.0,0.0,0.0,0.0,0.0,0.0,0.0,0.0,0.0,0.0,0.0,0.0,0.0,0.0,0.0,0.0,0.0,0.0,0.0,0.0,0.0,0.0,0.0,0.0,0.0,0.0,0.0,0.0,0.0,2.1804,2.2478,2.3206,2.4732,2.6273,2.6378,2.738,2.8562,2.922,2.9864,3.0193,2.9564,2.9011,2.8068,2.6063,2.4747,0.0,0.0,2.144,2.0842,2.0172,2.1126,2.2817,2.5211,2.6811,2.8637,3.1152,3.2631,3.3502,0.0,3.4583,3.5259,3.516,3.5704,3.6153,3.6399,3.703,3.7757,3.8494,3.8761,3.9262,4.007,4.0096,4.0096,4.0096,4.0096,4.0096,4.0096,4.0096,4.0096,4.0096,4.0096,4.0096,4.0096,4.0096,4.0096,4.0096,4.0096,4.0028,3.991,3.991,3.9469,3.8785,3.8667,3.7862,3.6778,0.0,0.0,0.0,0.0,0.0,0.0,0.0,1.2475,1.3778,1.4684,1.4575,1.4403,1.4374,1.4006,1.3678,0.0,0.0,0.0,0.0,0.0,0.0,0.0,0.0,0.0,0.0,0.0,0.0,0.0,0.0,0.0,0.0,0.0,0.0,0.0,0.0,0.0,0.0,0.0,0.0,0.0,0.0,0.0,0.0,0.0,0.0,0.0,0.0,0.0,0.0,0.0,2.1036,2.2418,2.3714,2.5255,2.6587,2.6587,2.7809,2.9175,2.9517,3.0298,3.0806,2.9846,2.9086,2.7889,2.5181,0.0,0.0,0.0,2.0393,2.0079,1.9768,2.0801,0.0,2.3819,2.5181,2.7096,3.0088,3.1345,3.2452,3.3844,3.4891,3.5504,3.5504,3.6165,3.6752,3.7174,3.7933,3.8525,3.8881,3.9289,3.9688,4.007,4.0096,4.0096,4.0096,4.0096,4.0096,4.0096,4.0096,4.0096,4.0096,4.0096,4.0096,4.0096,4.0096,4.0096,4.0096,4.0096,4.0096,4.0096,4.0096,3.9893,3.9537,3.914,3.8548,3.7845,0.0,0.0,0.0,0.0,0.0,0.0,0.0,1.3557,1.4873,1.5938,1.5922,1.5678,1.5303,1.4436,1.3829,0.0,0.0,0.0,0.0,0.0,0.0,0.0,0.0,0.0,0.0,0.0,0.0,0.0,0.0,0.0,0.0,0.0,0.0,0.0,0.0,0.0,0.0,0.0,0.0,0.0,0.0,0.0,0.0,0.0,0.0,0.0,0.0,0.0,0.0,0.0,1.9942,2.1395,2.3364,2.5001,2.6198,2.6333,2.772,2.9202,2.9352,3.0328,3.0972,2.9699,2.8967,2.7705,2.4468,2.3164,0.0,2.0213,1.9764,1.9708,1.9708,2.0561,2.1595,0.0,2.3655,2.557,2.8906,3.0148,3.1599,0.0,3.514,0.0,3.5733,3.6569,3.7365,3.8007,3.8718,3.9166,3.9166,3.9756,4.0096,4.0096,4.0096,4.0096,4.0096,4.0096,4.0096,4.0096,4.0096,4.0096,4.0096,4.0096,4.0096,4.0096,4.0096,4.0096,4.0096,4.0096,4.0096,4.0096,4.0096,4.0096,4.0028,3.9445,3.9123,3.8802,0.0,0.0,0.0,0.0,0.0,0.0,0.0,1.3557,1.5003,1.6431,1.6041,1.5754,1.6062,1.5364,1.4527,0.0,0.0,0.0,0.0,0.0,0.0,0.0,0.0,0.0,0.0,0.0,0.0,0.0,0.0,0.0,0.0,0.0,0.0,0.0,0.0,0.0,0.0,0.0,0.0,0.0,0.0,0.0,0.0,0.0,0.0,0.0,0.0,0.0,0.0,0.0,0.0,1.9331,2.1335,2.3244,2.4903,2.5501,0.0,0.0,2.8517,2.9624,3.0298,2.9011,2.8551,2.7673,2.4881,0.0,2.2013,2.0539,1.9947,1.9708,1.9708,1.9813,2.0501,2.2388,0.0,2.4866,2.8218,3.0255,3.1944,3.341,0.0,0.0,3.6492,3.7815,3.8701,3.8799,3.9558,3.9995,3.9995,4.0045,4.0096,4.0096,4.0096,4.0096,4.0096,4.0096,4.0096,4.0096,4.0096,4.0096,4.0096,4.0096,4.0096,4.0096,4.0096,4.0096,4.0096,4.0096,4.0096,4.0096,4.0096,4.0096,4.0096,4.0028,3.9588,3.887,0.0,0.0,0.0,0.0,0.0,0.0,1.2178,1.3557,1.5028,1.6512,1.6434,1.6369,1.6652,1.6002,1.5077,1.3871,0.0,0.0,0.0,0.0,0.0,0.0,0.0,0.0,0.0,0.0,0.0,0.0,0.0,0.0,0.0,0.0,0.0,0.0,0.0,0.0,0.0,0.0,0.0,0.0,0.0,0.0,0.0,0.0,0.0,0.0,0.0,0.0,0.0,0.0,0.0,0.0,1.9029,2.0378,0.0,0.0,2.5615,2.7151,2.7824,2.8978,2.9729,2.8831,2.8206,2.718,2.4821,2.3312,2.2009,2.0593,1.9982,1.9708,1.9708,1.9708,2.0079,2.1306,2.135,2.2413,2.5726,2.7205,2.9029,3.1944,3.4177,3.5762,3.6538,3.7987,3.9113,3.9584,3.9927,4.0096,4.0096,4.0096,4.0096,4.0096,4.0096,4.0096,4.0096,4.0096,4.0096,4.0096,4.0096,4.0096,4.0096,4.0096,4.0096,4.0096,4.0096,4.0096,4.0096,4.0096,4.0096,4.0096,4.0096,4.0096,4.0096,4.0096,3.991,3.9571,0.0,0.0,0.0,0.0,0.0,1.1367,1.2178,1.3557,1.4943,1.6214,1.6367,1.6458,1.6649,1.5966,1.5133,1.4237,1.3815,0.0,0.0,0.0,0.0,0.0,0.0,0.0,0.0,0.0,0.0,0.0,0.0,0.0,0.0,0.0,0.0,0.0,0.0,0.0,0.0,0.0,0.0,0.0,0.0,0.0,0.0,0.0,0.0,0.0,0.0,0.0,0.0,0.0,0.0,0.0,0.0,0.0,0.0,0.0,2.4313,2.5899,2.6776,2.7989,2.8858,2.8173,2.7552,2.6592,2.4637,2.3214,2.1976,2.0751,2.0176,1.9839,1.9711,1.9708,1.9839,0.0,2.0333,2.1306,2.4201,2.5525,2.744,3.0793,3.2936,3.4711,3.6228,3.8126,3.9489,4.0045,4.0096,4.0096,4.0096,4.0096,4.0096,4.0096,4.0096,4.0096,4.0096,4.0096,4.0096,4.0096,4.0096,4.0096,4.0096,4.0096,4.0096,4.0096,4.0096,4.0096,4.0096,4.0096,4.0096,4.0096,4.0096,4.0096,4.0096,4.0096,4.0096,3.996,0.0,0.0,0.0,0.0,0.0,0.0,1.2178,1.3557,1.4774,1.5511,1.5612,1.5683,1.5883,1.5083,1.4586,1.4778,1.4067,0.0,0.0,0.0,0.0,0.0,0.0,0.0,0.0,0.0,0.0,1.7103,0.0,0.0,0.0,0.0,0.0,0.0,0.0,0.0,0.0,0.0,0.0,0.0,0.0,0.0,0.0,0.0,0.0,0.0,0.0,0.0,0.0,0.0,0.0,0.0,0.0,0.0,0.0,0.0,2.2622,2.3924,2.527,2.6587,2.7465,2.6806,2.6503,2.5982,2.4279,2.2968,2.1889,2.1151,2.0616,2.0176,1.9764,1.9708,1.9708,1.9708,2.0831,2.2368,2.4321,2.6318,2.8319,0.0,3.1815,3.3536,3.562,3.8415,4.0096,4.0096,4.0096,4.0096,4.0096,4.0096,4.0096,4.0096,4.0096,4.0096,4.0096,4.0096,4.0096,4.0096,4.0096,4.0096,4.0096,4.0096,4.0096,4.0096,4.0096,4.0096,4.0096,4.0096,4.0096,4.0096,4.0096,4.0096,4.0096,4.0096,4.0096,3.9893,0.0,0.0,0.0,0.0,0.0,0.0,0.0,1.2778,1.4005,1.474,1.4842,1.5056,1.5624,1.4973,1.4577,1.4787,1.3981,0.0,0.0,0.0,0.0,0.0,0.0,0.0,0.0,0.0,0.0,1.833,1.8483,1.8809,0.0,0.0,0.0,0.0,0.0,0.0,0.0,0.0,0.0,0.0,0.0,0.0,0.0,0.0,0.0,0.0,0.0,0.0,0.0,0.0,0.0,0.0,0.0,0.0,0.0,0.0,0.0,0.0,2.3392,2.4223,2.4829,2.4597,2.4447,2.4164,2.3454,2.2668,2.1972,2.1515,2.083,2.0263,2.0141,1.9892,2.0007,2.0917,2.141,0.0,2.4335,2.5944,0.0,3.0208,3.3395,3.6025,3.7764,3.8751,3.9516,4.0045,4.0096,4.0096,4.0096,4.0096,4.0096,4.0096,4.0096,4.0096,4.0096,4.0096,4.0096,4.0096,4.0096,4.0096,4.0096,4.0096,4.0096,4.0096,4.0096,4.0096,4.0096,4.0096,4.0096,4.0096,4.0096,4.0096,4.0096,4.0096,4.0096,3.996,0.0,0.0,0.0,0.0,0.0,0.0,0.0,1.1992,1.3151,1.3608,1.3912,1.4377,1.5105,1.4559,1.4324,1.4762,1.4063,0.0,0.0,0.0,0.0,0.0,0.0,0.0,0.0,1.6389,1.7401,1.9212,1.8994,1.9283,1.9985,1.9524,1.9164,0.0,0.0,0.0,0.0,0.0,0.0,0.0,0.0,0.0,0.0,0.0,0.0,0.0,0.0,0.0,0.0,0.0,0.0,0.0,0.0,0.0,0.0,0.0,1.9014,2.0498,0.0,2.2793,2.3251,2.3251,2.301,2.2725,2.2631,2.2142,2.1666,2.162,2.1055,2.0566,2.0566,2.0087,2.0032,2.1012,2.1467,2.2293,2.3977,2.5809,2.7934,3.0582,3.384,3.6373,3.7628,3.8444,3.9236,4.0045,4.0096,4.0096,4.0096,4.0096,4.0096,4.0096,4.0096,4.0096,4.0096,4.0096,4.0096,4.0096,4.0096,4.0096,4.0096,4.0096,4.0096,4.0096,4.0096,4.0096,0.0,4.0096,4.0096,4.0096,4.0096,4.0096,4.0096,4.0096,4.0096,3.9994,0.0,0.0,0.0,0.0,0.0,0.0,0.0,1.1265,1.2237,1.2295,1.2905,1.3608,1.4334,1.3921,1.3905,1.4674,0.0,0.0,0.0,0.0,0.0,0.0,0.0,0.0,0.0,1.6425,1.7451,1.9723,1.9213,1.9384,2.0154,2.0103,1.9693,1.8978,0.0,0.0,0.0,0.0,0.0,0.0,0.0,0.0,0.0,0.0,0.0,0.0,0.0,0.0,0.0,0.0,0.0,0.0,0.0,0.0,0.0,0.0,0.0,0.0,0.0,2.1934,2.2418,2.2463,2.2029,2.1617,2.187,2.1421,0.0,2.1506,2.126,2.0958,2.1006,2.0291,1.9881,2.0395,2.1231,2.2278,2.3565,2.6147,2.8816,3.1406,3.3507,3.5073,3.5865,3.7671,3.9166,4.0045,4.0096,4.0096,4.0096,4.0096,4.0096,4.0096,4.0096,4.0096,4.0096,4.0096,4.0096,4.0096,4.0096,4.0096,4.0096,4.0096,4.0096,4.0096,4.0096,4.0096,4.0096,4.0096,4.0096,4.0096,4.0096,4.0096,4.0096,4.0096,4.0096,3.9994,0.0,0.0,0.0,0.0,0.0,0.0,0.0,0.0,0.0,0.0,1.2477,1.2846,1.3574,1.354,1.3627,0.0,0.0,0.0,0.0,0.0,0.0,0.0,0.0,0.0,0.0,1.7244,1.845,1.9935,1.9789,2.0437,2.1755,2.1177,2.05,1.9727,1.9147,0.0,0.0,0.0,0.0,0.0,0.0,0.0,0.0,0.0,0.0,0.0,1.6541,1.6369,0.0,0.0,0.0,0.0,0.0,0.0,0.0,0.0,1.6801,1.7294,1.8972,0.0,1.975,2.0292,2.0292,2.0349,0.0,2.0842,2.0682,2.1445,2.0991,2.0622,2.1136,2.0403,2.0239,2.1868,2.2705,2.3625,2.4941,2.8267,3.139,3.3529,3.4691,3.5845,3.7195,3.7785,3.8624,3.9995,4.0096,4.0096,4.0096,4.0096,4.0096,4.0096,4.0096,4.0096,4.0096,4.0096,4.0096,4.0096,4.0096,4.0096,4.0096,4.0096,4.0096,4.0096,4.0096,4.0096,4.0096,4.0096,4.0096,4.0096,4.0096,4.0096,4.0096,4.0096,4.0096,3.9994,0.0,0.0,0.0,0.0,0.0,0.0,0.0,0.0,0.0,0.0,0.0,0.0,0.0,0.0,0.0,0.0,0.0,0.0,0.0,0.0,0.0,0.0,0.0,0.0,0.0,1.7168,1.8489,2.0167,2.0048,2.0779,2.2279,2.1887,2.1092,1.9951,1.8882,0.0,0.0,0.0,0.0,0.0,0.0,0.0,0.0,0.0,0.0,0.0,1.6246,1.6163,0.0,1.6969,1.716,1.716,0.0,0.0,0.0,0.0,1.6278,1.6562,1.7878,1.8478,1.8867,1.9525,1.9708,1.9871,2.0532,0.0,0.0,0.0,0.0,0.0,2.1053,2.061,2.0678,2.2262,2.3128,2.4597,2.7455,3.021,3.2691,3.4711,3.5587,3.6321,3.716,3.7876,3.8652,3.9489,3.9901,4.0096,4.0096,4.0096,4.0096,4.0096,4.0096,4.0096,4.0096,4.0096,4.0096,4.0096,4.0096,4.0096,4.0096,4.0096,4.0096,4.0096,4.0096,4.0096,4.0096,4.0096,4.0096,4.0096,4.0096,4.0096,4.0096,4.0096,4.0096,4.0045,0.0,0.0,0.0,0.0,0.0,0.0,0.0,0.0,0.0,0.0,0.0,0.0,0.0,0.0,0.0,0.0,0.0,0.0,0.0,0.0,0.0,0.0,0.0,1.5778,1.6466,1.6947,1.8241,2.0418,2.0136,2.0779,2.2296,2.2296,2.1485,1.9934,1.8577,0.0,0.0,0.0,0.0,0.0,0.0,0.0,0.0,0.0,0.0,0.0,0.0,0.0,0.0,1.7135,1.7549,1.7669,1.7474,0.0,0.0,0.0,0.0,0.0,1.7474,1.8267,1.8867,1.9525,1.9708,1.9818,2.021,0.0,0.0,0.0,0.0,0.0,0.0,2.097,2.1242,2.2462,2.3603,2.5898,3.0328,3.1953,3.3382,3.5428,3.6228,3.6691,3.6918,3.8129,3.8935,3.9086,3.9714,4.0096,4.0096,4.0096,4.0096,4.0096,4.0096,4.0096,4.0096,4.0096,4.0096,4.0096,4.0096,4.0096,4.0096,4.0096,4.0096,4.0096,4.0096,4.0096,4.0096,4.0096,4.0096,4.0096,4.0096,4.0096,4.0096,4.0096,4.0096,4.0079,0.0,0.0,0.0,0.0,0.0,0.0,0.0,0.0,0.0,0.0,0.0,0.0,0.0,0.0,0.0,0.0,0.0,0.0,0.0,0.0,0.0,0.0,1.5512,1.6517,1.731,1.7772,1.8825,2.0484,2.0159,2.0779,2.2296,2.2296,2.1485,1.9951,1.9113,1.8363,0.0,0.0,0.0,0.0,0.0,0.0,0.0,0.0,0.0,0.0,0.0,0.0,0.0,1.6038,1.6802,1.7519,1.6443,0.0,0.0,0.0,0.0,0.0,1.8044,1.8627,1.8867,1.9525,1.9708,1.9818,2.021,0.0,0.0,0.0,0.0,0.0,0.0,2.1568,2.2149,2.3944,2.6245,2.9042,3.2548,3.3226,3.412,3.6168,3.6523,3.7128,3.8425,3.8772,3.9166,3.9859,4.002,4.0096,4.0096,4.0096,4.0096,4.0096,4.0096,4.0096,4.0096,4.0096,4.0096,4.0096,4.0096,4.0096,4.0096,4.0096,4.0096,4.0096,4.0096,4.0096,4.0096,4.0096,4.0096,4.0096,4.0096,4.0096,4.0096,4.0096,4.0096,3.9926,0.0,0.0,0.0,0.0,0.0,0.0,0.0,0.0,0.0,0.0,0.0,0.0,0.0,0.0,0.0,0.0,0.0,0.0,0.0,0.0,0.0,0.0,1.6595,1.7184,1.7323,1.7756,1.8807,2.051,2.0351,2.0974,2.2279,2.1887,2.1109,1.9968,1.9232,1.8488,1.7789,0.0,0.0,0.0,0.0,0.0,0.0,0.0,0.0,0.0,0.0,0.0,0.0,0.0,1.6921,1.7518,1.6577,0.0,0.0,0.0,0.0,0.0,1.773,1.8162,1.8491,1.9899,2.0498,2.0824,2.1019,2.0903,0.0,0.0,0.0,0.0,0.0,2.2562,2.4141,2.6871,2.8923,3.0943,3.3209,3.414,3.5098,3.6445,3.732,3.7958,3.8274,3.9059,3.9516,3.9463,3.9833,4.0096,4.0096,4.0096,4.0096,4.0096,4.0096,4.0096,4.0096,4.0096,4.0096,4.0096,4.0096,4.0096,4.0096,4.0096,4.0096,4.0096,4.0096,4.0096,4.0096,4.0096,4.0096,4.0096,4.0096,4.0096,4.0096,4.0096,4.0096,3.996,0.0,0.0,0.0,0.0,0.0,0.0,0.0,0.0,0.0,0.0,0.0,0.0,0.0,0.0,0.0,0.0,0.0,0.0,0.0,0.0,1.542,1.6394,1.7406,1.7911,1.7825,1.8055,1.8925,2.0447,2.0389,2.0964,2.2118,2.1491,2.0771,1.9968,1.9232,1.8488,1.78,0.0,0.0,0.0,0.0,0.0,0.0,0.0,0.0,0.0,0.0,0.0,0.0,0.0,0.0,0.0,0.0,0.0,0.0,1.6533,1.6129,1.6338,1.7773,1.8057,1.8416,2.0419,0.0,2.1374,2.2017,2.2022,0.0,0.0,0.0,0.0,0.0,2.4096,2.6603,2.9798,3.1409,3.2778,3.4282,3.5443,3.6358,3.705,3.8185,3.8745,3.8374,3.9428,3.9833,3.9236,3.9756,4.0096,4.0096,4.0096,4.0096,4.0096,4.0096,4.0096,4.0096,4.0096,4.0096,4.0096,4.0096,4.0096,4.0096,4.0096,4.0096,4.0096,4.0096,4.0096,4.0096,4.0096,4.0096,4.0096,4.0096,4.0096,4.0096,4.0096,4.0096,3.9994,0.0,0.0,0.0,0.0,0.0,0.0,0.0,0.0,0.0,0.0,0.0,0.0,0.0,0.0,0.0,0.0,0.0,0.0,0.0,0.0,1.5581,1.569,1.7391,1.8784,1.9697,1.9423,1.962,2.0321,2.0067,2.0518,2.1642,2.1348,2.0771,1.9968,1.9232,1.8488,0.0,0.0,0.0,0.0,0.0,0.0,0.0,0.0,0.0,0.0,0.0,0.0,0.0,0.0,0.0,0.0,0.0,0.0,1.7684,1.7594,1.7115,1.7055,1.9016,1.9091,1.9106,2.1126,2.0722,2.0488,2.2902,2.2973,0.0,2.4062,0.0,0.0,0.0,2.6533,2.9235,3.2017,3.3594,3.5177,3.7214,3.7566,3.7914,3.8646,3.8827,3.9166,3.9876,4.002,4.007,4.002,4.007,4.0096,4.0096,4.0096,4.0096,4.0096,4.0096,4.0096,4.0096,4.0096,4.0096,4.0096,4.0096,4.0096,4.0096,4.0096,4.0096,4.0096,4.0096,4.0096,4.0096,4.0096,4.0096,4.0096,4.0096,4.0096,4.0096,4.0096,4.0096,3.9994,0.0,0.0,0.0,0.0,0.0,0.0,0.0,0.0,0.0,0.0,0.0,0.0,0.0,0.0,0.0,0.0,0.0,0.0,0.0,0.0,1.5928,1.6275,1.7832,1.8884,1.9264,1.9351,1.9704,2.0297,2.075,2.1168,2.1597,2.179,2.1211,1.9985,1.971,0.0,0.0,0.0,0.0,0.0,0.0,0.0,0.0,0.0,0.0,0.0,0.0,0.0,0.0,0.0,1.6667,1.7219,0.0,1.7356,1.8162,1.7324,1.689,1.7055,1.8657,1.8897,1.9181,2.1201,2.1321,0.0,0.0,2.4353,2.497,2.6689,2.6734,0.0,2.701,2.7919,2.9637,3.2808,3.4093,3.5435,3.7496,3.8188,3.8585,3.8875,3.9342,3.9782,4.007,4.0096,4.0096,4.0096,4.0096,4.0096,4.0096,4.0096,4.0096,4.0096,4.0096,4.0096,4.0096,4.0096,4.0096,4.0096,4.0096,4.0096,4.0096,4.0096,4.0096,4.0096,4.0096,4.0096,4.0096,4.0096,4.0096,4.0096,4.0096,4.0096,4.0096,4.0096,4.0096,4.0112,0.0,0.0,0.0,0.0,0.0,0.0,0.0,0.0,0.0,0.0,0.0,0.0,0.0,0.0,0.0,0.0,0.0,0.0,0.0,1.483,1.5791,1.6326,1.776,1.8597,1.8713,1.9277,1.9636,1.9785,2.0734,2.1197,2.118,2.1429,2.1061,2.0153,0.0,0.0,0.0,0.0,0.0,0.0,0.0,0.0,0.0,0.0,0.0,0.0,0.0,0.0,0.0,0.0,1.6548,0.0,0.0,0.0,0.0,0.0,1.7339,1.7533,1.8446,1.8702,1.9136,2.0932,0.0,0.0,2.5053,2.5894,2.6718,2.8504,2.8362,2.8201,2.9055,2.9228,3.028,3.3501,3.4782,3.6107,3.8235,3.8951,3.9289,3.9289,3.9756,4.0096,4.0096,4.0096,4.0096,4.0096,4.0096,4.0096,4.0096,4.0096,4.0096,4.0096,4.0096,4.0096,4.0096,4.0096,4.0096,4.0096,4.0096,4.0096,4.0096,4.0096,4.0096,4.0096,4.0096,4.0096,4.0096,4.0096,4.0096,4.0096,4.0096,4.0096,4.0096,4.0096,4.0043,4.0044,0.0,0.0,0.0,0.0,0.0,0.0,0.0,0.0,0.0,0.0,0.0,0.0,0.0,0.0,0.0,0.0,0.0,0.0,0.0,1.4355,1.5036,1.5571,1.7016,1.7947,1.828,1.9333,1.9499,1.8717,1.9785,2.0297,2.0299,2.0052,2.0117,0.0,0.0,0.0,0.0,0.0,0.0,0.0,0.0,0.0,0.0,0.0,0.0,0.0,0.0,0.0,0.0,0.0,1.6308,1.6143,0.0,0.0,0.0,1.8508,1.8702,1.8702,1.8702,1.8717,1.9046,2.0374,0.0,0.0,2.6987,2.7576,2.7908,2.9261,2.9068,2.9048,3.0391,3.0627,3.1554,3.4364,3.5925,3.7585,3.9775,4.0096,4.0096,4.0096,4.0096,4.0096,4.0096,4.0096,4.0096,4.0096,4.0096,4.0096,4.0096,4.0096,4.0096,4.0096,4.0096,4.0096,4.0096,4.0096,4.0096,4.0096,4.0096,4.0096,4.0096,4.0096,4.0096,4.0096,4.0096,4.0096,4.0096,4.0096,4.0096,4.0096,4.0096,4.0096,4.0096,4.0079,3.9922,3.979,0.0,0.0,0.0,0.0,0.0,0.0,0.0,0.0,0.0,0.0,0.0,0.0,0.0,0.0,0.0,0.0,0.0,0.0,0.0,1.4355,1.5036,1.5571,1.6519,1.721,1.7585,1.8138,1.8749,1.9408,2.0014,2.0297,2.0299,2.0846,0.0,2.0102,0.0,0.0,0.0,0.0,0.0,0.0,0.0,0.0,0.0,0.0,0.0,0.0,0.0,0.0,0.0,0.0,0.0,0.0,0.0,0.0,0.0,1.8072,1.8326,1.8702,1.8702,1.9388,2.0438,2.1754,0.0,0.0,0.0,2.8978,0.0,0.0,3.2229,3.2088,3.2017,3.2421,3.3386,3.5274,3.675,3.8216,3.986,4.0096,4.0096,4.0096,4.0096,4.0096,4.0096,4.0096,4.0096,4.0096,4.0096,4.0096,4.0096,4.0096,4.0096,4.0096,4.0096,4.0096,4.0096,4.0096,4.0096,4.0096,3.9571,3.9605,4.0096,4.0096,4.0096,4.0079,3.9554,3.9326,3.9326,3.9326,3.9326,3.9326,3.9326,3.9326,3.9291,3.911,3.8986,3.9081,0.0,0.0,0.0,0.0,0.0,0.0,0.0,0.0,0.0,0.0,0.0,0.0,0.0,0.0,0.0,0.0,0.0,0.0,0.0,0.0,1.5037,1.5571,1.6299,1.6954,1.7496,1.796,1.8497,1.9106,1.9344,1.9631,1.9943,0.0,2.0682,2.0598,0.0,2.1136,0.0,0.0,0.0,0.0,1.9722,1.9164,1.8894,0.0,0.0,0.0,0.0,0.0,0.0,0.0,0.0,0.0,1.6744,0.0,0.0,1.7743,1.8177,1.8762,1.9016,2.0079,2.1469,2.3026,2.5185,2.759,3.0005,0.0,0.0,3.3974,3.3777,3.3257,3.3364,3.377,3.4561,3.6009,3.7477,3.8807,3.9944,4.0096,4.0096,4.0096,4.0096,4.0096,4.0096,4.0096,4.0096,4.0096,4.0096,3.9977,3.969,3.9673,3.9537,3.9225,3.9249,3.9249,3.9249,3.9249,3.9249,3.9208,3.8768,3.8802,3.9249,3.9249,3.9249,3.9191,3.8751,3.8565,3.8565,3.8565,3.8565,3.8565,3.8565,3.8565,3.857,3.8573,3.8547,3.866,0.0,0.0,0.0,0.0,0.0,0.0,0.0,0.0,0.0,0.0,0.0,0.0,0.0,0.0,0.0,0.0,0.0,0.0,0.0,0.0,1.4975,1.5532,1.6345,1.7136,1.788,1.847,1.8552,1.8115,1.8177,1.8625,0.0,0.0,2.021,2.1536,0.0,2.1468,0.0,0.0,0.0,2.0002,2.0002,1.9558,1.8922,1.8961,0.0,0.0,0.0,0.0,0.0,0.0,0.0,0.0,1.6668,1.6727,1.6816,1.7428,1.8132,1.8837,1.9453,2.0681,2.2244,2.4132,2.6299,2.8963,3.2747,3.3225,3.3396,3.5227,3.4152,3.3251,3.446,3.4802,3.5322,3.6671,3.8086,3.9242,3.9994,4.0096,4.0096,4.0096,4.0096,4.0096,4.0096,4.0045,4.0011,4.0011,3.9943,3.9622,3.8937,3.8903,3.8582,3.7922,3.7905,3.7905,3.7905,3.7905,3.7905,3.7905,3.7838,3.7804,3.7804,3.7872,3.7872,3.7804,3.7804,3.777,3.7702,3.777,3.7804,3.7804,3.7851,3.7858,3.7912,3.8385,3.8415,3.8438,0.0,0.0,0.0,0.0,0.0,0.0,0.0,0.0,0.0,0.0,0.0,0.0,0.0,0.0,0.0,0.0,0.0,0.0,0.0,0.0,1.4486,1.5184,1.6714,1.7888,1.857,1.8469,1.8106,1.748,1.7976,1.8749,0.0,0.0,0.0,2.115,0.0,2.1599,0.0,0.0,2.0166,2.0002,2.0002,1.9558,1.8961,1.9541,1.8949,0.0,0.0,0.0,0.0,0.0,0.0,0.0,1.7062,1.6955,1.6726,1.686,1.7773,1.8732,1.8882,2.0647,0.0,2.4807,2.8371,3.1939,3.3902,3.4662,3.5086,3.5504,3.5267,3.5046,3.5328,3.5912,3.6643,3.7528,3.8425,3.9242,3.9994,4.0096,4.0096,4.0096,4.0096,4.0096,4.0096,3.9588,3.9225,3.9225,3.87,3.8311,3.8159,3.8142,3.8075,3.7922,3.7905,3.7905,3.7905,3.7905,3.7905,3.7905,3.7313,3.7049,3.7066,3.7635,3.7584,3.7049,3.7049,3.6671,3.614,3.6772,3.7049,3.7055,3.7442,3.7585,3.7608,3.794,3.8008,3.8078,0.0,0.0,0.0,0.0,0.0,0.0,0.0,0.0,0.0,0.0,0.0,0.0,0.0,0.0,0.0,0.0,0.0,0.0,0.0,0.0,1.5176,1.6115,1.7061,1.7581,1.7597,1.7749,1.765,1.7294,1.7619,0.0,0.0,0.0,0.0,2.1306,0.0,2.1544,0.0,0.0,2.0149,1.949,1.9849,1.9558,1.8944,1.9333,1.878,1.78,1.78,0.0,0.0,0.0,0.0,0.0,0.0,0.0,1.679,1.6953,1.7683,1.8637,1.9441,0.0,0.0,2.7126,0.0,3.2875,3.4286,3.5121,3.56,3.56,3.56,3.56,3.56,3.6265,3.7049,3.7787,3.8514,3.9242,3.9994,4.0096,3.9977,3.9622,3.9571,3.9411,3.9073,3.87,3.8464,3.8464,3.8125,3.7753,3.7381,3.7364,3.7195,3.68,3.6783,3.6783,3.6783,3.6783,3.6783,3.6783,3.6417,3.6231,3.6231,3.6614,3.6603,3.6231,3.6231,3.5994,3.5633,3.6062,3.6373,3.6627,3.6895,3.7134,3.7389,3.7775,3.7893,3.798,0.0,0.0,0.0,0.0,0.0,0.0,0.0,0.0,0.0,0.0,0.0,0.0,0.0,0.0,0.0,0.0,0.0,0.0,0.0,1.4673,1.5994,1.7252,1.7221,1.6991,1.6545,1.7048,1.7326,1.7376,1.7326,0.0,0.0,0.0,0.0,2.1628,0.0,0.0,0.0,0.0,2.0107,1.8775,1.9507,1.9372,1.8724,1.8843,1.8352,1.7642,1.7749,1.7715,1.758,1.7441,0.0,0.0,0.0,0.0,1.6849,1.7136,1.7646,1.8439,1.9887,0.0,2.4788,2.9159,3.1286,0.0,3.4098,3.4928,3.547,3.5577,3.56,3.56,3.56,3.6146,3.684,3.7584,3.821,3.8928,3.9791,3.9808,3.9529,3.9056,3.8886,3.8565,3.7973,3.7787,3.7719,3.7719,3.7584,3.7246,3.6643,3.6586,3.6282,3.5616,3.56,3.56,3.56,3.56,3.56,3.56,3.56,3.56,3.56,3.56,3.56,3.56,3.56,3.56,3.56,3.5694,3.6006,3.6416,3.6583,3.6923,3.7378,3.786,3.8048,3.8099,0.0,0.0,0.0,0.0,0.0,0.0,0.0,0.0,0.0,0.0,0.0,1.3601,1.357,1.347,0.0,0.0,0.0,0.0,1.3396,0.0,0.0,1.7218,1.6969,1.7013,1.7509,1.7364,1.7409,1.7659,0.0,0.0,0.0,0.0,0.0,2.1597,0.0,0.0,0.0,0.0,1.9304,1.8003,1.8758,1.8606,1.802,1.8657,1.8059,1.6925,1.7574,1.7388,1.6942,1.7519,1.7537,0.0,0.0,0.0,1.6805,1.6849,1.7348,1.795,1.8408,0.0,2.5097,0.0,3.0212,3.2006,0.0,3.4218,3.4894,3.547,3.56,3.56,3.56,3.5684,3.6028,3.6829,3.7032,3.7574,3.8937,3.8599,3.8396,3.8937,3.8447,3.8024,3.7922,3.7313,3.6948,3.6948,3.6299,3.5853,3.5752,3.5752,3.5701,3.56,3.56,3.56,3.56,3.56,3.56,3.56,3.56,3.56,3.56,3.56,3.56,3.56,3.56,3.56,3.5644,3.6097,3.635,3.6498,3.736,3.7737,3.7877,3.8399,3.8578,3.8593,0.0,0.0,0.0,0.0,0.0,0.0,0.0,0.0,0.0,0.0,0.0,1.3494,1.3494,1.3438,0.0,0.0,0.0,0.0,1.3988,1.4558,0.0,0.0,0.0,1.6531,1.6623,1.6516,1.6683,1.7145,0.0,0.0,0.0,1.9995,2.0804,0.0,0.0,0.0,0.0,0.0,1.9389,1.8403,1.8318,1.8577,1.8983,1.8459,1.8403,1.8488,1.7969,1.758,1.7371,1.7681,1.7692,1.7572,1.7572,0.0,0.0,0.0,1.7555,1.8435,2.0022,2.2396,2.5098,0.0,2.9694,3.1316,3.3136,3.407,3.4751,3.5453,3.56,3.56,3.56,3.56,3.5853,3.6677,3.6795,3.7185,3.8227,3.8108,3.7872,3.7794,3.7466,3.711,3.6671,3.6332,3.6129,3.6129,3.5785,3.56,3.56,3.56,3.56,3.56,3.56,3.56,3.56,3.56,3.56,3.56,3.56,3.56,3.56,3.56,3.56,3.56,3.56,3.56,3.5644,3.6182,3.658,3.6921,3.7614,3.8082,3.8382,3.8611,3.8707,3.8707,0.0,0.0,0.0,0.0,0.0,0.0,0.0,0.0,0.0,0.0,0.0,0.0,1.332,0.0,0.0,0.0,0.0,0.0,1.4444,0.0,0.0,0.0,0.0,1.6274,1.5926,1.5926,1.6186,0.0,0.0,0.0,1.9959,2.0483,2.139,0.0,2.2738,2.2313,0.0,0.0,0.0,0.0,1.8577,1.9017,1.9917,1.9203,1.9507,2.0132,1.8831,1.8239,1.8053,1.785,1.78,1.78,1.78,1.78,0.0,0.0,0.0,1.8556,0.0,0.0,2.4197,2.7049,2.8762,3.0325,3.2486,3.364,3.4465,3.5172,3.5464,3.56,3.56,3.56,3.5785,3.64,3.6485,3.6755,3.7516,3.7449,3.7195,3.6846,3.6626,3.6265,3.565,3.56,3.56,3.56,3.56,3.56,3.56,3.56,3.56,3.56,3.56,3.56,3.56,3.56,3.56,3.56,3.56,3.56,3.56,3.56,3.56,3.56,3.56,3.5689,3.5832,3.6374,3.6921,3.7415,3.7911,3.835,3.8707,3.8707,3.8707,3.8707,0.0,0.0,0.0,0.0,0.0,0.0,0.0,0.0,0.0,0.0,0.0,0.0,0.0,0.0,0.0,0.0,0.0,0.0,0.0,0.0,0.0,0.0,0.0,0.0,0.0,1.6274,0.0,0.0,0.0,0.0,2.0643,2.0673,2.171,2.3524,2.334,2.2647,2.1532,0.0,0.0,0.0,1.99,1.9934,2.0154,2.1536,2.1684,2.1021,2.0183,1.9439,1.8741,1.8036,1.78,1.78,1.78,1.78,1.78,0.0,0.0,0.0,0.0,2.0448,0.0,2.4737,2.6853,2.8769,3.0861,3.2484,3.3723,3.443,3.5115,3.56,3.56,3.56,3.5616,3.565,3.565,3.5943,3.6745,3.6197,3.5994,3.6711,3.6129,3.565,3.56,3.56,3.56,3.56,3.56,3.56,3.56,3.56,3.56,3.56,3.56,3.56,3.56,3.56,3.56,3.56,3.56,3.56,3.56,3.56,3.56,3.56,3.56,3.5898,3.6395,3.6941,3.7433,3.7929,3.8449,3.8692,3.8707,3.8707,3.8707,3.8707,0.0,0.0,0.0,0.0,0.0,0.0,0.0,0.0,0.0,0.0,0.0,0.0,0.0,1.4033,1.3664,1.3807,0.0,0.0,0.0,0.0,0.0,0.0,0.0,0.0,0.0,0.0,0.0,0.0,0.0,1.7251,1.9435,1.9854,2.0887,2.2388,2.2596,2.2422,2.1963,2.0639,0.0,0.0,2.0232,2.0891,2.1768,2.2161,2.2716,2.3154,2.1921,2.1008,2.0344,2.0073,1.9316,1.8504,1.8504,1.7862,1.7094,1.7094,1.7838,1.8752,0.0,0.0,0.0,2.3419,2.5466,2.7694,2.9483,3.1007,3.2362,3.355,3.4387,3.4895,3.4895,3.5278,3.56,3.56,3.56,3.5701,3.5994,3.5769,3.5701,3.6011,3.5769,3.56,3.56,3.56,3.56,3.56,3.56,3.56,3.56,3.56,3.56,3.56,3.56,3.56,3.56,3.56,3.56,3.56,3.56,3.56,3.56,3.56,3.56,3.5622,3.5963,3.6028,3.5963,3.6825,3.7304,3.7524,3.8366,3.8707,3.8707,3.8707,3.8707,3.8707,0.0,0.0,0.0,0.0,0.0,0.0,0.0,0.0,0.0,1.4504,0.0,0.0,0.0,0.0,1.4222,1.4392,1.4406,0.0,0.0,0.0,0.0,0.0,0.0,0.0,0.0,0.0,0.0,0.0,0.0,0.0,0.0,1.9271,2.0307,2.1385,2.1406,2.1753,0.0,0.0,2.0305,2.0304,2.0806,2.1672,2.2779,2.3595,2.4469,2.5083,2.3849,2.2936,2.2223,2.1749,2.072,1.9616,1.935,1.8251,1.7077,1.7077,1.8093,0.0,1.9017,0.0,0.0,0.0,2.4199,2.6151,2.8244,2.9825,3.1173,3.2408,3.3457,3.4134,3.4134,3.4726,3.5295,3.5549,3.56,3.56,3.56,3.56,3.56,3.56,3.56,3.56,3.56,3.56,3.56,3.56,3.56,3.56,3.56,3.56,3.56,3.56,3.56,3.56,3.56,3.56,3.56,3.56,3.56,3.56,3.56,3.56,3.56,3.5644,3.6161,3.6291,3.6207,3.7078,3.7542,3.7773,3.8433,3.8707,3.8707,3.8707,3.8707,3.8707,0.0,0.0,0.0,0.0,0.0,0.0,0.0,0.0,1.4543,1.457,0.0,0.0,0.0,0.0,0.0,1.4328,1.4266,1.4374,1.4619,1.5627,0.0,0.0,0.0,0.0,0.0,0.0,0.0,0.0,0.0,0.0,0.0,0.0,1.9974,2.0598,1.9959,2.0661,2.227,2.1458,2.1089,2.107,2.1725,2.2312,2.3095,2.5979,2.6929,2.664,2.5947,2.522,2.4372,2.2953,2.1921,2.1106,2.0234,1.9,1.7834,1.78,1.8335,0.0,0.0,0.0,0.0,0.0,2.3006,2.412,2.7012,2.8838,3.0176,3.097,3.229,3.3322,3.3372,3.3964,3.4709,3.5447,3.5583,3.56,3.56,3.56,3.56,3.56,3.56,3.56,3.56,3.56,3.56,3.56,3.56,3.56,3.56,3.56,3.56,3.56,3.56,3.56,3.56,3.56,3.56,3.56,3.56,3.56,3.56,3.5622,3.5605,3.565,3.6224,3.6744,3.7266,3.7702,3.82,3.8692,3.8692,3.8707,3.8707,3.8707,3.8707,3.8707,0.0,0.0,0.0,0.0,0.0,0.0,1.4562,1.5031,1.5647,0.0,0.0,0.0,1.735,1.6741,1.6137,1.5756,1.5894,1.5826,1.542,1.6176,1.6402,1.5859,1.677,1.7308,1.7308,1.6876,1.6659,1.6659,1.6251,1.6383,1.698,1.7354,1.8147,1.9256,1.9061,1.9524,2.0406,1.9688,2.0212,2.1518,2.1597,2.286,2.4788,2.5938,2.6928,2.7753,2.7987,2.7554,2.681,2.6421,2.4729,2.2361,1.9959,1.8927,1.8488,1.7952,1.8696,0.0,1.8912,0.0,0.0,0.0,0.0,0.0,2.4306,2.5355,2.6725,2.9128,3.0362,3.1343,3.2408,3.3203,3.3947,3.4675,3.5245,3.56,3.56,3.56,3.56,3.56,3.56,3.56,3.56,3.56,3.56,3.56,3.56,3.56,3.56,3.56,3.56,3.56,3.56,3.56,3.56,3.56,3.56,3.56,3.56,3.56,3.5622,3.6006,3.6182,3.6224,3.7098,3.756,3.772,3.7842,3.798,3.8167,3.8546,3.8707,3.8707,3.8707,3.8707,3.8707,0.0,0.0,0.0,0.0,0.0,1.5842,1.5842,1.6228,1.6728,0.0,0.0,0.0,1.8589,1.7964,1.736,1.6921,1.6775,1.6533,1.6144,1.6412,1.6407,1.5971,1.6824,1.7362,1.7503,1.702,1.6829,1.7009,1.6205,1.5979,1.6323,1.6577,1.7115,1.7878,1.7878,1.8386,1.9226,1.8568,1.9286,2.094,2.1687,2.319,2.517,2.6856,2.8121,2.909,3.0034,2.9685,2.8753,2.8753,2.659,2.3441,2.1075,2.0111,1.9718,1.8932,1.9778,0.0,0.0,0.0,0.0,0.0,0.0,0.0,2.3545,2.4186,2.5168,2.7554,2.8636,2.9516,3.0702,3.1765,3.2611,3.3051,3.3998,3.489,3.5515,3.56,3.56,3.56,3.56,3.56,3.56,3.56,3.56,3.56,3.56,3.56,3.56,3.56,3.56,3.56,3.56,3.56,3.56,3.56,3.56,3.56,3.56,3.56,3.5622,3.6161,3.6395,3.6457,3.7452,3.7893,3.7929,3.815,3.8232,3.8267,3.8578,3.8707,3.8707,3.8707,3.8707,3.8707,0.0,0.0,1.7829,1.7829,1.7731,1.7631,1.771,1.7663,1.7709,0.0,1.8931,1.9524,1.9313,1.9006,1.8565,1.7968,1.7309,1.686,1.6711,1.648,1.631,1.6246,1.6923,1.7406,1.762,1.7134,1.697,1.7185,1.6318,1.5873,1.5814,1.6353,1.6607,1.6607,1.6607,1.7339,1.8553,1.7953,1.8568,2.0082,2.1954,2.3476,2.4988,2.818,2.9792,3.0532,3.183,3.1523,3.0446,3.0173,2.7824,2.4728,2.3156,2.2158,2.141,2.0606,2.135,0.0,0.0,0.0,0.0,0.0,2.1921,0.0,2.3729,2.4254,2.4778,2.6183,2.6979,2.7689,2.8587,2.9871,3.0818,3.0818,3.2138,3.3677,3.5143,3.543,3.5481,3.5481,3.5549,3.56,3.56,3.56,3.56,3.56,3.56,3.56,3.56,3.56,3.56,3.56,3.56,3.56,3.56,3.56,3.56,3.56,3.56,3.5644,3.5694,3.6228,3.6519,3.6623,3.756,3.798,3.8032,3.8496,3.8707,3.8707,3.8707,3.8707,3.8707,3.8707,3.8707,3.8707,0.0,1.8164,1.8113,1.8113,1.7884,1.7862,1.8406,1.8028,1.8384,2.0314,2.0777,2.1125,2.1668,2.0398,1.9453,1.9316,1.8702,1.7848,1.6771,1.6653,1.6412,1.5914,1.681,1.7089,1.6599,1.7467,1.7438,1.6502,1.6502,1.6278,1.5799,1.5919,1.5979,1.5979,1.5979,1.6682,1.7893,1.7758,1.9089,2.138,2.2328,2.4086,2.6369,2.8046,2.9761,3.1361,3.2114,3.2543,3.2493,3.0697,2.9211,2.7757,2.5625,2.4441,2.3712,2.2953,2.2953,2.3122,2.2818,2.3289,2.3611,2.2564,2.3071,0.0,2.2155,2.2764,2.3849,2.4745,2.5049,2.5557,2.6911,2.7875,2.8466,2.8466,3.0243,3.2138,3.3626,3.4336,3.4709,3.4709,3.525,3.56,3.56,3.56,3.56,3.56,3.56,3.56,3.56,3.56,3.56,3.56,3.56,3.56,3.56,3.56,3.56,3.56,3.56,3.5827,3.6249,3.6803,3.7248,3.7649,3.8267,3.8546,3.8546,3.8676,3.8707,3.8707,3.8707,3.8707,3.8707,3.8707,3.8707,3.8707,0.0,1.8359,1.8443,1.8443,1.8597,1.8927,1.96,1.9403,1.9867,2.174,2.2245,2.2419,2.2365,2.1356,2.0557,2.0228,1.9286,1.8401,1.7743,1.707,1.6577,1.6249,1.6728,1.7,1.7,1.7304,1.7288,1.7,1.6503,1.6099,1.5799,1.5799,1.5964,1.6263,1.6263,1.6966,1.8192,1.8192,1.9166,2.0857,2.2847,2.5031,2.7364,2.9659,3.1387,3.2674,3.3654,3.399,3.3508,3.0548,2.955,2.9093,2.6421,2.5862,2.593,2.4831,2.4763,2.4897,2.4152,2.422,2.4406,2.4052,2.3951,0.0,0.0,2.2852,2.3156,2.4271,2.4203,2.4391,2.5879,2.6454,2.6826,2.7181,2.8518,2.977,3.0495,3.2544,3.3947,3.3947,3.4286,3.4484,3.4484,3.4484,3.4484,3.4484,3.4484,3.4484,3.4484,3.4861,3.5064,3.5064,3.5397,3.56,3.56,3.56,3.56,3.56,3.56,3.5876,3.6416,3.696,3.7451,3.7929,3.8465,3.8707,3.8707,3.8707,3.8707,3.8707,3.8707,3.8707,3.8707,3.8707,3.8707,3.8707,0.0,1.8506,1.8897,1.8897,1.945,2.0109,2.0797,2.0882,2.1419,2.2832,2.3591,2.3773,2.3167,2.2697,2.2233,2.169,2.0318,1.9441,1.9394,1.8077,1.7191,1.7029,1.7057,1.7219,1.7488,1.7234,1.716,1.7325,1.6413,1.5904,1.5799,1.5799,1.6114,1.6696,1.683,1.7654,1.8897,1.8897,1.9645,2.1085,2.3723,2.554,2.7018,3.0516,3.2344,3.3247,3.4988,3.5131,3.4015,3.0905,3.0142,3.0057,2.7334,2.7283,2.7976,2.6657,2.6674,2.6877,2.5692,2.5472,2.5591,2.5609,2.5033,2.4423,0.0,0.0,0.0,2.3898,2.3596,2.3545,2.4746,2.5068,2.5321,2.5778,2.6725,2.7334,2.7181,3.0023,3.2222,3.2527,3.2797,3.3034,3.3169,3.3068,3.3102,3.3389,3.3136,3.3102,3.3389,3.3964,3.4286,3.4286,3.5013,3.538,3.538,3.5515,3.56,3.56,3.56,3.5941,3.658,3.7001,3.7506,3.8082,3.8496,3.8707,3.8707,3.8707,3.8707,3.8707,3.8707,3.8707,3.8707,3.8707,3.8707,3.8707,1.9539,1.9525,1.9588,1.9588,2.0139,2.0812,2.1485,2.159,2.2219,2.3968,2.4894,2.5523,2.5885,2.5478,2.5136,2.5061,2.3325,2.2129,2.191,2.03,1.901,1.8238,1.8378,1.7953,1.683,1.7908,1.767,1.6023,1.6413,1.6323,1.5799,1.5799,1.6114,1.6726,1.7324,1.8326,1.9588,1.9588,2.165,2.4971,2.5345,2.4582,2.3683,2.7564,2.9831,3.1357,3.4482,3.5131,3.4336,3.3271,3.251,3.1769,3.0108,2.9683,2.9685,2.8839,2.8671,2.8705,2.8536,2.8958,2.8856,2.6251,2.6979,2.7351,2.3444,0.0,2.3932,2.2784,0.0,2.2482,2.2634,0.0,0.0,2.2902,2.4511,2.5625,2.4982,2.6369,2.796,2.9348,3.0649,3.1698,3.2361,3.1816,3.1985,3.3305,3.2188,3.2019,3.3339,3.3491,3.3525,3.3525,3.4235,3.4624,3.4624,3.5261,3.56,3.56,3.56,3.6122,3.7097,3.7154,3.7721,3.8611,3.8658,3.8707,3.8707,3.8707,3.8707,3.8707,3.8707,3.8707,3.8707,3.8707,3.8707,3.8707,1.9836,1.9708,1.9708,1.9708,1.9929,2.0483,2.153,2.331,2.4672,2.5053,2.6079,2.6984,2.7622,2.6778,2.6333,2.6746,2.53,2.4011,2.3101,2.1298,2.0125,1.9747,1.8714,1.8222,1.8448,1.8076,1.7561,1.6907,1.6606,1.6242,1.5814,0.0,1.6667,1.7339,1.8787,2.0198,2.1445,2.1445,2.2403,2.3939,2.4298,2.3729,2.3299,2.8809,3.1744,3.3161,3.4958,3.5397,3.4895,3.3288,3.2831,3.2679,3.119,3.0734,3.0683,3.0381,2.9973,2.9533,2.9128,2.9533,2.9565,2.7418,2.7266,2.6962,2.4188,2.3393,2.3173,2.2987,0.0,0.0,0.0,0.0,0.0,0.0,2.3714,2.4222,2.3915,2.4762,2.598,2.7486,2.8197,2.8873,2.9617,2.9414,2.9685,3.0768,3.0279,3.0378,3.1444,3.229,3.2767,3.2767,3.388,3.4489,3.4489,3.5544,3.592,3.56,3.592,3.646,3.7209,3.7209,3.7756,3.8707,3.8707,3.8707,3.8707,3.8707,3.8707,3.8707,3.8707,3.8707,3.8707,3.8707,3.8707,3.8707,1.9854,0.0,1.9708,1.9708,1.9839,2.0468,2.1979,2.4403,2.6078,2.6138,2.7165,2.8173,2.9026,2.8427,2.8203,2.8888,2.7709,2.6501,2.5485,2.3299,2.2019,2.1967,1.9924,1.9219,2.0113,1.8722,1.7944,1.7892,1.7075,1.6558,0.0,0.0,1.7339,1.8057,2.0075,2.171,2.2972,2.3347,2.3931,2.462,2.4866,2.5153,2.5895,3.0348,3.3095,3.4688,3.5362,3.56,3.5312,3.3508,3.3254,3.3474,3.2205,3.1799,3.1765,3.1546,3.1275,3.0801,2.9873,3.0294,3.0427,2.8094,2.7249,2.6454,2.4372,2.3545,2.3243,2.3376,2.346,0.0,0.0,0.0,2.3004,0.0,0.0,2.3325,2.3122,2.3562,2.4372,2.5642,2.615,2.6607,2.7148,2.7012,2.7402,2.8569,2.8299,2.8653,3.0021,3.1106,3.1802,3.1989,3.3423,3.427,3.4423,3.5742,3.627,3.6054,3.6437,3.6884,3.7396,3.7396,3.7878,3.8707,3.8707,3.8707,3.8707,3.8707,3.8707,3.8707,3.8707,3.8707,3.8707,3.8707,3.8707,3.8707,1.9782,1.9708,1.9708,1.9708,2.0243,2.1316,2.3251,2.4171,2.5375,2.7285,2.8128,2.9041,3.0298,3.0972,3.1615,3.2273,3.1135,3.0235,2.999,2.7131,2.5357,2.5142,2.2859,2.1477,2.1252,2.0167,1.9212,1.8377,1.7894,1.7639,0.0,0.0,0.0,0.0,2.0767,2.2383,2.3655,2.4956,2.7006,2.9337,2.8682,2.9989,3.2144,3.1086,3.2299,3.4688,3.5362,3.56,3.5481,3.4692,3.4438,3.432,3.3575,3.3339,3.3186,3.2479,3.2747,3.2983,3.1512,3.2188,3.2239,2.7824,2.7249,2.6826,2.3192,2.3987,2.5101,2.368,2.5067,2.6116,2.4711,2.444,0.0,0.0,0.0,0.0,0.0,2.2347,2.2649,2.341,2.478,2.5643,2.566,2.5017,2.549,2.7672,2.6522,2.6996,2.9937,3.0142,3.0497,3.1207,3.2662,3.3676,3.4198,3.5671,3.6643,3.7152,3.7171,3.7415,3.7876,3.7876,3.8183,3.8707,3.8707,3.8707,3.8707,3.8707,3.8707,3.8707,3.8707,3.8707,3.8707,3.8707,3.8707,3.8707,1.9782,0.0,1.9708,1.9708,1.9902,2.0707,2.2703,2.5031,2.7165,2.8723,2.946,3.0702,3.2916,3.2946,3.3095,3.3754,3.2991,3.2077,3.1108,2.8445,2.7105,2.7478,2.4567,2.3125,2.3477,2.1649,2.0226,1.9258,1.8431,1.7925,0.0,0.0,0.0,0.0,2.128,2.331,2.4986,2.5884,2.7849,3.0387,3.114,3.3026,3.5176,3.3285,3.3413,3.4688,3.5362,3.56,3.5566,3.5295,3.4912,3.4539,3.4771,3.4201,3.3457,3.3677,3.3592,3.3305,3.2797,3.3372,3.3288,2.982,2.8772,2.774,2.4508,2.4712,2.5186,2.3697,2.5152,2.6251,2.4762,2.4491,0.0,0.0,0.0,0.0,0.0,2.2296,2.2381,2.2634,2.3545,2.4137,2.4137,2.3917,2.4492,2.6201,2.588,2.6471,2.8466,2.9548,3.0226,3.0463,3.2203,3.347,3.4185,3.5806,3.6789,3.7192,3.7506,3.7737,3.7893,3.7893,3.82,3.8707,3.8707,3.8707,3.8707,3.8707,3.8707,3.8707,3.8707,3.8707,3.8707,3.8707,3.8707,3.8707,1.9837,1.9902,1.9974,1.9753,2.0471,2.159,2.3131,2.6192,2.8708,2.9786,3.0672,3.2048,3.4264,3.4098,3.4113,3.4786,3.4457,3.3544,3.1959,3.0283,2.931,2.928,2.6767,2.5764,2.6566,2.4094,2.2301,2.1342,2.0058,1.9091,0.0,0.0,0.0,0.0,0.0,2.3796,2.5689,2.7081,2.9261,3.1904,3.3348,3.5082,3.666,3.5268,3.5168,3.5828,3.6255,3.6411,3.6377,3.6129,3.5707,3.5334,3.5532,3.494,3.4235,3.4438,3.4353,3.4083,3.3541,3.3931,3.3846,3.1157,3.0125,2.8993,2.5963,2.6285,2.6793,2.527,2.6319,2.7402,2.6962,2.5794,0.0,0.0,0.0,0.0,0.0,2.2296,2.2296,2.2296,2.2733,2.3045,2.3139,2.2836,2.3282,2.488,2.4891,2.5592,2.7317,2.8873,2.9837,3.0091,3.1827,3.3074,3.3805,3.5563,3.6665,3.7077,3.7819,3.8183,3.8183,3.8183,3.8382,3.8707,3.8707,3.8707,3.8707,3.8707,3.8707,3.8707,3.8707,3.8707,3.8707,3.8707,3.8707,3.8707,2.0007,2.0348,2.0658,2.0079,2.1979,2.3849,2.459,2.747,2.9789,3.0507,3.1749,3.3066,3.4414,3.4563,3.4801,3.5444,3.5504,3.4696,3.2751,3.2602,3.2003,3.0746,2.9445,2.9225,3.0244,2.7223,2.5234,2.4383,2.2574,2.1034,0.0,0.0,0.0,0.0,2.1799,2.3794,2.5826,2.8408,3.118,3.3923,3.5432,3.6391,3.6976,3.6976,3.7394,3.8007,3.7939,3.7905,3.7787,3.7077,3.6846,3.6728,3.596,3.5684,3.5515,3.4861,3.5148,3.5346,3.3977,3.4134,3.4134,3.1952,3.136,3.0531,2.7588,2.8654,2.9788,2.8229,2.8656,2.9676,3.0871,2.818,2.5979,0.0,0.0,0.0,0.0,2.2296,2.2313,2.2347,2.2327,2.2409,0.0,2.1832,2.2019,2.3725,2.3591,2.4371,2.6555,2.8113,2.9281,3.0023,3.1501,3.2544,3.3133,3.5028,3.6274,3.6839,3.8097,3.8707,3.8707,3.8707,3.8707,3.8707,3.8707,3.8707,3.8707,3.8707,3.8707,3.8707,3.8707,3.8707,3.8707,3.8707,3.8707,3.8707,2.0617,2.1754,2.3116,2.3939,2.3819,2.4163,2.5839,2.7664,2.9609,3.1719,3.2721,3.3754,3.51,3.5235,3.531,3.5489,3.5504,3.5295,3.4771,3.3799,3.3305,3.3485,3.1734,3.0874,3.1162,2.7996,2.6183,2.5873,2.2871,2.143,2.1474,0.0,0.0,0.0,0.0,2.3861,2.6432,2.7599,3.0874,3.5491,3.8001,3.9109,3.9236,3.9236,3.937,3.9402,3.8294,3.7905,3.7872,3.7686,3.7618,3.7584,3.7381,3.6941,3.6552,3.6924,3.6772,3.6518,3.6705,3.6891,3.662,3.489,3.366,3.2357,3.0463,3.123,3.1795,2.9895,3.158,3.2598,3.004,2.9059,2.7853,0.0,0.0,0.0,0.0,2.2296,2.2499,2.3054,2.2802,2.2388,2.187,2.2347,2.2867,2.3265,2.3592,2.45,2.6157,2.742,2.8467,2.9264,3.0992,3.2434,3.3547,3.4986,3.6258,3.7323,3.8258,3.8707,3.8707,3.8707,3.8707,3.8707,3.8707,3.8707,3.8707,3.8707,3.8707,3.8707,3.8707,3.8707,3.8707,3.8707,3.8707,3.8707,2.2113,2.3789,2.5674,2.6737,2.6527,2.6587,2.775,2.9265,3.0836,3.2317,3.3335,3.4203,3.4981,3.5325,3.5504,3.5504,3.5504,3.525,3.4666,3.4472,3.4277,3.4053,3.326,3.3109,3.3761,3.0473,2.8578,2.819,2.4737,2.272,2.2082,0.0,0.0,0.0,0.0,2.3579,2.5952,2.9314,3.2861,3.6442,3.9064,4.0096,0.0,4.0096,4.0096,3.9994,3.9157,3.8853,3.8802,3.8481,3.8379,3.8328,3.8007,3.7618,3.7347,3.7787,3.7601,3.7364,3.7787,3.7905,3.7702,3.6817,3.574,3.4489,3.2983,3.2943,3.299,3.2072,3.2802,3.3265,3.2207,3.0643,2.8347,2.4849,0.0,0.0,2.2375,2.2296,2.2448,2.2868,2.2928,2.2601,2.1801,2.233,2.2551,2.2181,2.293,2.3722,2.4398,2.6588,2.8098,2.8767,3.0731,3.2249,3.3171,3.4776,3.5957,3.6684,3.8044,3.8707,3.8707,3.8707,3.8707,3.8707,3.8707,3.8707,3.8707,3.8707,3.8707,3.8707,3.8707,3.8707,3.8707,3.8707,3.8707,3.8707,2.4328,2.6282,2.8169,2.8742,2.9549,3.0146,3.0235,3.1524,3.2572,3.2871,3.3978,3.4803,3.4878,3.5325,3.5624,3.5624,3.5549,3.5011,3.3844,3.4861,3.4981,3.3814,3.4307,3.5263,3.6651,3.3359,3.128,3.058,2.71,2.4331,2.2264,0.0,0.0,0.0,0.0,0.0,2.5538,3.2142,3.5605,3.6876,3.9156,4.0096,4.0096,4.0096,4.0096,4.0096,4.0096,4.0096,4.0011,3.9343,3.914,3.9022,3.8396,3.8125,3.8075,3.8159,3.8125,3.8075,3.8159,3.8193,3.8159,3.8075,3.755,3.6694,3.5131,3.4415,3.4134,3.4436,3.3574,3.3406,3.5401,3.2264,2.8294,2.5044,2.4348,2.3887,2.2957,2.2635,2.255,2.2652,2.3054,0.0,2.2268,2.2316,2.205,2.1227,2.2212,2.2816,2.2719,2.5824,2.7913,2.8618,3.0664,3.2057,3.2743,3.4647,3.5682,3.5856,3.7783,3.8707,3.8707,3.8707,3.8707,3.8707,3.8707,3.8707,3.8707,3.8707,3.8707,3.8707,3.8707,3.8707,3.8707,3.8707,3.8707,3.8707,2.753,2.8951,3.0028,3.0148,3.1629,3.2991,3.356,3.2991,3.311,3.4771,3.5654,3.6327,3.6836,3.6552,3.6312,3.6312,3.5818,3.5415,3.5175,3.537,3.54,3.516,3.5265,3.5744,3.6611,3.3847,3.1954,3.1002,2.7555,2.4937,2.3165,0.0,0.0,0.0,0.0,0.0,2.8074,3.3429,3.5817,3.6211,3.8981,4.0096,4.0096,4.0096,4.0096,4.0096,4.0096,4.0096,4.0079,3.996,3.991,3.9893,3.9757,3.9317,3.892,3.9554,3.9276,3.8937,3.9554,3.9723,3.9571,3.8954,3.87,3.8234,3.6745,3.6947,3.7171,3.6217,3.6809,3.7011,3.5384,3.24,2.9567,2.7607,2.618,2.539,2.5577,2.4458,2.385,2.4456,2.4274,2.391,2.3374,2.3627,2.3496,2.2684,2.2936,2.3668,2.4866,2.5909,2.7379,2.9363,3.0689,3.2245,3.4047,3.5078,3.6131,3.7183,3.8218,3.8707,3.8707,3.8707,3.8707,3.8707,3.8707,3.8707,3.8707,3.8707,3.8707,3.8707,3.8707,3.8707,3.8707,3.8707,3.8707,3.8707,3.0432,3.1405,3.2168,3.2497,3.3664,3.4756,3.5415,3.525,3.5295,3.5923,3.6297,3.6596,3.6896,3.6941,3.6971,3.6971,3.6671,3.6492,3.6492,3.6193,3.6013,3.6013,3.5684,3.5846,3.6569,3.4605,3.3001,3.182,2.8576,2.5875,2.3736,2.2752,0.0,2.1278,0.0,2.6635,2.933,3.395,3.6057,3.6538,3.9076,4.0096,4.0096,4.0096,4.0096,4.0096,4.0096,4.0096,4.0096,4.0096,4.0096,4.0096,4.0096,3.9859,3.9656,3.9994,3.9859,3.9656,4.0011,4.0096,4.0011,3.9673,3.9276,3.8802,3.8091,3.7718,3.7515,3.7405,3.7681,3.7442,3.5919,3.3382,3.1078,2.9723,2.8138,2.6982,2.6611,2.5895,2.5222,2.4747,0.0,2.4366,2.3711,2.3986,2.3638,2.2273,2.2965,2.3719,2.4329,2.5688,2.7443,2.9565,3.096,3.2646,3.4695,3.5545,3.6489,3.7511,3.8322,3.8707,3.8707,3.8707,3.8707,3.8707,3.8707,3.8707,3.8707,3.8707,3.8707,3.8707,3.8707,3.8964,3.9276,3.8854,3.8964,3.9258,3.2796,3.3455,3.4083,3.4607,3.537,3.6088,3.6611,3.7345,3.7599,3.6971,3.6896,3.6956,3.709,3.7404,3.7614,3.7614,3.7494,3.7404,3.7404,3.6956,3.6626,3.6525,3.5983,3.5982,3.6584,3.5353,3.3973,3.2458,2.9846,2.7111,2.4241,2.3402,2.2892,2.2808,2.5868,2.8423,3.067,3.4513,3.648,3.7224,3.927,4.0096,4.0096,4.0096,4.0096,4.0096,4.0096,4.0096,4.0096,4.0096,4.0096,4.0096,4.0096,4.0096,4.0096,4.0096,4.0096,4.0096,4.0096,4.0096,4.0096,4.0096,3.9673,3.914,3.8836,3.7956,3.7357,3.7928,3.7767,3.7271,3.6442,3.4835,3.3121,3.1506,3.0194,2.8913,2.7593,2.7254,2.6577,2.5073,2.5028,2.4818,2.4006,2.3941,2.3335,2.1852,2.295,2.3743,2.3873,2.5433,2.7272,2.9352,3.0844,3.2629,3.4729,3.5789,3.678,3.7768,3.8395,3.8707,3.8707,3.8707,3.8707,3.8707,3.8707,3.8707,3.8707,3.8707,3.8707,3.8726,3.8891,3.9331,3.9827,3.9386,3.9606,4.0065,3.4189,3.4846,3.534,3.54,3.6417,3.7255,3.7315,3.8407,3.899,3.8302,3.8212,3.8452,3.908,3.8631,3.8302,3.8302,3.7749,3.7404,3.7404,3.736,3.7075,3.6507,3.6432,3.6483,3.66,3.5813,3.439,3.2326,3.1302,2.8747,2.4823,2.5144,2.5982,2.7242,2.8681,3.0739,3.3292,3.5828,3.7266,3.8027,3.9505,4.0096,4.0096,4.0096,4.0096,4.0096,4.0096,4.0096,4.0096,4.0096,4.0096,4.0096,4.0096,4.0096,4.0096,4.0096,4.0096,4.0096,4.0096,4.0096,4.0096,4.0096,4.0045,3.9656,3.8311,3.8225,3.8213,3.7464,3.7966,3.8101,3.6582,3.6721,3.6028,3.2941,3.2305,3.1542,2.9615,2.8719,2.782,2.664,2.6136,2.5577,2.4779,2.3737,2.3033,2.285,2.3386,2.4313,2.5661,2.5313,2.6129,2.8456,2.9709,3.1512,3.3899,3.5495,3.7074,3.8597,3.867,3.8707,3.8707,3.8707,3.8707,3.8707,3.8707,3.8707,3.8707,3.8707,3.8707,3.8781,3.9496,3.9827,3.9974,4.0634,4.0912,4.0967,3.6193,3.6163,3.6327,3.7105,3.733,3.7674,3.8497,3.908,3.932,3.905,3.9005,3.911,3.9394,3.917,3.9005,3.9005,3.8766,3.8616,3.8616,3.8227,3.7883,3.7644,3.6896,3.6508,3.655,3.5866,3.4699,3.3025,3.2171,3.0386,2.7706,2.767,2.8473,3.0039,3.1929,3.3597,3.5092,3.726,3.8363,3.8698,3.9708,4.0096,4.0096,4.0096,4.0096,4.0096,4.0096,4.0096,4.0096,4.0096,4.0096,4.0096,4.0096,4.0096,4.0096,4.0096,4.0096,4.0096,4.0096,4.0096,4.0096,4.0096,4.0096,3.9842,3.8802,3.8367,3.8025,3.7488,3.7827,3.8116,3.7799,3.6798,3.5752,3.4945,3.3555,3.2324,3.1516,3.0719,2.959,2.7932,2.6746,2.5649,2.4593,2.3267,2.2833,2.3712,2.3286,2.3465,2.4565,2.5256,2.626,2.7681,2.9807,3.1843,3.377,3.5459,3.711,3.8707,3.8707,3.8707,3.8707,3.8707,3.8707,3.8707,3.8707,3.8707,3.8707,3.8707,3.8982,3.9441,3.9772,4.0487,4.1313,4.115,4.1407,4.1827,3.7659,3.7345,3.7389,3.8497,3.8302,3.8317,3.9239,3.9388,3.9388,3.9388,3.9388,3.9388,3.9388,3.9388,3.9388,3.9388,3.9388,3.9388,3.9388,3.896,3.8601,3.8407,3.7524,3.6956,3.6761,3.6351,3.5446,3.4083,3.3701,3.2507,3.0507,3.0455,3.1206,3.2729,3.4851,3.6152,3.6919,3.8604,3.9309,3.9385,3.9893,4.0096,4.0096,4.0096,4.0096,4.0096,4.0096,4.0096,4.0096,4.0096,4.0096,4.0096,4.0096,4.0096,4.0096,4.0096,4.0096,4.0096,4.0096,4.0096,4.0096,4.0096,4.0096,3.991,3.9157,3.843,3.7766,3.7288,3.7546,3.8032,3.8399,3.7168,3.605,3.5936,3.4669,3.3261,3.2051,3.1604,3.0551,2.8203,2.685,2.5626,2.4421,2.3253,2.3035,2.4176,2.384,2.3855,2.4555,2.5318,2.6326,2.7585,3.0075,3.2155,3.377,3.5697,3.7331,3.8707,3.8707,3.8707,3.8707,3.8707,3.8707,3.8707,3.8707,3.8836,3.9056,3.9056,3.9533,4.0286,4.0506,4.1295,4.2268,4.1937,4.2176,4.2653,3.8257,3.8377,3.8586,3.929,3.9394,3.9394,3.9388,3.9388,3.9388,3.9388,3.9388,3.9388,3.9388,3.9388,3.9388,3.9388,3.9388,3.9388,3.9388,3.9373,3.9095,3.8422,3.8377,3.8063,3.7404,3.7512,3.6886,3.5489,3.625,3.5295,3.2671,3.3396,3.4386,3.5633,3.7172,3.8278,3.9005,3.9774,4.0096,4.0096,4.0096,4.0096,4.0096,4.0096,4.0096,4.0096,4.0096,4.0096,4.0096,4.0096,4.0096,4.0096,4.0096,4.0096,4.0096,4.0096,4.0096,4.0096,4.0096,4.0096,4.0096,4.0096,4.0096,3.991,3.9157,3.843,3.763,3.6615,3.721,3.7893,3.7893,3.8314,3.7863,3.5408,3.5701,3.4835,3.0797,3.0889,3.0256,2.7184,2.639,2.5626,2.4421,2.3925,2.3827,2.4161,2.535,2.623,2.6649,2.5547,2.5984,2.8317,3.0343,3.2155,3.377,3.6262,3.7881,3.8707,3.8707,3.8707,3.8707,3.8707,3.8707,3.8707,3.8707,3.9148,3.9882,3.9882,4.0359,4.115,4.1974,4.2286,4.2396,4.3167,4.3478,4.3496,3.9634,3.9753,3.9963,4.0636,4.0756,4.0756,4.0756,4.0382,4.0083,4.0083,3.9694,3.9388,3.9388,3.9388,3.9388,3.9388,3.9388,3.9388,3.9388,3.9388,3.932,3.9095,3.8631,3.8287,3.8078,3.8282,3.7867,3.6933,3.7778,3.7534,3.6249,3.6991,3.7566,3.7956,3.8954,3.9537,3.9774,4.0011,4.0096,4.0096,4.0096,4.0096,4.0096,4.0096,4.0096,4.0096,4.0096,4.0096,4.0096,4.0096,4.0096,4.0096,4.0096,4.0096,4.0096,4.0096,4.0096,4.0096,4.0096,4.0096,4.0096,4.0096,4.0096,3.991,3.9157,3.828,3.7541,3.7218,3.7565,3.7893,3.7893,3.7895,3.7441,3.6101,3.561,3.4582,3.2161,3.1586,3.0733,2.8918,2.765,2.6687,2.606,2.4949,2.4486,2.504,2.4533,2.4569,2.5428,2.7199,2.8014,2.7658,3.1154,3.3275,3.3788,3.6262,3.7915,3.8707,3.8707,3.8707,3.8707,3.8707,3.8707,3.8726,3.9276,3.9662,3.9937,4.0487,4.1203,4.1937,4.2194,4.2635,4.3149,4.3423,4.3515,4.3515,4.0681,4.0771,4.0905,4.1347,4.1422,4.1422,4.1422,4.1025,4.0771,4.0771,4.0412,4.0068,3.9813,3.9783,3.9694,3.9403,3.9388,3.9388,3.9388,3.9388,3.9388,3.9388,3.9005,3.8781,3.8781,3.8953,3.8831,3.8397,3.9321,3.9565,3.9157,3.9614,3.9665,3.9411,3.9893,4.0096,4.0096,4.0096,4.0096,4.0096,4.0096,4.0096,4.0096,4.0096,4.0096,4.0096,4.0096,4.0096,4.0096,4.0096,4.0096,4.0096,4.0096,4.0096,4.0096,4.0096,4.0096,4.0096,4.0096,4.0096,4.0096,4.0096,4.0096,3.996,3.9423,3.8995,3.8542,3.7962,3.8107,3.8272,3.7966,3.7931,3.7588,3.6468,3.5844,3.4711,3.2467,3.1715,3.0734,2.8949,2.8158,2.7559,2.7043,2.6657,2.6684,2.722,2.6976,2.6947,2.7325,2.8269,2.9034,2.9541,3.2615,3.4559,3.5183,3.7033,3.8193,3.8707,3.8707,3.8854,3.9148,3.8836,3.9038,3.9625,3.9808,4.023,4.0836,4.135,4.2029,4.2745,4.2745,4.3057,4.3515,4.3515,4.3515,4.3515,4.1482,4.1444,4.1459,4.1504,4.1519,4.1519,4.1519,4.1512,4.1444,4.1444,4.1452,4.1145,4.0531,4.0472,4.0217,3.9604,3.9433,3.9388,3.9388,3.9388,3.9388,3.9388,3.9388,3.9388,3.9388,3.9589,3.9712,3.9767,4.0799,4.125,4.1193,4.1245,4.0899,4.0248,4.0248,4.0248,4.0248,4.0248,4.0248,4.0248,4.0248,4.0248,4.0248,4.0248,4.0248,4.0248,4.0248,4.0231,4.018,4.018,4.0146,4.0096,4.0096,4.0096,4.0096,4.0096,4.0096,4.0096,4.0096,4.0096,4.0096,4.0096,4.0121,4.0116,3.9922,4.034,4.0319,3.886,3.8886,3.892,3.8127,3.8387,3.8175,3.656,3.6303,3.5147,3.1856,3.1452,3.0491,2.7816,2.8196,2.8407,2.7665,2.8946,2.995,3.0259,3.161,3.2173,3.1525,2.9065,2.9404,3.3208,3.4534,3.5922,3.7474,3.8303,3.8707,3.8707,3.8762,3.9184,3.9879,3.9184,3.9664,4.1058,4.0377,4.091,4.2304,4.2359,4.2818,4.3515,4.3515,4.3515,4.3515,4.3515,4.3515,4.3515,4.2066,4.2171,4.2321,4.2791,4.2826,4.2826,4.2826,4.2447,4.2171,4.2171,4.1737,4.1324,4.116,4.1145,4.1085,4.0935,3.9993,3.9388,3.9388,3.9388,3.9388,3.9388,3.9388,3.9388,3.9388,4.0086,4.0495,4.0626,4.1576,4.1692,4.1049,4.1732,4.1948,4.1788,4.1788,4.1788,4.1788,4.1788,4.1788,4.1788,4.1788,4.1788,4.1788,4.1788,4.1788,4.1788,4.1788,4.1407,4.0933,4.0933,4.0561,4.0096,4.0096,4.0096,4.0096,4.0096,4.0096,4.0096,4.0096,4.0096,4.0096,4.0096,4.0417,4.0698,4.0655,4.0948,4.1018,4.0306,3.9932,3.9529,3.8919,3.8751,3.8175,3.656,3.6303,3.5147,3.1856,3.1935,3.1616,2.974,3.0216,3.0637,3.0454,3.0765,3.1028,3.1109,3.0907,3.1219,3.2265,3.1706,3.2052,3.3625,3.5779,3.7107,3.7492,3.8303,3.8707,3.8707,3.9313,3.9717,3.99,4.0341,4.0728,4.1113,4.1552,4.1956,4.2359,4.2947,4.3331,4.3515,4.3515,4.3515,4.3515,4.3515,4.3515,4.3515,4.2731,4.2806,4.291,4.323,4.329,4.329,4.329,4.303,4.2806,4.2806,4.2491,4.2162,4.1901,4.1871,4.1752,4.1452,4.0726,4.0307,4.0307,4.0307,4.0187,3.9888,3.9873,3.9723,3.9388,3.9864,4.052,4.1406,4.2724,4.2941,4.211,4.2587,4.2625,4.2286,4.2286,4.2286,4.2286,4.2286,4.2286,4.2286,4.2286,4.2286,4.2286,4.2286,4.2286,4.2286,4.2286,4.2033,4.1694,4.1694,4.1204,4.0595,4.0595,4.0383,4.0096,4.0096,4.0096,4.0096,4.0096,4.0096,4.0096,4.0096,4.072,4.1313,4.1313,4.1848,4.2196,4.1557,4.1194,4.0679,3.9644,3.9353,3.8597,3.6615,3.6303,3.5275,3.2357,3.2307,3.2271,3.139,3.2008,3.2632,3.3018,3.3403,3.3458,3.3091,3.3018,3.3201,3.3665,3.4431,3.4871,3.4945,3.6611,3.7676,3.8028,3.8487,3.8891,3.9239,3.968,4.0286,4.1001,4.1075,4.1515,4.2194,4.2268,4.2506,4.2873,4.3331,4.3515,4.3515,4.3515,4.3515,4.3515,4.3515,4.3515,4.3515,4.329,4.329,4.329,4.329,4.329,4.329,4.329,4.329,4.329,4.329,4.329,4.312,4.2605,4.2545,4.2321,4.1728,4.1683,4.1594,4.1384,4.1422,4.113,4.0576,4.0546,4.0292,3.9723,3.9841,4.0624,4.1997,4.3739,4.4176,4.3378,4.3534,4.325,4.2642,4.2642,4.2642,4.2642,4.2642,4.2642,4.2642,4.2642,4.2642,4.2642,4.2642,4.2642,4.2642,4.2642,4.2557,4.2472,4.2472,4.1982,4.1373,4.1373,4.0933,4.0417,4.0299,4.0282,4.0248,4.013,4.0096,4.0096,4.0096,4.0891,4.1686,4.1789,4.262,4.3209,4.2599,4.2378,4.1846,4.0359,3.9974,3.9126,3.6688,3.6303,3.544,3.2949,3.2803,3.2913,3.2803,3.3605,3.4449,3.5133,3.5881,3.6046,3.5426,3.5954,3.6028,3.5408,3.6725,3.7199,3.6486,3.7272,3.808,3.8872,3.8891,3.9276,4.0084,4.0194,4.0983,4.2286,4.1735,4.2213,4.346,4.2782,4.2873,4.3515,4.3515,4.3515,4.3515,4.3515,4.3515,4.3515,4.3515,4.3515,4.3515,4.329,4.329,4.329,4.329,4.329,4.329,4.329,4.329,4.329,4.329,4.329,4.3245,4.3155,4.314,4.311,4.2991,4.2991,4.2566,4.1444,4.1422,4.1324,4.1235,4.1235,4.119,4.107,4.1992,4.2295,4.1997,4.3739,4.4174,4.332,4.4085,4.4361,4.4242,4.4242,4.4242,4.4242,4.4242,4.4242,4.4242,4.4242,4.4242,4.4242,4.4242,4.4242,4.4242,4.4242,4.3809,4.325,4.325,4.2743,4.2117,4.2117,4.2049,4.183,4.1204,4.1035,4.0882,4.0282,4.0096,4.0096,4.0096,4.0577,4.1161,4.1686,4.2324,4.2922,4.3263,4.2763,4.2029,4.1093,4.0359,3.9126,3.6688,3.6303,3.544,3.2949,3.3775,3.438,3.3697,3.4963,3.5954,3.6083,3.6211,3.6523,3.707,3.6611,3.6541,3.7088,3.7364,3.7437,3.7327,3.8083,3.8909,3.9698,3.9698,4.012,4.0912,4.1607,4.2066,4.2323,4.2873,4.3259,4.3496,4.3369,4.3386,4.3515,4.3515,4.3515,4.3515,4.3515,4.3515,4.3515,4.3515,4.3515,4.3515,4.329,4.329,4.329,4.329,4.329,4.329,4.329,4.329,4.329,4.329,4.329,4.329,4.329,4.329,4.329,4.329,4.329,4.3035,4.2476,4.2432,4.2282,4.1961,4.1946,4.2017,4.2166,4.311,4.3684,4.3909,4.4775,4.499,4.4591,4.4614,4.4615,4.4615,4.4615,4.4615,4.4615,4.4615,4.4615,4.4615,4.4615,4.4615,4.4615,4.4615,4.4615,4.4615,4.4615,4.435,4.4045,4.4045,4.3538,4.2895,4.2895,4.2625,4.2219,4.188,4.1221,4.0527,4.0197,4.0311,4.0449,4.0154,4.0744,4.1468,4.1746,4.2282,4.2845,4.3392,4.3185,4.269,4.1901,4.1093,4.0047,3.8487,3.7147,3.6046,3.533,3.5096,3.5206,3.573,3.6483,3.711,3.7551,3.7588,3.7569,3.7492,3.7551,3.7569,3.7492,3.8319,3.8796,3.8796,3.9148,3.9735,4.0543,4.0561,4.0946,4.1754,4.2121,4.2525,4.2947,4.3331,4.3515,4.3515,4.3515,4.3515,4.3515,4.3515,4.3515,4.3515,4.3515,4.3515,4.3515,4.3515,4.3515,4.3515,4.329,4.329,4.329,4.329,4.329,4.329,4.329,4.329,4.329,4.329,4.329,4.329,4.329,4.329,4.329,4.329,4.329,4.329,4.329,4.329,4.3105,4.265,4.262,4.2834,4.3325,4.3974,4.4804,4.5792,4.5929,4.5957,4.594,4.5365,4.5122,4.5122,4.5122,4.5038,4.4869,4.4869,4.4767,4.4615,4.4615,4.4615,4.4615,4.4615,4.4615,4.4615,4.4615,4.4615,4.4615,4.4615,4.4181,4.369,4.369,4.3284,4.2794,4.2608,4.1508,4.0358,4.0288,4.0577,4.0827,4.057,4.115,4.1832,4.1979,4.2362,4.2845,4.3392,4.3515,4.324,4.2451,4.1809,4.1001,3.9808,3.8065,3.7,3.7437,3.656,3.6399,3.7878,3.8227,3.8579,3.9203,3.9258,3.9001,3.8392,3.8909,3.9001,3.8374,3.9496,4.0249,4.0451,4.0286,4.0579,4.137,4.137,4.1791,4.258,4.258,4.2892,4.3515,4.3515,4.3515,4.3515,4.3515,4.3515,4.3515,4.3515,4.3515,4.3515,4.3515,4.3515,4.3515,4.3515,4.3515,4.3515,4.329,4.329,4.329,4.329,4.329,4.329,4.329,4.329,4.329,4.329,4.329,4.329,4.329,4.329,4.329,4.329,4.329,4.329,4.329,4.329,4.3275,4.323,4.3215,4.377,4.4928,4.4982,4.557,4.671,4.6705,4.6718,4.6718,4.665,4.6633,4.6633,4.6633,4.6261,4.5618,4.5618,4.5213,4.4615,4.4615,4.4615,4.4615,4.4615,4.4615,4.4615,4.4615,4.4615,4.4615,4.4615,4.4564,4.4513,4.4513,4.4479,4.4293,4.3555,4.2286,4.1078,4.0892,4.0856,4.1018,4.1534,4.1746,4.1937,4.25,4.2655,4.2845,4.3392,4.3515,4.324,4.2451,4.2249,4.146,3.9166,3.8652,3.8285,3.7603,3.8028,3.8744,3.9606,4.0377,4.0857,4.0912,4.0912,4.0893,4.0838,4.0893,4.0893,4.0838,4.0948,4.1352,4.2103,4.1405,4.1405,4.2194,4.2213,4.2616,4.3423,4.3423,4.3441,4.3515,4.3515,4.3515,4.3515,4.3515,4.3515,4.3515,4.3515,4.3515,4.3515,4.3515,4.3515,4.3515,4.3515,4.3515,4.3515,4.329,4.329,4.329,4.329,4.329,4.329,4.329,4.329,4.329,4.329,4.329,4.329,4.329,4.329,4.329,4.329,4.329,4.329,4.329,4.329,4.329,4.329,4.329,4.379,4.4872,4.5488,4.628,4.7296,4.744,4.7479,4.7479,4.7005,4.6786,4.6786,4.6786,4.6633,4.638,4.638,4.621,4.5957,4.5957,4.5686,4.528,4.528,4.4993,4.4615,4.4615,4.4615,4.4615,4.4615,4.4615,4.4615,4.4615,4.4615,4.4445,4.3656,4.2987,4.2436,4.1819,4.1539,4.1512,4.1729,4.208,4.242,4.2655,4.2711,4.2845,4.3392,4.3515,4.3423,4.3094,4.2635,4.2158,4.1735,4.0414,3.968,4.0377,3.9882,3.9735,4.0561,4.0912,4.1095,4.1095,4.1095,4.1095,4.1095,4.1095,4.1095,4.1095,4.1572,4.2213,4.302,4.2745,4.2745,4.3039,4.3039,4.3185,4.3515,4.3515,4.3515,4.3515,4.3515,4.3515,4.3515,4.3515,4.3515,4.3515,4.3515,4.3515,4.3515,4.3515,4.3631,4.3788,4.358,4.3629,4.382,4.329,4.329,4.329,4.329,4.329,4.329,4.329,4.329,4.329,4.329,4.329,4.329,4.329,4.329,4.329,4.329,4.329,4.329,4.329,4.329,4.329,4.329,4.329,4.3771,4.4774,4.5431,4.6365,4.7589,4.7741,4.7948,4.824,4.7733,4.7479,4.7479,4.7479,4.7361,4.7141,4.7141,4.7005,4.6786,4.6786,4.6498,4.6058,4.6058,4.572,4.5275,4.501,4.4942,4.4891,4.4682,4.4615,4.4615,4.4615,4.4615,4.4496,4.3944,4.3606,4.3318,4.2898,4.2347,4.1934,4.205,4.2382,4.275,4.292,4.2958,4.3069,4.3427,4.3515,4.3515,4.3515,4.3039,4.2763,4.3057,4.1717,4.1038,4.2139,4.135,4.0946,4.1772,4.1864,4.1864,4.1864,4.1864,4.1864,4.1864,4.1864,4.1864,4.1864,4.2378,4.2928,4.3478,4.3515,4.3515,4.3515,4.3515,4.3515,4.3515,4.3515,4.3515,4.3515,4.3515,4.3515,4.3515,4.3515,4.3515,4.3515,4.3515,4.3546,4.3662,4.3662,4.3865,4.415,4.3788,4.3881,4.4161,4.329,4.329,4.329,4.329,4.329,4.329,4.329,4.329,4.329,4.329,4.329,4.329,4.329,4.329,4.329,4.329,4.329,4.329,4.329,4.329,4.329,4.329,4.329,4.3786,4.4774,4.4812,4.5706,4.7589,4.7589,4.808,4.9001,4.9001,4.9001,4.9001,4.9001,4.8595,4.7889,4.7889,4.7496,4.6802,4.6802,4.6802,4.6802,4.6802,4.6802,4.6701,4.5974,4.572,4.5602,4.484,4.4615,4.4615,4.4615,4.4615,4.4615,4.4615,4.4028,4.3539,4.4113,4.3227,4.2201,4.2615,4.2711,4.2845,4.3375,4.3515,4.3515,4.3515,4.3515,4.3515,4.3515,4.3515,4.3239,4.2433,4.2304,4.2304,4.2304,4.2304,4.2598,4.3423,4.3515,4.3515,4.3515,4.3515,4.3515,4.3515,4.3515,4.3515,4.3515,4.3515,4.3515,4.3515,4.3515,4.3515,4.3515,4.3515,4.3515,4.3515,4.3515,4.3515,4.3515,4.3515,4.3515,4.3515,4.3515,4.3515,4.3515,4.3515,4.3712,4.4001,4.4001,4.4266,4.4553,4.4146,4.4247,4.454,4.329,4.329,4.329,4.329,4.329,4.329,4.329,4.329,4.329,4.329,4.329,4.329,4.329,4.329,4.329,4.329,4.329,4.329,4.329,4.329,4.329,4.329,4.329,4.3433,4.3732,4.4434,4.5095,4.5649,4.6295,4.7104,4.8015,4.8015,4.837,4.9001,4.9001,4.8883,4.868,4.868,4.8545,4.8342,4.8342,4.8037,4.7581,4.7581,4.7259,4.6752,4.6549,4.6464,4.643,4.621,4.5788,4.528,4.4767,4.4615,4.4615,4.4615,4.4418,4.4169,4.3766,4.336,4.309,4.3385,4.3089,4.2845,4.3375,4.3515,4.3515,4.3515,4.3515,4.3515,4.3515,4.3515,4.3423,4.3167,4.313,4.313,4.313,4.313,4.3222,4.3478,4.3515,4.3515,4.3515,4.3515,4.3515,4.3515,4.3515,4.3515,4.3515,4.3515,4.3515,4.3515,4.3515,4.3515,4.3515,4.3515,4.3515,4.3515,4.3515,4.3515,4.3515,4.3515,4.3515,4.3515,4.3515,4.3515,4.3515,4.3515,4.3565,4.366,4.3912,4.4266,4.4599,4.4474,4.4644,4.4908,4.329,4.329,4.329,4.329,4.329,4.329,4.329,4.329,4.329,4.329,4.329,4.329,4.329,4.3529,4.3678,4.3678,4.3958,4.4107,4.4107,4.4107,4.4107,4.4107,4.4107,4.3828,4.3305,4.3888,4.4396,4.4812,4.5726,4.6662,4.7622,4.7982,4.8482,4.9001,4.9001,4.9001,4.9001,4.9001,4.9001,4.9001,4.9001,4.8731,4.8359,4.8359,4.8071,4.7631,4.7344,4.7242,4.7192,4.6887,4.6498,4.6007,4.5263,4.5026,4.4976,4.4699,4.4615,4.4496,4.4012,4.3656,4.3515,4.3897,4.3365,4.2989,4.3779,4.3718,4.3515,4.3515,4.3515,4.3515,4.3515,4.3515,4.3515,4.3515,4.3515,4.3515,4.3515,4.3515,4.3515,4.3515,4.3515,4.3515,4.3515,4.3515,4.3515,4.3515,4.3515,4.3515,4.3515,4.3515,4.3515,4.3515,4.3515,4.3515,4.3515,4.3515,4.3515,4.3515,4.3515,4.3515,4.3515,4.3515,4.3515,4.3515,4.3515,4.3515,4.3515,4.3515,4.358,4.3726,4.3909,4.4332,4.4769,4.4644,4.4896,4.5243,4.329,4.329,4.329,4.329,4.3349,4.3379,4.3379,4.3424,4.3469,4.3469,4.3469,4.3469,4.3469,4.4007,4.4407,4.4407,4.4945,4.5289,4.5289,4.5289,4.5289,4.5289,4.5289,4.4736,4.3499,4.3409,4.3832,4.4812,4.567,4.6609,4.7622,4.8465,4.8923,4.9001,4.9001,4.9001,4.9001,4.9001,4.9001,4.9001,4.9001,4.9001,4.9001,4.9001,4.9001,4.8917,4.8227,4.799,4.7902,4.7141,4.6887,4.6769,4.6024,4.5754,4.5568,4.4919,4.4649,4.4615,4.4615,4.4062,4.364,4.4251,4.3709,4.3316,4.4381,4.4051,4.3519,4.3497,4.3515,4.3515,4.3515,4.3515,4.3515,4.3515,4.3515,4.3515,4.3515,4.3515,4.3515,4.3515,4.3515,4.3515,4.3515,4.3515,4.3515,4.3515,4.3515,4.3515,4.3515,4.3515,4.3515,4.3515,4.3515,4.3515,4.3515,4.3515,4.3515,4.3515,4.3515,4.3515,4.3515,4.3515,4.3515,4.3515,4.3515,4.3515,4.3515,4.3515,4.3695,4.3955,4.4001,4.4423,4.503,4.4751,4.5044,4.5559,4.329,4.329,4.329,4.329,4.3723,4.4067,4.4067,4.4541,4.487,4.487,4.487,4.487,4.487,4.5005,4.508,4.508,4.5214,4.5289,4.5289,4.5289,4.5289,4.5289,4.5289,4.5155,4.487,4.4362,4.434,4.4812,4.5005,4.5957,4.7589,4.7803,4.8306,4.9001,4.9001,4.9001,4.9001,4.9001,4.9001,4.9001,4.9001,4.9001,4.9001,4.9001,4.9001,4.8984,4.8832,4.8765,4.8663,4.7919,4.7682,4.7547,4.6786,4.616,4.5669,4.5517,4.5043,4.4615,4.4615,4.4479,4.4493,4.5105,4.4609,4.3997,4.4016,4.3857,4.3702,4.3538,4.3515,4.3515,4.3515,4.3515,4.3515,4.3515,4.3515,4.3515,4.3515,4.3515,4.3515,4.3515,4.3515,4.3515,4.3515,4.3515,4.3515,4.3515,4.3515,4.3515,4.3515,4.3515,4.3515,4.3515,4.3515,4.3515,4.3515,4.3515,4.3515,4.3515,4.3515,4.3515,4.3515,4.3515,4.3515,4.3515,4.3515,4.3515,4.3515,4.3515,4.3548,4.3629,4.3912,4.429,4.472,4.4919,4.5243,4.5586,4.3828,4.4007,4.4167,4.3813,4.4347,4.4781,4.4781,4.5065,4.5289,4.5289,4.5289,4.5289,4.5289,4.5589,4.5918,4.6232,4.6247,4.6247,4.6247,4.6247,4.6247,4.6247,4.6247,4.6097,4.5783,4.5439,4.543,4.5795,4.6235,4.7233,4.8644,4.8761,4.9048,4.9509,4.9171,4.9001,4.9001,4.9001,4.9001,4.9001,4.9001,4.9001,4.9001,4.9001,4.9001,4.9001,4.9001,4.9001,4.8951,4.8562,4.8443,4.8308,4.7564,4.7073,4.6616,4.5923,4.5432,4.5043,4.4699,4.4615,4.4682,4.4998,4.4744,4.4439,4.4378,4.4079,4.3729,4.3539,4.3515,4.3515,4.3515,4.3515,4.3515,4.3515,4.3515,4.3515,4.3515,4.3515,4.3515,4.3515,4.3515,4.3515,4.3515,4.3515,4.3515,4.3515,4.3515,4.3515,4.3515,4.3515,4.3515,4.3515,4.3515,4.3515,4.3515,4.3515,4.3515,4.3515,4.3515,4.3515,4.3515,4.3515,4.3515,4.3515,4.3515,4.3515,4.3515,4.3515,4.3515,4.3513,4.3693,4.411,4.4618,4.48,4.5171,4.5594,4.4586,4.4915,4.5125,4.4571,4.5035,4.5469,4.5469,4.5559,4.5633,4.5633,4.5633,4.5633,4.5633,4.6157,4.6711,4.7249,4.7309,4.7309,4.7309,4.7309,4.7309,4.7309,4.7309,4.7055,4.6459,4.6641,4.6787,4.6889,4.7854,4.8796,4.9799,5.0138,5.0219,5.0067,4.9458,4.912,4.9001,4.9001,4.9001,4.9001,4.9001,4.9001,4.9001,4.9001,4.9001,4.9001,4.9001,4.9001,4.9001,4.9001,4.9001,4.89,4.8261,4.799,4.7652,4.6447,4.5906,4.5568,4.4942,4.4699,4.4615,4.4615,4.4615,4.4639,4.484,4.4366,4.3814,4.3597,4.3558,4.3539,4.3516,4.3515,4.3515,4.3515,4.3515,4.3515,4.3515,4.3515,4.3515,4.3515,4.3515,4.3515,4.3515,4.3515,4.3515,4.3515,4.3515,4.3515,4.3515,4.3515,4.3515,4.3515,4.3515,4.3515,4.3515,4.3515,4.3515,4.3515,4.3515,4.3515,4.3515,4.3515,4.3515,4.3515,4.3515,4.3515,4.3515,4.3515,4.3515,4.3515,4.3515,4.3915,4.4514,4.4631,4.5066,4.5594,4.5185,4.5229,4.5274,4.517,4.5723,4.6145,4.6145,4.6666,4.704,4.704,4.704,4.704,4.704,4.7115,4.7204,4.7294,4.7309,4.7309,4.7309,4.7309,4.7309,4.7309,4.7309,4.7264,4.7174,4.8004,4.7879,4.6741,4.7801,4.876,4.9729,5.0642,5.071,5.0084,4.9982,4.9593,4.9001,4.9001,4.9001,4.9001,4.9001,4.9001,4.9001,4.9001,4.9001,4.9001,4.9001,4.9001,4.9001,4.9001,4.9001,4.8984,4.8883,4.8426,4.7855,4.7652,4.6718,4.5686,4.5585,4.5077,4.4615,4.4615,4.4615,4.4565,4.4428,4.4299,4.4125,4.3832,4.3763,4.3718,4.3538,4.3515,4.3515,4.3515,4.3515,4.3515,4.3515,4.3515,4.3515,4.3515,4.3515,4.3515,4.3515,4.3515,4.3515,4.3515,4.3515,4.3515,4.3515,4.3515,4.3515,4.3515,4.3515,4.3515,4.3515,4.3515,4.3515,4.3515,4.3515,4.3515,4.3515,4.3515,4.3515,4.3515,4.3515,4.3515,4.3515,4.3515,4.3515,4.3515,4.3515,4.3742,4.4161,4.4806,4.5263,4.5594,4.5933,4.6157,4.6307,4.5933,4.6426,4.6875,4.6875,4.7115,4.7309,4.7309,4.7309,4.7309,4.7309,4.7309,4.7309,4.7309,4.7309,4.7309,4.7309,4.7309,4.7309,4.7309,4.7309,4.7309,4.7309,4.8293,4.849,4.7886,4.9528,5.052,5.0949,5.1548,5.164,5.1302,5.0896,5.0304,4.961,4.961,4.9373,4.9001,4.9001,4.9001,4.9001,4.9001,4.9001,4.9001,4.9001,4.9001,4.9001,4.9001,4.9001,4.9001,4.9001,4.8781,4.8443,4.8007,4.7432,4.6769,4.5923,4.5466,4.5111,4.4716,4.4615,4.4597,4.448,4.4465,4.4354,4.3979,4.3852,4.376,4.3685,4.3578,4.3515,4.3515,4.3515,4.3515,4.3515,4.3515,4.3515,4.3515,4.3515,4.3515,4.3515,4.3515,4.3515,4.3515,4.3515,4.3515,4.3515,4.3515,4.3515,4.3515,4.3515,4.3515,4.3515,4.3515,4.3515,4.3515,4.3515,4.3515,4.3515,4.3515,4.3515,4.3515,4.3515,4.3515,4.3515,4.3515,4.3515,4.3513,4.371,4.4117,4.4676,4.5182,4.5457,4.5594]}]]